[[[{"header":{"parameterUnit":"kt","parameterCategory":2,"dx":1,"dy":1,"la1":29.587661999999998,"la2":31.0,"lo1":-88.76705300000003,"lo2":-86.6583820000003,"nx":115,"ny":88,"refTime":"2022-10-10T06:00:00:Z","depth":0,"parameterNumber":1,"parameterNumberName":"U-component_of_WINDS"},"data":[-1.8046,-1.7526,-1.6917,-1.6777,-1.6824,-1.6231,-1.6001,-1.6001,-1.591,-1.5941,-1.5931,-1.5915,-1.5867,-1.5867,-1.5873,-1.5968,-1.6079,-1.6131,-1.62,-1.6348,-1.6374,-1.6253,-1.6227,-1.6369,-1.6279,-1.6237,-1.6229,-1.6368,-1.5096,-1.3078,-1.1167,-0.8947,-0.6229,0.0,0.0,0.0,0.0,0.0,0.0,0.0,0.0,0.0,0.0,0.0,0.0,0.0,0.0,0.0,0.0,0.0,0.0,0.0,0.0,0.0,0.0,0.0523,0.0784,0.1299,0.2071,0.2706,0.334,0.3564,0.3791,0.4035,0.4,0.3995,0.3954,0.3906,0.3895,0.387,0.3962,0.3962,0.3964,0.4084,0.4084,0.4323,0.4324,0.4922,0.5279,0.6141,0.7028,0.7926,0.9187,0.9311,0.9737,1.1164,1.1495,1.2661,1.3587,1.4636,1.5652,1.6316,1.6943,1.507,1.3047,1.307,1.3193,1.4273,1.5195,1.533,1.6044,1.7437,1.8265,1.7741,1.7829,1.8652,1.9,1.9086,1.9086,1.9086,1.9676,2.003,2.0265,2.0847,2.156,-1.8527,-1.7966,-1.7384,-1.717,-1.7074,-1.6608,-1.6261,-1.6175,-1.5977,-1.5825,-1.5804,-1.5497,-1.5397,-1.5386,-1.5402,-1.5561,-1.5714,-1.5857,-1.6068,-1.6216,-1.6301,-1.6158,-1.6205,-1.6364,-1.6269,-1.6295,-1.6417,-1.6422,-1.6411,-1.438,-1.2582,-1.1401,-0.9115,-0.6443,0.0,-0.3225,0.0,0.0,0.0,0.0,0.0,0.0,0.0,0.0,0.0,0.0,0.0,0.0,0.0,0.0,0.0,0.0,0.0,0.0,0.0,0.0522,0.0782,0.1434,0.2215,0.273,0.3245,0.3757,0.3983,0.4068,0.4011,0.3978,0.394,0.3917,0.3917,0.3897,0.386,0.3964,0.3965,0.3967,0.3968,0.3968,0.3969,0.4091,0.4208,0.4327,0.4607,0.4652,0.5053,0.4971,0.6134,0.8017,0.9163,1.0425,1.1331,1.1777,1.2124,1.2515,1.2668,1.2495,1.1596,1.1212,1.0885,1.1845,1.2235,1.2259,1.2896,1.5157,1.6466,1.6342,1.7058,1.7786,1.8259,1.8968,1.9086,1.9086,1.944,1.9794,2.003,2.0383,2.1207,-1.8856,-1.8502,-1.8035,-1.7679,-1.7561,-1.7093,-1.6624,-1.6285,-1.6141,-1.582,-1.5554,-1.5355,-1.5421,-1.5426,-1.5421,-1.5575,-1.5767,-1.5777,-1.5846,-1.5925,-1.5925,-1.5941,-1.583,-1.5783,-1.5904,-1.5878,-1.6015,-1.6216,-1.6074,-1.4714,-1.3334,-1.188,-1.12,-0.9056,-0.6217,-0.4533,-0.3255,-0.2149,0.0,0.0,0.0,0.0,0.0,0.0,0.0,0.0,0.0,0.0,0.0,0.0,0.0,0.0,0.0,0.0,0.0,0.0389,0.0647,0.0778,0.1692,0.234,0.285,0.3371,0.3744,0.4089,0.4033,0.3939,0.3901,0.3889,0.3889,0.3889,0.3973,0.3973,0.3856,0.3873,0.388,0.3887,0.4016,0.3894,0.3891,0.3889,0.3902,0.3933,0.3929,0.396,0.4359,0.6234,0.6005,0.6895,0.7772,0.8422,0.8317,0.8225,0.7559,0.7226,0.802,0.8373,0.8492,0.8966,0.9347,1.0632,1.254,1.3961,1.5507,1.7058,1.7898,1.7779,1.8016,1.885,1.9086,1.8495,1.885,1.9315,1.9676,1.9912,2.0139,-1.9605,-1.9073,-1.8533,-1.8265,-1.8271,-1.7679,-1.7093,-1.6624,-1.6619,-1.6387,-1.5895,-1.5663,-1.5663,-1.5545,-1.5539,-1.5485,-1.5676,-1.5724,-1.5804,-1.5788,-1.5825,-1.5825,-1.5587,-1.5719,-1.555,-1.5487,-1.5614,-1.5925,-1.5917,-1.5897,-1.4908,-1.316,-1.297,-1.167,-0.8845,-0.755,-0.6069,-0.4892,-0.3781,-0.3941,-0.4865,-0.3108,-0.1438,0.0,0.0,0.0,0.0,0.0,0.0,0.0,0.0,0.0,0.0,0.0,0.0,0.0256,0.0383,0.0896,0.1541,0.2306,0.2825,0.3221,0.3587,0.3955,0.4033,0.3926,0.3865,0.3973,0.3967,0.3968,0.3967,0.386,0.3874,0.3901,0.3923,0.3938,0.4076,0.395,0.3947,0.3944,0.3942,0.3933,0.3914,0.393,0.396,0.4096,0.4098,0.4346,0.557,0.5927,0.6095,0.583,0.4453,0.4207,0.4443,0.5157,0.5992,0.6466,0.6825,0.9444,1.2298,1.2416,1.2412,1.5631,1.8016,1.7419,1.7182,1.8016,1.8016,1.7661,1.7773,1.7537,1.7892,1.722,1.7686,-2.1264,-1.9481,-1.9086,-1.9014,-1.8863,-1.8271,-1.7686,-1.733,-1.7686,-1.7679,-1.6974,-1.65,-1.615,-1.6025,-1.5539,-1.5453,-1.5527,-1.566,-1.5666,-1.5838,-1.583,-1.5799,-1.5767,-1.5904,-1.5619,-1.5688,-1.5783,-1.5793,-1.5952,-1.588,-1.5772,-1.5767,-1.5409,-1.4153,-1.1783,-1.0475,-0.9384,-0.8267,-0.772,-0.7141,-0.7698,-0.7372,-0.6524,-0.4311,-0.3527,0.0,0.0,0.0,0.0,0.0,0.0,0.0,0.0,0.0,0.0,0.0503,0.0629,0.1009,0.1643,0.2142,0.2662,0.3168,0.3508,0.3755,0.3885,0.3828,0.3909,0.389,0.3869,0.3865,0.3862,0.3872,0.3878,0.3895,0.3925,0.3948,0.3959,0.396,0.3952,0.3939,0.393,0.3901,0.3884,0.3881,0.4032,0.4001,0.3995,0.3998,0.4478,0.4479,0.4459,0.4456,0.4084,0.4084,0.3962,0.3962,0.432,0.4201,0.4559,0.671,0.9682,1.0033,0.9675,1.2293,1.5033,1.527,1.562,1.5626,1.5626,1.5593,1.5566,1.5604,1.4877,1.3608,1.4065,-2.2757,-2.2054,-2.0395,-1.9521,-1.923,-1.8816,-1.8498,-1.8127,-1.8103,-1.7798,-1.7212,-1.6624,-1.6268,-1.6268,-1.5782,-1.5421,-1.5426,-1.5548,-1.5524,-1.564,-1.554,-1.5619,-1.5592,-1.5534,-1.554,-1.5503,-1.5524,-1.5661,-1.5603,-1.5677,-1.5809,-1.582,-1.5799,-1.5032,-1.4047,-1.2833,-1.2272,-1.2084,-1.1592,-1.0904,-0.9941,-0.8973,-0.8085,-0.6784,-0.6654,-0.5091,0.0,0.0,0.0,0.0,0.0,0.0,0.0,0.0,0.0,0.0,0.0,0.087,0.1372,0.174,0.2386,0.2911,0.3275,0.3373,0.3489,0.3479,0.3577,0.3668,0.3776,0.3885,0.3882,0.3882,0.3885,0.3887,0.3921,0.3952,0.3956,0.3959,0.3948,0.3931,0.3905,0.3873,0.3856,0.3969,0.3962,0.3962,0.3962,0.3962,0.3962,0.3962,0.3962,0.3962,0.3962,0.3962,0.3962,0.3962,0.4081,0.4082,0.3962,0.4917,0.6822,0.8248,0.9437,1.0866,1.2285,1.2628,1.2966,1.2979,1.3039,1.2989,1.3056,1.2167,1.0993,1.0289,1.1003,-2.5137,-2.398,-2.208,-2.0635,-1.9874,-2.04,-1.995,-1.891,-1.8612,-1.8209,-1.7798,-1.7093,-1.6856,-1.65,-1.5906,-1.5539,-1.5421,-1.5426,-1.5453,-1.5485,-1.5423,-1.5386,-1.5376,-1.5386,-1.5437,-1.5339,-1.5381,-1.546,-1.5516,-1.5676,-1.5799,-1.5825,-1.573,-1.574,-1.5022,-1.4061,-1.48,-1.4888,-1.4243,-1.3821,-1.3133,-1.2245,-1.0772,-0.9847,-0.9444,-0.773,-0.5792,-0.5145,-0.372,-0.1906,0.0,0.0,0.0,0.0,0.0,0.0,0.0,0.0,0.0617,0.0859,0.1354,0.2126,0.2375,0.2493,0.2741,0.2732,0.2841,0.3051,0.3266,0.3362,0.3473,0.3743,0.3889,0.3907,0.3938,0.3942,0.3914,0.3919,0.3927,0.391,0.3889,0.3861,0.3971,0.3962,0.3962,0.3962,0.3962,0.3962,0.3962,0.3962,0.3962,0.3962,0.3962,0.3962,0.3962,0.3962,0.3962,0.3962,0.4082,0.4679,0.6462,0.7884,0.9076,0.9767,1.0189,1.03,1.0414,1.0224,1.0262,1.0232,1.0196,0.8597,0.7491,0.7653,0.8259,-2.8814,-2.4787,-2.4127,-2.2583,-2.1072,-2.3033,-2.2341,-1.956,-1.9413,-1.9243,-1.8876,-1.8184,-1.7585,-1.7218,-1.6506,-1.5906,-1.5539,-1.5421,-1.5527,-1.5602,-1.5365,-1.557,-1.5575,-1.5511,-1.5442,-1.5376,-1.5429,-1.5413,-1.5339,-1.566,-1.574,-1.5825,-1.5698,-1.591,-1.6126,-1.5743,-1.5931,-1.6172,-1.5758,-1.5699,-1.5565,-1.5337,-1.3945,-1.2685,-1.1877,-1.0422,-0.8604,-0.7435,-0.6032,-0.4495,-0.3592,-0.2094,0.0,0.0,0.0,0.0,0.0,0.0,0.0,0.0,0.1096,0.1107,0.1107,0.1476,0.1724,0.1978,0.2213,0.2434,0.2905,0.2993,0.3083,0.3481,0.3886,0.3909,0.3939,0.3922,0.3886,0.3884,0.3894,0.3887,0.3866,0.3857,0.3965,0.3962,0.3962,0.3962,0.3962,0.3962,0.3962,0.3962,0.3962,0.3962,0.3962,0.3962,0.3962,0.3962,0.3962,0.3962,0.4082,0.4191,0.5856,0.7275,0.7588,0.7778,0.8108,0.8071,0.7679,0.763,0.7581,0.7543,0.7518,0.6316,0.5458,0.5636,0.5961,-3.1351,-2.9841,-2.81,-2.5615,-2.3552,-2.4256,-2.4101,-2.2576,-2.0628,-1.9659,-1.9182,-1.8656,-1.8215,-1.7604,-1.6856,-1.6144,-1.6025,-1.5545,-1.5516,-1.5386,-1.5323,-1.549,-1.5511,-1.5334,-1.5421,-1.5437,-1.5376,-1.5402,-1.5312,-1.566,-1.5629,-1.564,-1.5629,-1.601,-1.638,-1.6544,-1.6549,-1.657,-1.6538,-1.6596,-1.6522,-1.6316,-1.5724,-1.4927,-1.4093,-1.3307,-1.1261,-0.9983,-0.909,-0.6669,-0.4907,-0.3417,-0.2301,0.0,0.0,0.0,0.0,0.0,0.0,0.0,-0.012,0.0121,0.0367,0.0613,0.1106,0.1358,0.1473,0.1954,0.2688,0.2795,0.3022,0.3594,0.3861,0.3858,0.3878,0.388,0.3856,0.3857,0.3865,0.3862,0.3969,0.3968,0.3962,0.3962,0.3962,0.3962,0.3962,0.3962,0.3962,0.3962,0.3962,0.3962,0.3962,0.3962,0.3962,0.3956,0.3833,0.3961,0.3952,0.3939,0.5235,0.5781,0.5742,0.5822,0.5909,0.5762,0.5267,0.5127,0.522,0.5308,0.5273,0.4769,0.3719,0.3933,0.4271,-3.3615,-3.288,-3.1118,-2.919,-2.7608,-2.7594,-2.6293,-2.4407,-2.2475,-2.0813,-1.9712,-1.9197,-1.8682,-1.8184,-1.7402,-1.6737,-1.6387,-1.5782,-1.5421,-1.5426,-1.5426,-1.5421,-1.5421,-1.5307,-1.5421,-1.5437,-1.5516,-1.5429,-1.5323,-1.566,-1.5639,-1.5524,-1.574,-1.6073,-1.6438,-1.6586,-1.6639,-1.666,-1.6522,-1.6443,-1.6364,-1.6274,-1.6006,-1.5781,-1.5642,-1.4837,-1.3136,-1.2996,-1.1613,-0.9112,-0.8007,-0.6403,-0.4926,-0.4197,0.0,0.0,0.0,-0.2516,-0.2517,-0.2397,-0.2278,-0.1563,-0.1331,-0.0851,0.0487,0.0615,0.0861,0.1343,0.1696,0.2056,0.2427,0.2884,0.3367,0.3484,0.3602,0.3602,0.3722,0.3842,0.3842,0.3842,0.3962,0.3962,0.3962,0.3962,0.3962,0.3962,0.3962,0.3962,0.3962,0.3962,0.396,0.396,0.3834,0.3958,0.3831,0.3807,0.3799,0.3791,0.3785,0.3778,0.3756,0.4078,0.4397,0.4722,0.4117,0.3634,0.4062,0.4262,0.3693,0.3568,0.3983,0.3832,0.3489,0.3489,0.3489,-3.5531,-3.3257,-3.3131,-3.3121,-3.2828,-3.2995,-2.9962,-2.6073,-2.4525,-2.2599,-2.0099,-1.9616,-1.9236,-1.8618,-1.819,-1.7497,-1.676,-1.6387,-1.6025,-1.5663,-1.5539,-1.5421,-1.5421,-1.5431,-1.5447,-1.5365,-1.5476,-1.5513,-1.5386,-1.5629,-1.5815,-1.573,-1.5804,-1.6057,-1.6322,-1.6359,-1.6464,-1.6575,-1.6227,-1.6205,-1.6184,-1.6073,-1.5883,-1.5703,-1.5767,-1.5571,-1.475,-1.4715,-1.3741,-1.1656,-1.0687,-0.9357,-0.7776,-0.7057,-0.6579,-0.6696,-0.6818,-0.7057,-0.7293,-0.7534,-0.6103,-0.4317,-0.3961,-0.3129,-0.1202,-0.024,-0.0361,-0.0481,0.0719,0.1075,0.1309,0.1665,0.2395,0.2761,0.2882,0.3002,0.3362,0.3482,0.3602,0.3602,0.3722,0.3962,0.3962,0.3962,0.3962,0.3842,0.3962,0.3962,0.3962,0.396,0.3833,0.3828,0.3815,0.3807,0.3781,0.3767,0.3751,0.3738,0.3722,0.3701,0.3679,0.3668,0.3658,0.3762,0.3617,0.358,0.3555,0.3535,0.3531,0.3526,0.3495,0.3491,0.3489,0.3489,0.3489,-3.67,-3.5928,-3.5928,-3.5928,-3.5679,-3.3894,-3.2116,-3.007,-2.6555,-2.3057,-2.0398,-2.0174,-1.9813,-1.9236,-1.8707,-1.8019,-1.7622,-1.7111,-1.663,-1.6263,-1.6025,-1.5782,-1.5539,-1.5442,-1.5511,-1.566,-1.5761,-1.5725,-1.5693,-1.5846,-1.5862,-1.5836,-1.5836,-1.5936,-1.6079,-1.6116,-1.6142,-1.619,-1.5917,-1.6015,-1.5857,-1.5788,-1.5645,-1.558,-1.5548,-1.5479,-1.5447,-1.5302,-1.4703,-1.3866,-1.2553,-1.1243,-1.0043,-0.8847,-0.7773,-0.7534,-0.7534,-0.7534,-0.8131,-0.8728,-0.9089,-0.7298,-0.6701,-0.6101,-0.5146,-0.3713,-0.2753,-0.2498,-0.0597,0.0959,0.1078,0.1075,0.1559,0.156,0.18,0.2401,0.2761,0.3122,0.3122,0.3242,0.3602,0.3842,0.3842,0.3842,0.3842,0.3722,0.3842,0.3841,0.3831,0.3815,0.3808,0.3791,0.378,0.3756,0.3731,0.371,0.3691,0.3678,0.3662,0.3636,0.3613,0.3495,0.3599,0.3584,0.3559,0.3527,0.3514,0.3513,0.3501,0.3493,0.3494,0.3499,0.3498,0.3495,0.3494,-3.7198,-3.7198,-3.7198,-3.7198,-3.696,-3.5293,-3.402,-3.2493,-2.9466,-2.6411,-2.3831,-2.2435,-2.1801,-2.1017,-2.0138,-1.8821,-1.8347,-1.7958,-1.7408,-1.6897,-1.6624,-1.6263,-1.595,-1.575,-1.569,-1.5623,-1.5735,-1.574,-1.5772,-1.5656,-1.5788,-1.5941,-1.5883,-1.5904,-1.5941,-1.6031,-1.6031,-1.587,-1.5836,-1.5746,-1.5724,-1.5698,-1.5445,-1.5421,-1.5421,-1.5421,-1.5421,-1.5421,-1.5421,-1.494,-1.3871,-1.3271,-1.2672,-1.1711,-1.1112,-1.0993,-1.1116,-1.1116,-1.1354,-1.1949,-1.231,-1.0635,-0.9563,-0.8492,-0.7057,-0.6223,-0.5507,-0.4789,-0.3592,-0.3113,-0.2156,-0.1198,-0.012,0.024,0.084,0.156,0.2041,0.2401,0.2521,0.2521,0.2881,0.3001,0.3241,0.3361,0.3241,0.3238,0.3599,0.3833,0.38,0.3776,0.3747,0.3725,0.3721,0.3702,0.3691,0.3664,0.3633,0.362,0.3607,0.3576,0.3548,0.3544,0.3547,0.3518,0.3495,0.3499,0.3499,0.3491,0.3505,0.353,0.3531,0.3523,0.3511,0.3505,0.3497,-3.7198,-3.7198,-3.7198,-3.7198,-3.7073,-3.7198,-3.5679,-3.3633,-3.3006,-3.1088,-2.8606,-2.6226,-2.4806,-2.4148,-2.2408,-2.0696,-1.9204,-1.9318,-1.9036,-1.8404,-1.761,-1.7759,-1.7068,-1.6699,-1.6186,-1.569,-1.5745,-1.5598,-1.5455,-1.565,-1.574,-1.5765,-1.5783,-1.5894,-1.5904,-1.5836,-1.5846,-1.5777,-1.5577,-1.5471,-1.5618,-1.5439,-1.5323,-1.5421,-1.5421,-1.5421,-1.5421,-1.5421,-1.5421,-1.5302,-1.494,-1.4822,-1.4584,-1.4222,-1.4104,-1.398,-1.4104,-1.3985,-1.4104,-1.446,-1.5064,-1.4584,-1.3152,-1.1,-0.9682,-0.8486,-0.7892,-0.7654,-0.6579,-0.6459,-0.6103,-0.5627,-0.3831,-0.2874,-0.1558,-0.0719,0.0,0.06,0.0959,0.156,0.1559,0.1199,0.1199,0.0599,0.0359,0.0357,0.0713,0.1419,0.176,0.3378,0.3348,0.3549,0.3545,0.3539,0.3532,0.3621,0.3583,0.3562,0.3555,0.3527,0.3502,0.3499,0.3509,0.3489,0.3489,0.3489,0.349,0.3514,0.3538,0.3454,0.3471,0.3583,0.3575,0.3546,0.3522,-3.7198,-3.7198,-3.7198,-3.7198,-3.7198,-3.7198,-3.6688,-3.5804,-3.402,-3.2755,-3.1321,-2.9237,-2.7751,-2.7271,-2.6518,-2.4693,-2.289,-2.4944,-2.3748,-2.2096,-2.1351,-2.0876,-1.9469,-1.7755,-1.6867,-1.6296,-1.6101,-1.5905,-1.5915,-1.5885,-1.5842,-1.5466,-1.5545,-1.5519,-1.5497,-1.5524,-1.554,-1.5529,-1.5376,-1.5463,-1.55,-1.5328,-1.5307,-1.5421,-1.5421,-1.5421,-1.5421,-1.5421,-1.5421,-1.5421,-1.5421,-1.5421,-1.5421,-1.5421,-1.5421,-1.5421,-1.5421,-1.5421,-1.5421,-1.5421,-1.5421,-1.5178,-1.4341,-1.3628,-1.2786,-1.1477,-1.0524,-1.0524,-0.9328,-0.8131,-0.7534,-0.7296,-0.6579,-0.5625,-0.4071,-0.3234,-0.2517,-0.2156,-0.1796,-0.1676,-0.1796,-0.1676,-0.2148,-0.2508,-0.2616,-0.2478,-0.1994,-0.1284,0.0348,0.2532,0.2848,0.3039,0.3034,0.3139,0.3343,0.3536,0.3524,0.3507,0.3505,0.3493,0.3494,0.3491,0.3489,0.3489,0.3489,0.3495,0.3511,0.3542,0.3459,0.36,0.3625,0.3634,0.3616,0.3587,0.3554,-3.7198,-3.7198,-3.7198,-3.7198,-3.7198,-3.7198,-3.7198,-3.6824,-3.5418,-3.4782,-3.4417,-3.3027,-3.1763,-3.0312,-2.9129,-2.7768,-2.6724,-2.74,-2.6819,-2.5258,-2.5007,-2.4021,-2.1955,-2.0288,-1.8229,-1.755,-1.6689,-1.6695,-1.6142,-1.6266,-1.6025,-1.5442,-1.5431,-1.5421,-1.5349,-1.5431,-1.5421,-1.5421,-1.5421,-1.5421,-1.5421,-1.5421,-1.5421,-1.5421,-1.5421,-1.5421,-1.5421,-1.5421,-1.5421,-1.5421,-1.5421,-1.5421,-1.5421,-1.5421,-1.5421,-1.5421,-1.5421,-1.5421,-1.5421,-1.5421,-1.5421,-1.5302,-1.5302,-1.5421,-1.5064,-1.3985,-1.3152,-1.3152,-1.1715,-1.1235,-1.1231,-0.992,-0.9566,-0.8492,-0.682,-0.5983,-0.5266,-0.5023,-0.4902,-0.5261,-0.5498,-0.6057,-0.6617,-0.6606,-0.6339,-0.5353,-0.4042,-0.3441,-0.1822,0.0,0.0673,0.1553,0.2102,0.2207,0.2409,0.2725,0.2401,0.3056,0.3054,0.3162,0.3271,0.3489,0.3489,0.3489,0.3489,0.3506,0.3532,0.3559,0.3589,0.3626,0.3664,0.3632,0.3488,0.3466,0.3449,-3.7198,-3.7198,-3.7198,-3.7198,-3.7198,-3.7198,-3.7198,-3.7198,-3.6949,-3.7198,-3.67,-3.6688,-3.5418,-3.3465,-3.1214,-2.985,-2.9315,-2.9762,-2.9491,-2.8203,-2.8279,-2.6879,-2.4298,-2.3649,-2.1295,-1.8793,-1.8226,-1.7671,-1.826,-1.7728,-1.6844,-1.6127,-1.6009,-1.5421,-1.5421,-1.5421,-1.5421,-1.5421,-1.5421,-1.5421,-1.5421,-1.5421,-1.5421,-1.5421,-1.5421,-1.5421,-1.5421,-1.5421,-1.5421,-1.5421,-1.5421,-1.5421,-1.5421,-1.5421,-1.5421,-1.5421,-1.5421,-1.5421,-1.5421,-1.5421,-1.5421,-1.5421,-1.5421,-1.5421,-1.5302,-1.5059,-1.494,-1.5421,-1.5059,-1.4579,-1.3985,-1.3033,-1.2315,-1.1119,-0.9685,-0.8373,-0.8015,-0.777,-0.789,-0.8123,-0.8957,-0.9849,-1.0272,-1.0124,-0.9734,-0.7685,-0.6022,-0.5519,-0.4585,-0.39,-0.3206,-0.1209,-0.0328,0.0,0.0218,0.0871,0.1308,0.2508,0.2616,0.2726,0.3162,0.3489,0.3489,0.3271,0.3489,0.3499,0.3536,0.3572,0.3605,0.3634,0.3658,0.3633,0.3477,0.3462,0.3452,-3.7198,-3.7198,-3.7198,-3.7198,-3.7198,-3.7198,-3.7198,-3.7198,-3.7198,-3.7198,-3.7198,-3.7073,-3.6824,-3.6178,-3.5226,-3.3896,-3.1731,-3.3809,-3.2602,-3.1036,-3.0629,-3.0225,-2.8368,-2.6729,-2.4198,-2.1406,-2.1002,-2.1605,-2.2288,-2.106,-1.9884,-1.8588,-1.6359,-1.5421,-1.5534,-1.5771,-1.5421,-1.5421,-1.5421,-1.5421,-1.5421,-1.5421,-1.5421,-1.5421,-1.5421,-1.5421,-1.5421,-1.5421,-1.5421,-1.5421,-1.5421,-1.5421,-1.5421,-1.5421,-1.5421,-1.5421,-1.5421,-1.5421,-1.5421,-1.5421,-1.5421,-1.5421,-1.5421,-1.5421,-1.5421,-1.5421,-1.5421,-1.5421,-1.5421,-1.5421,-1.5302,-1.4822,-1.4465,-1.3866,-1.2196,-1.0643,-1.0643,-1.0624,-1.0617,-1.1205,-1.245,-1.2813,-1.2753,-1.2702,-1.2067,-1.0257,-0.9627,-0.8985,-0.7617,-0.7144,-0.6254,-0.4253,-0.2938,-0.2503,-0.1524,-0.0762,-0.0109,0.0654,0.0762,0.1307,0.218,0.3052,0.2943,0.2507,0.2615,0.2291,0.321,0.3471,0.349,0.3511,0.3652,0.3642,0.3599,0.3575,0.3554,-3.7198,-3.7198,-3.7198,-3.7198,-3.7198,-3.7198,-3.7198,-3.7198,-3.7198,-3.7198,-3.7198,-3.7061,-3.6956,-3.6756,-3.6721,-3.5804,-3.4442,-3.5464,-3.4815,-3.3661,-3.3195,-3.2682,-3.0339,-2.9372,-2.6903,-2.5239,-2.5196,-2.6007,-2.5515,-2.3982,-2.2227,-2.0811,-2.0334,-1.8352,-1.6601,-1.6945,-1.6827,-1.5534,-1.5421,-1.5421,-1.5421,-1.5421,-1.5421,-1.5421,-1.5421,-1.5421,-1.5421,-1.5421,-1.5421,-1.5421,-1.5421,-1.5421,-1.5421,-1.5421,-1.5421,-1.5421,-1.5421,-1.5421,-1.5421,-1.5421,-1.5421,-1.5421,-1.5421,-1.5421,-1.5421,-1.5421,-1.5421,-1.5421,-1.5421,-1.5421,-1.5421,-1.5302,-1.5421,-1.5064,-1.4227,-1.339,-1.3248,-1.3175,-1.3065,-1.3043,-1.3572,-1.3899,-1.4499,-1.4287,-1.4086,-1.3772,-1.3241,-1.2066,-1.0582,-1.003,-0.9607,-0.7831,-0.6417,-0.522,-0.2938,-0.2612,-0.2068,-0.1742,-0.1524,-0.0545,0.0436,0.1089,0.1307,0.1087,0.0652,0.0108,0.0879,0.1782,0.269,0.3159,0.3044,0.2926,0.3248,0.3454,0.3538,-3.7198,-3.7198,-3.7198,-3.7198,-3.7198,-3.7198,-3.7198,-3.7198,-3.6968,-3.6944,-3.6909,-3.685,-3.651,-3.6287,-3.6193,-3.597,-3.5426,-3.5323,-3.5183,-3.4901,-3.4748,-3.4021,-3.2019,-3.1383,-3.0281,-2.896,-2.9372,-2.9382,-2.7945,-2.6437,-2.5148,-2.3389,-2.3598,-2.2321,-1.9649,-1.9302,-1.9406,-1.8115,-1.6833,-1.6359,-1.6127,-1.5771,-1.5421,-1.5421,-1.5421,-1.5421,-1.5421,-1.5421,-1.5421,-1.5421,-1.5421,-1.5421,-1.5421,-1.5421,-1.5421,-1.5421,-1.5421,-1.5421,-1.5421,-1.5421,-1.5421,-1.5421,-1.5421,-1.5421,-1.5421,-1.5421,-1.5421,-1.5421,-1.5421,-1.5421,-1.5421,-1.5421,-1.5421,-1.5281,-1.5023,-1.4981,-1.4934,-1.4641,-1.4294,-1.4053,-1.4182,-1.4398,-1.4282,-1.4171,-1.4009,-1.3842,-1.3676,-1.2866,-1.1961,-1.1749,-1.1537,-1.0553,-0.957,-0.7177,-0.5002,-0.4896,-0.4678,-0.4571,-0.3807,-0.2827,-0.1522,-0.087,-0.0867,-0.1401,-0.1828,-0.1834,-0.1417,-0.0773,0.0,0.0333,0.122,0.1993,0.1768,0.1433,0.1861,-3.7198,-3.7198,-3.7198,-3.7198,-3.7198,-3.705,-3.7015,-3.6979,-3.6639,-3.644,-3.6369,-3.5959,-3.5853,-3.5689,-3.5677,-3.5654,-3.5407,-3.5114,-3.4692,-3.4433,-3.4398,-3.3959,-3.3521,-3.3245,-3.2809,-3.3085,-3.3051,-3.3051,-3.1654,-3.0254,-2.8398,-2.7694,-2.6159,-2.4415,-2.3598,-2.3381,-2.2687,-2.1515,-1.9642,-1.8588,-1.8358,-1.659,-1.5771,-1.5653,-1.5539,-1.5421,-1.5421,-1.5421,-1.5421,-1.5421,-1.5421,-1.5421,-1.5421,-1.5421,-1.5421,-1.5534,-1.6009,-1.624,-1.6359,-1.5884,-1.5771,-1.5421,-1.5415,-1.5415,-1.5421,-1.5421,-1.5421,-1.5421,-1.5297,-1.5297,-1.5415,-1.5362,-1.5373,-1.5238,-1.5106,-1.5038,-1.4943,-1.4626,-1.4425,-1.4293,-1.4219,-1.4155,-1.405,-1.4018,-1.4073,-1.4026,-1.3918,-1.3583,-1.3156,-1.2728,-1.2404,-1.1637,-1.1095,-0.9241,-0.8594,-0.8485,-0.7726,-0.7288,-0.6407,-0.5103,-0.3473,-0.3437,-0.371,-0.4134,-0.4156,-0.3542,-0.3138,-0.2954,-0.2852,-0.284,-0.2076,-0.0877,-0.0547,-0.0545,-0.0109,-3.7198,-3.705,-3.678,-3.6674,-3.6639,-3.6381,-3.6275,-3.6217,-3.5994,-3.5912,-3.5853,-3.5689,-3.5396,-3.5137,-3.5114,-3.4961,-3.4715,-3.4422,-3.4199,-3.4046,-3.3988,-3.3988,-3.3988,-3.3988,-3.3988,-3.3988,-3.3988,-3.3988,-3.3748,-3.2467,-3.1069,-2.9803,-2.9898,-2.8147,-2.5596,-2.6177,-2.5838,-2.4315,-2.2328,-2.1515,-2.1053,-1.8824,-1.73,-1.7182,-1.6009,-1.5421,-1.5534,-1.5421,-1.5421,-1.6003,-1.7885,-1.9288,-1.9295,-1.9288,-1.9288,-1.9288,-1.9288,-1.9295,-1.9288,-1.9171,-1.8568,-1.7537,-1.7294,-1.659,-1.5653,-1.5421,-1.5421,-1.5421,-1.5399,-1.5233,-1.5133,-1.5043,-1.4937,-1.4911,-1.4837,-1.4784,-1.4705,-1.4367,-1.4076,-1.4044,-1.4089,-1.4036,-1.4015,-1.4047,-1.402,-1.402,-1.3907,-1.3907,-1.348,-1.3372,-1.3156,-1.2832,-1.2399,-1.1971,-1.1754,-1.1104,-1.0124,-0.9217,-0.8307,-0.6982,-0.5664,-0.5999,-0.6326,-0.6978,-0.7432,-0.6553,-0.5363,-0.5196,-0.5119,-0.468,-0.4138,-0.3701,-0.3156,-0.2612,-0.2177,-3.685,-3.6721,-3.6311,-3.6158,-3.6088,-3.5736,-3.5583,-3.5583,-3.5454,-3.5384,-3.536,-3.5243,-3.495,-3.4586,-3.4563,-3.4375,-3.4093,-3.4046,-3.3988,-3.3988,-3.3988,-3.3988,-3.3988,-3.3988,-3.3988,-3.3988,-3.3988,-3.3988,-3.3988,-3.3634,-3.2936,-3.155,-3.2227,-3.1769,-2.8292,-2.9342,-2.886,-2.6748,-2.5131,-2.4565,-2.3856,-2.1515,-1.9877,-1.9642,-1.824,-1.7182,-1.6945,-1.6945,-1.6945,-1.7885,-2.0341,-2.2102,-2.2102,-2.2336,-2.2173,-2.1995,-2.2212,-2.229,-2.2344,-2.1826,-2.1408,-1.9623,-1.9363,-1.8758,-1.6781,-1.6863,-1.6641,-1.5966,-1.5843,-1.5738,-1.5021,-1.4721,-1.4684,-1.4657,-1.4594,-1.452,-1.4414,-1.4134,-1.4063,-1.4036,-1.4026,-1.4015,-1.4015,-1.4015,-1.4015,-1.4015,-1.4015,-1.4015,-1.3907,-1.3907,-1.3696,-1.3372,-1.294,-1.2507,-1.2295,-1.1754,-1.0949,-1.0242,-0.9688,-0.8652,-0.8127,-0.8114,-0.8058,-0.889,-0.9889,-0.9206,-0.7655,-0.7518,-0.74,-0.6311,-0.5441,-0.5985,-0.6093,-0.4787,-0.4243,-3.6123,-3.5712,-3.5654,-3.5642,-3.563,-3.5571,-3.5454,-3.5431,-3.5032,-3.4832,-3.475,-3.4363,-3.4246,-3.407,-3.4164,-3.4058,-3.3988,-3.3988,-3.3988,-3.3988,-3.3988,-3.3988,-3.3988,-3.3988,-3.3988,-3.3988,-3.3988,-3.3988,-3.3988,-3.3988,-3.3748,-3.3519,-3.3634,-3.3405,-3.2479,-3.2375,-3.2501,-3.1091,-2.8649,-2.7365,-2.6553,-2.4207,-2.257,-2.2336,-2.1515,-2.1163,-2.1281,-2.1515,-2.1829,-2.1852,-2.2336,-2.3091,-2.299,-2.2898,-2.2879,-2.2878,-2.3034,-2.2676,-2.1975,-2.2418,-2.1695,-2.1388,-2.126,-2.0854,-2.0372,-2.0069,-1.9396,-1.7938,-1.7842,-1.6852,-1.555,-1.4744,-1.4799,-1.4509,-1.4494,-1.4203,-1.4143,-1.4052,-1.4015,-1.4015,-1.4015,-1.4015,-1.4015,-1.4015,-1.4015,-1.4015,-1.4015,-1.4015,-1.4015,-1.4015,-1.3907,-1.3691,-1.348,-1.3048,-1.2817,-1.2488,-1.1741,-1.1199,-1.0707,-1.0155,-0.9614,-0.9382,-0.962,-0.9675,-0.985,-0.9589,-0.9097,-0.9436,-0.9768,-0.8933,-0.7949,-0.8604,-0.9255,-0.7403,-0.6501,-3.5747,-3.5536,-3.522,-3.5079,-3.5055,-3.4774,-3.4645,-3.4598,-3.4398,-3.4304,-3.4269,-3.4058,-3.3988,-3.3988,-3.3988,-3.3988,-3.3988,-3.3988,-3.3988,-3.3988,-3.3988,-3.3988,-3.3988,-3.3988,-3.3988,-3.3988,-3.3988,-3.3988,-3.3988,-3.3988,-3.3988,-3.3988,-3.3988,-3.3988,-3.3988,-3.3645,-3.3531,-3.3188,-3.1916,-3.0515,-2.9939,-2.7008,-2.5605,-2.4798,-2.3389,-2.2687,-2.2804,-2.2804,-2.4104,-2.6174,-2.6543,-2.6307,-2.642,-2.6307,-2.6232,-2.6204,-2.6055,-2.5989,-2.5821,-2.5784,-2.5119,-2.3991,-2.3666,-2.2989,-2.185,-2.1308,-2.1196,-2.007,-2.0092,-1.8775,-1.7001,-1.6401,-1.5663,-1.4903,-1.5317,-1.5425,-1.4139,-1.4231,-1.4015,-1.4015,-1.4015,-1.4015,-1.4015,-1.4015,-1.4015,-1.4123,-1.4446,-1.4231,-1.4123,-1.4015,-1.3907,-1.3907,-1.3696,-1.348,-1.322,-1.2748,-1.2126,-1.1861,-1.1487,-1.0951,-1.0378,-1.0092,-1.0121,-1.0152,-1.0022,-0.9877,-0.9843,-0.9997,-1.0505,-1.0646,-1.0569,-1.0244,-1.0135,-0.9038,-0.8862,-3.5266,-3.5102,-3.4715,-3.4551,-3.448,-3.4164,-3.3999,-3.3988,-3.3999,-3.4023,-3.3988,-3.3988,-3.3988,-3.3988,-3.3988,-3.3988,-3.3988,-3.3988,-3.3988,-3.3988,-3.3988,-3.3988,-3.3988,-3.3988,-3.3988,-3.3988,-3.3988,-3.3988,-3.3988,-3.3988,-3.3988,-3.3988,-3.3988,-3.3988,-3.3988,-3.3976,-3.3988,-3.3874,-3.3302,-3.2627,-3.1894,-2.9585,-2.826,-2.7665,-2.6029,-2.5047,-2.4605,-2.4728,-2.6599,-2.9648,-2.9595,-2.9364,-2.9208,-2.9208,-2.8925,-2.8689,-2.8747,-2.8824,-2.8491,-2.832,-2.7668,-2.6141,-2.5718,-2.5038,-2.3146,-2.3036,-2.2706,-2.2147,-2.2037,-2.1148,-1.9109,-1.8507,-1.778,-1.6296,-1.7372,-1.7674,-1.648,-1.5835,-1.5727,-1.5727,-1.6044,-1.6151,-1.6259,-1.6158,-1.6151,-1.6044,-1.562,-1.5088,-1.5088,-1.4866,-1.3951,-1.3972,-1.4005,-1.3781,-1.3569,-1.3191,-1.2874,-1.2799,-1.2529,-1.2077,-1.1716,-1.1263,-1.1077,-1.0713,-1.0674,-1.0654,-1.0649,-1.0799,-1.0746,-1.0994,-1.0878,-1.0722,-1.0656,-1.0639,-1.0321,-3.4631,-3.4082,-3.4046,-3.407,-3.4046,-3.4011,-3.3988,-3.3988,-3.3988,-3.3988,-3.3988,-3.3988,-3.3988,-3.3988,-3.3988,-3.3988,-3.3988,-3.3988,-3.3988,-3.3988,-3.3988,-3.3988,-3.3988,-3.3988,-3.3988,-3.3988,-3.3988,-3.3988,-3.3988,-3.3988,-3.3988,-3.3929,-3.3906,-3.3964,-3.3835,-3.3941,-3.3859,-3.3823,-3.3324,-3.2982,-3.2731,-3.1476,-3.0896,-3.066,-2.9858,-2.9224,-2.8891,-2.904,-2.9847,-3.0374,-3.0253,-3.022,-3.0319,-3.0363,-2.9871,-2.9189,-2.9168,-2.876,-2.8006,-2.7911,-2.7678,-2.7265,-2.7159,-2.7343,-2.6715,-2.6341,-2.5789,-2.4242,-2.4002,-2.3088,-2.125,-2.07,-2.0693,-2.0425,-2.0531,-2.0531,-2.0425,-2.0105,-1.9678,-1.9892,-2.0318,-2.0318,-1.9785,-1.9785,-1.9892,-1.9572,-1.8189,-1.7312,-1.6764,-1.5632,-1.4309,-1.4014,-1.4228,-1.4194,-1.4314,-1.404,-1.4364,-1.4262,-1.4262,-1.3746,-1.3328,-1.2906,-1.2591,-1.1849,-1.1408,-1.1414,-1.1597,-1.1903,-1.2088,-1.2419,-1.206,-1.1152,-1.0899,-1.1064,-1.0886,-3.6399,-3.601,-3.4648,-3.3988,-3.3988,-3.3988,-3.3988,-3.3988,-3.3988,-3.3988,-3.3988,-3.3976,-3.3988,-3.3988,-3.3988,-3.3988,-3.3988,-3.3988,-3.3988,-3.3988,-3.3988,-3.3988,-3.3988,-3.3988,-3.3988,-3.3988,-3.3976,-3.3988,-3.3988,-3.3976,-3.3812,-3.3554,-3.3507,-3.3366,-3.3061,-3.3026,-3.3026,-3.3037,-3.2839,-3.2482,-3.2092,-3.1612,-3.119,-3.0848,-3.0572,-3.0385,-3.021,-3.051,-3.0418,-2.9888,-3.0111,-2.9994,-2.9675,-2.9697,-2.9503,-2.9221,-2.9083,-2.8817,-2.8236,-2.8099,-2.7994,-2.769,-2.7596,-2.7596,-2.7596,-2.7596,-2.7375,-2.6514,-2.6284,-2.5326,-2.3398,-2.2859,-2.3618,-2.4799,-2.3733,-2.2974,-2.2656,-2.1701,-2.0957,-2.1063,-2.1063,-2.0851,-2.0851,-2.0851,-2.0851,-2.0744,-1.9998,-1.9435,-1.8693,-1.7174,-1.6158,-1.5495,-1.5318,-1.5173,-1.5061,-1.5352,-1.5768,-1.598,-1.6169,-1.6018,-1.5405,-1.5025,-1.4651,-1.3936,-1.2813,-1.295,-1.303,-1.3336,-1.3854,-1.4359,-1.4749,-1.4228,-1.3911,-1.3322,-1.2162,-3.8662,-3.8326,-3.6877,-3.6199,-3.6199,-3.6211,-3.6199,-3.6199,-3.6199,-3.5759,-3.5216,-3.5102,-3.466,-3.4216,-3.3988,-3.3988,-3.4066,-3.4401,-3.4169,-3.3596,-3.3483,-3.3471,-3.3483,-3.3495,-3.3507,-3.3518,-3.3507,-3.3507,-3.3483,-3.3495,-3.3354,-3.3049,-3.2979,-3.2791,-3.2521,-3.2463,-3.2463,-3.2463,-3.2463,-3.2233,-3.1883,-3.1635,-3.1315,-3.0882,-3.0747,-3.0679,-3.0634,-3.0857,-3.0487,-2.977,-3.0175,-3.0175,-2.9863,-2.9747,-2.9655,-2.9446,-2.9446,-2.9238,-2.8705,-2.8496,-2.8193,-2.7889,-2.769,-2.7596,-2.7596,-2.7596,-2.7585,-2.7585,-2.7585,-2.7039,-2.5642,-2.5211,-2.5757,-2.7365,-2.6188,-2.5221,-2.5106,-2.3935,-2.2992,-2.2877,-2.2983,-2.2877,-2.2974,-2.2808,-2.3088,-2.2974,-2.2015,-2.1264,-2.0645,-1.9034,-1.7675,-1.7315,-1.7151,-1.7141,-1.6911,-1.7045,-1.7866,-1.8513,-1.8804,-1.886,-1.8093,-1.7524,-1.714,-1.6376,-1.5108,-1.4627,-1.4729,-1.5106,-1.5951,-1.6525,-1.6572,-1.6868,-1.7201,-1.62,-1.4673,-4.1074,-4.0963,-4.0949,-4.0519,-4.0296,-4.0296,-4.0741,-4.0407,-4.0519,-3.9154,-3.7436,-3.7414,-3.6312,-3.4689,-3.4569,-3.4259,-3.4759,-3.5578,-3.504,-3.3259,-3.292,-3.2799,-3.2822,-3.2736,-3.2638,-3.2943,-3.2642,-3.2642,-3.3138,-3.3271,-3.3211,-3.2801,-3.3104,-3.3249,-3.2633,-3.2732,-3.2574,-3.2539,-3.2407,-3.2357,-3.238,-3.1792,-3.1547,-3.15,-3.1137,-3.0915,-3.0869,-3.0914,-3.089,-3.0775,-3.089,-3.0879,-3.0787,-3.0787,-3.0591,-3.0186,-3.0082,-2.977,-2.9238,-2.882,-2.86,-2.8287,-2.7889,-2.769,-2.769,-2.769,-2.769,-2.7596,-2.7596,-2.7585,-2.7365,-2.727,-2.7375,-2.7596,-2.7375,-2.7155,-2.727,-2.7375,-2.7375,-2.705,-2.6768,-2.7365,-2.7261,-2.6308,-2.584,-2.5462,-2.4237,-2.287,-2.2578,-2.0931,-1.956,-1.9117,-1.8992,-1.9012,-1.8792,-1.8876,-2.0016,-2.097,-2.1351,-2.1541,-2.0779,-2.0398,-1.992,-1.8788,-1.7559,-1.7088,-1.7229,-1.7391,-1.8136,-1.8324,-1.8185,-1.8295,-1.8313,-1.8008,-1.6721,-4.5002,-4.3421,-4.1738,-4.0963,-4.0963,-4.0963,-4.0963,-4.0963,-4.0949,-4.0405,-3.9436,-3.9175,-3.86,-3.7499,-3.7228,-3.755,-3.8104,-3.8463,-3.804,-3.671,-3.5314,-3.4692,-3.4489,-3.3212,-3.3212,-3.4476,-3.4692,-3.5529,-3.6683,-3.679,-3.6577,-3.623,-3.6309,-3.6122,-3.558,-3.4305,-3.3692,-3.3273,-3.212,-3.1407,-3.1383,-3.1207,-3.1137,-3.1102,-3.0973,-3.0879,-3.0879,-3.0879,-3.0879,-3.0879,-3.0879,-3.0879,-3.0879,-3.0879,-3.0787,-3.0683,-3.0591,-3.0383,-2.9874,-2.9666,-2.9342,-2.8924,-2.8716,-2.8507,-2.8193,-2.8193,-2.7879,-2.769,-2.7596,-2.7596,-2.7596,-2.7585,-2.7596,-2.7596,-2.7596,-2.7596,-2.7596,-2.7585,-2.7575,-2.7533,-2.7303,-2.7125,-2.7051,-2.6675,-2.6465,-2.6403,-2.5808,-2.4925,-2.4389,-2.2816,-2.1304,-2.0946,-2.0885,-2.0815,-2.0832,-2.1645,-2.2889,-2.3174,-2.3363,-2.3647,-2.3363,-2.3269,-2.27,-2.1369,-2.0492,-2.0034,-1.9896,-1.9912,-2.0078,-2.0362,-2.022,-2.016,-2.0176,-1.9658,-1.8845,-4.775,-4.6092,-4.4299,-4.3641,-4.3641,-4.3641,-4.3641,-4.3641,-4.3626,-4.2853,-4.1872,-4.1719,-4.0929,-3.9715,-4.0333,-4.0557,-4.0314,-4.0223,-3.9585,-3.8286,-3.7003,-3.6295,-3.6177,-3.4937,-3.503,-3.6177,-3.6282,-3.7003,-3.8244,-3.8348,-3.815,-3.7913,-3.7856,-3.7686,-3.7158,-3.5986,-3.5376,-3.507,-3.324,-3.212,-3.2157,-3.1305,-3.1707,-3.3112,-3.3228,-3.3228,-3.3228,-3.3215,-3.3228,-3.3215,-3.2533,-3.212,-3.2017,-3.1397,-3.0879,-3.0879,-3.0879,-3.0787,-3.0498,-3.0186,-2.9886,-2.955,-2.9331,-2.9018,-2.8705,-2.86,-2.8507,-2.8203,-2.7994,-2.8005,-2.8099,-2.8203,-2.8099,-2.7889,-2.7889,-2.7795,-2.7669,-2.7428,-2.7334,-2.7261,-2.6926,-2.6633,-2.6549,-2.6225,-2.5953,-2.5932,-2.5796,-2.5555,-2.5004,-2.4269,-2.3218,-2.2947,-2.287,-2.287,-2.287,-2.413,-2.4896,-2.4896,-2.4801,-2.4707,-2.4707,-2.4329,-2.4214,-2.288,-2.2889,-2.2481,-2.1952,-2.2027,-2.1949,-2.2145,-2.2009,-2.2219,-2.3268,-2.1372,-2.0618,-4.9595,-4.8934,-4.8447,-4.8016,-4.8232,-4.8124,-4.8124,-4.7668,-4.7933,-4.6755,-4.4675,-4.4598,-4.3366,-4.1552,-4.3084,-4.2854,-4.1135,-4.106,-4.0027,-3.8197,-3.7663,-3.7505,-3.7491,-3.7376,-3.7317,-3.7532,-3.7662,-3.7807,-3.7981,-3.7837,-3.7578,-3.7808,-3.8038,-3.7808,-3.788,-3.7678,-3.7477,-3.7275,-3.5376,-3.4381,-3.4074,-3.2417,-3.3318,-3.6567,-3.7174,-3.6972,-3.7073,-3.7174,-3.7174,-3.7174,-3.5376,-3.4381,-3.4164,-3.2429,-3.15,-3.1397,-3.1397,-3.1397,-3.1397,-3.0902,-3.051,-3.0291,-2.9863,-2.9226,-2.9238,-2.9238,-2.9133,-2.9122,-2.8914,-2.9182,-2.9657,-2.9715,-2.9219,-2.8645,-2.8481,-2.796,-2.7585,-2.7051,-2.6863,-2.6769,-2.6507,-2.6267,-2.6162,-2.5743,-2.5492,-2.5377,-2.5094,-2.4959,-2.4875,-2.4854,-2.4654,-2.4623,-2.4613,-2.4801,-2.4801,-2.4896,-2.4896,-2.4896,-2.4896,-2.4801,-2.4801,-2.4896,-2.477,-2.4665,-2.431,-2.4135,-2.4134,-2.3904,-2.3535,-2.353,-2.3362,-2.2761,-2.2719,-2.2236,-2.2058,-4.9826,-4.9702,-4.9612,-4.9505,-4.9505,-4.9505,-4.8984,-4.8119,-4.8068,-4.6922,-4.4943,-4.4878,-4.4931,-4.524,-4.5358,-4.4901,-4.3853,-4.3687,-4.3127,-4.2033,-4.0383,-3.9785,-3.9585,-3.8167,-3.8081,-3.95,-3.97,-4.0482,-4.2001,-4.21,-4.2116,-4.21,-4.21,-4.21,-4.2001,-4.0398,-3.97,-3.96,-3.7578,-3.648,-3.648,-3.5857,-3.6162,-3.7174,-3.7275,-3.7275,-3.7275,-3.7275,-3.7275,-3.7275,-3.677,-3.648,-3.648,-3.5857,-3.5552,-3.5552,-3.5539,-3.5552,-3.5552,-3.4061,-3.306,-3.2957,-3.1397,-3.0279,-2.9978,-2.9874,-2.9666,-2.9506,-3.0855,-3.2375,-3.3202,-3.2092,-3.071,-2.9952,-2.8261,-2.7388,-2.7208,-2.6688,-2.6382,-2.6382,-2.6314,-2.6078,-2.5701,-2.54,-2.5116,-2.5032,-2.499,-2.4896,-2.4896,-2.4896,-2.4896,-2.4896,-2.4906,-2.4896,-2.4896,-2.4896,-2.4896,-2.4896,-2.4896,-2.4896,-2.4896,-2.4896,-2.4875,-2.5292,-2.4537,-2.4234,-2.4015,-2.3857,-2.363,-2.4028,-2.4102,-2.3537,-2.2809,-2.2196,-2.2406,-5.0292,-4.9785,-4.9802,-4.9506,-4.9002,-4.9002,-4.8535,-4.7933,-4.7812,-4.7232,-4.6061,-4.5419,-4.5601,-4.6192,-4.6025,-4.5488,-4.4884,-4.4868,-4.4534,-4.3854,-4.2609,-4.2017,-4.1902,-4.0597,-4.0597,-4.1918,-4.2001,-4.2625,-4.3723,-4.3936,-4.3936,-4.3936,-4.3936,-4.3936,-4.3838,-4.2593,-4.2001,-4.1902,-3.9785,-3.9085,-3.9884,-3.9984,-3.9999,-3.9999,-3.9999,-3.9878,-3.9535,-3.9589,-3.9368,-3.9095,-3.8282,-3.7805,-3.7805,-3.6904,-3.6509,-3.6424,-3.6424,-3.6424,-3.641,-3.5333,-3.4663,-3.4563,-3.3349,-3.2558,-3.2168,-3.1681,-3.1477,-3.17,-3.3035,-3.4303,-3.4951,-3.4,-3.2885,-3.1988,-3.0179,-2.8663,-2.8256,-2.7102,-2.6491,-2.6775,-2.6222,-2.5686,-2.5891,-2.5433,-2.4917,-2.4896,-2.4896,-2.4896,-2.4896,-2.4896,-2.4896,-2.4906,-2.5461,-2.5733,-2.5733,-2.5367,-2.4896,-2.4896,-2.4896,-2.5273,-2.5512,-2.5624,-2.5549,-2.5915,-2.534,-2.466,-2.4092,-2.4071,-2.4028,-2.4284,-2.4336,-2.4708,-2.3805,-2.3638,-2.4209,-5.0715,-4.9612,-4.9559,-4.8915,-4.7931,-4.7896,-4.7742,-4.7639,-4.7639,-4.7621,-4.7293,-4.62,-4.5611,-4.5577,-4.5549,-4.5257,-4.485,-4.4799,-4.4523,-4.4115,-4.4115,-4.4132,-4.4017,-4.4017,-4.4017,-4.3936,-4.3919,-4.3919,-4.3936,-4.3936,-4.3936,-4.3936,-4.3936,-4.3936,-4.3936,-4.3936,-4.3936,-4.3919,-4.1774,-4.1711,-4.3621,-4.3719,-4.3702,-4.3719,-4.3605,-4.3402,-4.2403,-4.2656,-4.2323,-4.1504,-3.9768,-3.8794,-3.8605,-3.6976,-3.5829,-3.5925,-3.5925,-3.5815,-3.5815,-3.5623,-3.557,-3.5527,-3.5295,-3.5007,-3.4924,-3.4058,-3.4071,-3.5241,-3.5609,-3.5651,-3.5647,-3.5523,-3.507,-3.441,-3.2619,-3.1299,-3.0107,-2.8067,-2.7047,-2.7984,-2.6724,-2.5743,-2.6915,-2.613,-2.5179,-2.5273,-2.5367,-2.5367,-2.5743,-2.5733,-2.5733,-2.5921,-2.6472,-2.7303,-2.7128,-2.6108,-2.5783,-2.5447,-2.5281,-2.5828,-2.6496,-2.6521,-2.6403,-2.6787,-2.6509,-2.5474,-2.4974,-2.4768,-2.4789,-2.5122,-2.5513,-2.6031,-2.6196,-2.5866,-2.6361,-4.9746,-4.9382,-4.9364,-4.9293,-4.8997,-4.8997,-4.8441,-4.7531,-4.7396,-4.7379,-4.7075,-4.6448,-4.6079,-4.6061,-4.5674,-4.5382,-4.5285,-4.5285,-4.5285,-4.5091,-4.5091,-4.5108,-4.5091,-4.5188,-4.4896,-4.4603,-4.4523,-4.4294,-4.4017,-4.3936,-4.3936,-4.3936,-4.3936,-4.3936,-4.3936,-4.3936,-4.3936,-4.3852,-4.2291,-4.1619,-4.2107,-4.2107,-4.2107,-4.2107,-4.2124,-4.204,-4.1891,-4.1874,-4.1791,-4.1531,-4.1142,-4.0862,-4.0845,-4.0394,-4.019,-4.0096,-4.0096,-4.0096,-4.0096,-3.8653,-3.7722,-3.7707,-3.6197,-3.5225,-3.5293,-3.5864,-3.7181,-3.8929,-3.8234,-3.8108,-3.8728,-3.7972,-3.6833,-3.6029,-3.4019,-3.2439,-3.2068,-3.0691,-2.979,-2.9871,-2.9052,-2.8421,-2.8433,-2.7501,-2.666,-2.666,-2.6566,-2.7034,-2.8049,-2.8328,-2.8688,-2.9245,-2.9695,-2.9695,-2.8886,-2.8502,-2.8045,-2.7663,-2.7536,-2.7472,-2.7341,-2.7326,-2.7248,-2.7156,-2.6763,-2.63,-2.5851,-2.573,-2.6084,-2.6645,-2.6525,-2.6525,-2.7346,-2.6854,-2.6854,-4.9205,-4.8802,-4.8902,-4.8669,-4.8348,-4.833,-4.7883,-4.7163,-4.6474,-4.6003,-4.5878,-4.5596,-4.5519,-4.5407,-4.5218,-4.4934,-4.465,-4.465,-4.4538,-4.4366,-4.4348,-4.4348,-4.4366,-4.4348,-4.4158,-4.3968,-4.3873,-4.3778,-4.3492,-4.3492,-4.3492,-4.3492,-4.3492,-4.3582,-4.3692,-4.3419,-4.3435,-4.3402,-4.3846,-4.3791,-4.324,-4.3165,-4.324,-4.3148,-4.2055,-4.1474,-4.1158,-4.1142,-4.0975,-4.0642,-4.0626,-4.0626,-4.0626,-4.0626,-4.0626,-4.0626,-4.0626,-4.0626,-4.0626,-3.9607,-3.895,-3.895,-3.7832,-3.7171,-3.7093,-3.784,-3.8736,-3.988,-3.9055,-3.8794,-3.9433,-3.8364,-3.7377,-3.6961,-3.488,-3.3533,-3.3078,-3.1779,-3.1085,-3.1611,-3.0851,-3.0593,-3.151,-3.0249,-2.9325,-2.9313,-2.9313,-2.9602,-3.0433,-3.1641,-3.283,-3.3181,-3.2817,-3.2082,-3.1267,-3.067,-2.988,-2.9186,-2.8743,-2.8616,-2.9012,-2.8318,-2.8284,-2.8425,-2.7776,-2.7269,-2.7026,-2.6936,-2.7182,-2.7893,-2.7756,-2.8096,-2.8586,-2.8423,-2.8654,-4.9101,-4.8423,-4.8423,-4.791,-4.7105,-4.7087,-4.6896,-4.6615,-4.5991,-4.5578,-4.521,-4.5044,-4.4842,-4.4859,-4.4842,-4.4675,-4.4195,-4.4195,-4.3934,0.0,-4.3545,-4.3545,-4.3545,-4.3545,-4.34,-4.3297,-4.3465,-4.3413,-4.3049,-4.3493,-4.3476,-4.3067,-4.3217,-4.3359,-4.3282,-4.3065,-4.3093,-4.343,-4.5743,-4.6308,-4.5089,-4.5089,-4.5071,-4.4999,-4.282,-4.1375,-4.0894,-4.059,-4.0306,-3.9918,-3.9956,-3.9939,-4.0043,-4.0165,-3.9884,-3.9692,-3.9637,-3.9532,-3.9637,-3.9532,-3.9444,-3.9444,-3.9444,-3.9344,-3.9249,-3.9144,-3.9178,-3.9261,-3.8708,-3.8326,-3.8393,-3.8079,-3.7712,-3.7511,-3.6145,-3.4915,-3.4474,-3.2919,-3.2316,-3.3388,-3.235,-3.2353,-3.3786,-3.2998,-3.2001,-3.2305,-3.2072,-3.2333,-3.2803,-3.5008,-3.6656,-3.6474,-3.5458,-3.4416,-3.3328,-3.2291,-3.1484,-3.0558,-2.9874,-2.992,-3.078,-3.0152,-2.9819,-3.0846,-2.9844,-2.879,-2.8491,-2.8477,-2.8477,-2.8409,-2.9074,-2.967,-2.9751,-3.037,-3.0985,-4.9788,-4.967,-4.965,-4.8693,-4.7221,-4.7221,-4.6347,-4.5279,0.0,0.0,0.0,-4.7282,-4.6633,-4.6633,-4.6633,-4.6538,-4.6442,-4.6442,-4.6442,-4.6347,-4.6329,-4.6347,-4.6347,-4.6347,-4.5707,-4.4638,-4.6045,-4.5536,-4.3142,-4.6014,-4.5923,-4.3401,-4.4524,-4.4412,-4.3221,-4.3702,-4.4872,-4.6351,-4.6466,-4.5891,-4.4988,-4.4902,-4.4902,-4.4902,-4.2774,-4.1845,-4.228,-4.067,-4.0443,-4.2085,-4.2135,-4.243,-4.2757,-4.2843,-4.2171,-4.0728,-4.029,-4.006,-4.006,-3.9692,-3.9444,-3.9444,-3.9444,-3.8928,-3.7746,-3.7747,-3.7896,-3.8426,-3.8359,-3.8525,-3.9178,-3.9094,-3.9045,-3.9061,-3.8799,-3.8224,-3.7458,-3.6501,-3.549,-3.527,-3.4419,-3.4218,-3.5249,-3.4062,-3.3291,-3.3869,-3.4194,-3.4027,-3.4375,-3.6757,-3.8234,-3.7137,-3.614,-3.5256,-3.4419,-3.3861,-3.3605,-3.2821,-3.2603,-3.2409,-3.2219,-3.1963,-3.1903,-3.2124,-3.2003,-3.1336,-3.0839,-3.0598,-3.0451,-2.9737,-2.9818,-2.9914,-3.0156,-3.2107,-3.3648,-5.0963,0.0,-5.1454,-5.0913,0.0,-5.0116,-4.8834,-4.69,-4.9227,-4.9689,-4.8737,-4.7758,-4.7311,-4.7311,-4.7311,-4.7311,-4.7311,-4.7329,-4.7311,-4.7311,-4.7311,-4.7311,-4.7311,-4.7311,-4.7013,-4.6331,-4.7196,-4.6878,-4.5467,-4.7131,-4.7064,-4.536,-4.6215,-4.6249,-4.5602,-4.5957,-4.6476,-4.7042,-4.8285,-4.8388,-4.7311,-4.7311,-4.7208,-4.7208,0.0,0.0,0.0,0.0,0.0,0.0,0.0,0.0,0.0,0.0,0.0,-4.2112,-4.1797,-4.1713,-4.1713,-4.1462,-4.0875,-3.9982,-3.983,-3.9585,-3.8856,-3.7556,-3.7242,-3.8536,-3.7102,-3.6432,-3.7114,-3.6881,-3.6964,-3.768,-3.7763,-3.7813,-3.7728,-3.739,-3.7102,-3.6985,-3.6387,-3.6342,-3.7353,-3.6479,-3.6176,-3.6784,-3.7014,-3.7014,-3.713,-3.7854,-3.816,-3.7253,-3.6775,-3.6282,-3.5542,-3.528,-3.504,-3.4367,-3.3934,-3.3535,-3.314,-3.3316,-3.3236,-3.268,-3.3078,-3.3062,-3.2217,-3.1897,-3.1897,-3.1882,-3.1867,-3.2092,-3.3015,-3.4402,-3.5497,-5.2694,-5.3441,-5.342,-5.326,-5.2987,-5.333,-5.2256,-5.0178,-4.9499,-4.8941,-4.8627,-4.8272,-4.8124,-4.8104,-4.802,-4.802,-4.8104,-4.8104,-4.802,-4.8104,-4.8104,-4.802,-4.8104,-4.8104,-4.7839,-4.7538,-4.7933,-4.7688,-4.7118,-4.7774,-4.7754,-4.7118,-4.7447,-4.7523,-4.743,0.0,0.0,0.0,-5.0255,-5.0883,-4.9712,-4.9778,-4.9965,-4.9884,-4.7769,0.0,-4.6617,-4.6182,-4.5706,-4.5125,-4.5065,0.0,0.0,0.0,0.0,0.0,0.0,0.0,0.0,0.0,0.0,0.0,-4.0887,-4.0641,-3.9838,-3.8147,-3.7831,-3.9402,-3.648,-3.4772,-3.5655,-3.4933,-3.4862,-3.5783,-3.5916,-3.6099,-3.6647,-3.6764,-3.7014,-3.7396,-3.7131,-3.733,-3.8343,-3.8329,-3.8127,-3.8638,-3.9028,-3.9028,-3.8891,-3.7928,-3.7347,-3.7164,-3.6948,-3.683,-3.6354,-3.6334,-3.6115,-3.5784,-3.4972,-3.4596,-3.4815,-3.5095,-3.4765,-3.4058,-3.431,-3.4563,-3.368,-3.3221,-3.3363,-3.412,-3.4199,-3.4716,-3.6316,-3.6856,-3.7412,-5.5253,-5.5448,-5.5385,-5.4596,-5.3415,-5.513,-5.5587,-5.4896,-5.4764,-5.3774,-5.2074,-5.0375,-4.97,-4.968,-4.97,-4.97,-4.9593,-4.97,-4.968,-4.968,-4.968,-4.9593,-4.97,-4.968,-4.8812,-4.7371,-4.8923,-4.8096,-4.5248,-4.8162,-4.8162,-4.5307,-4.6525,-4.6566,-4.5409,-4.9123,-5.1038,-5.0951,-5.1317,-5.105,-5.0133,-5.0833,-5.1223,-5.1142,-4.9128,-4.7897,-4.7724,-4.5968,-4.5388,-4.6302,-4.6396,-4.6489,-4.6715,-4.6694,-4.6095,0.0,-4.4059,0.0,0.0,0.0,0.0,0.0,0.0,0.0,0.0,-3.9599,-4.0813,-4.1717,-3.8209,-3.6586,-3.8367,-3.6922,-3.5683,-3.5188,-3.5121,-3.4967,-3.4561,-3.495,-3.5133,-3.4568,-3.5017,-3.5633,-3.6482,-3.6482,-3.6715,-3.7514,-3.7698,-3.7698,-3.7681,-3.7464,-3.7128,-3.6348,-3.6282,-3.6692,-3.6853,-3.6879,-3.7137,-3.7845,-3.7193,-3.6919,-3.7714,-3.8003,-3.8003,-3.7755,-3.7116,-3.667,-3.6849,-3.5859,-3.5374,-3.5791,-3.6006,-3.6548,-3.8043,-3.9467,-4.0034,-5.5983,-5.6585,-5.6525,-5.5771,-5.4588,-5.4732,-5.4985,-5.5293,-5.451,-5.3693,-5.2873,-5.2024,-5.1566,-5.1566,-5.1566,-5.1566,-5.1566,-5.1566,-5.1566,-5.1566,-5.1566,-5.1566,-5.1566,-5.1566,-5.1141,-5.0333,-5.1164,-5.0731,-4.938,-5.0794,-5.0738,-4.9279,-4.9967,-4.9192,-4.702,-4.8784,-5.0076,-5.0634,-5.117,-5.155,-5.1712,-5.203,-5.1986,-5.1558,-5.0602,-4.9753,-4.9157,-4.8121,-4.7598,-4.763,-4.7618,-4.7454,-4.7145,-4.7716,-4.7402,0.0,0.0,0.0,0.0,0.0,0.0,0.0,0.0,0.0,0.0,0.0,-4.2135,-3.9787,-3.6569,-3.6043,-3.9299,-3.7764,-3.6765,-3.721,-3.789,-3.7549,-3.5419,-3.6004,-3.6077,-3.4728,-3.4501,-3.4717,-3.5433,-3.547,-3.5799,-3.6613,-3.6693,-3.6972,-3.7831,-3.7629,-3.7418,-3.7514,-3.7532,-3.7625,-3.7863,-3.7885,-3.8097,-3.8537,-3.8232,-3.8021,-3.8613,-3.9221,-3.9543,-3.8842,-3.8879,-3.8879,-3.8232,-3.7619,-3.756,-3.8232,-3.8975,-3.9826,-4.0598,-4.2074,-4.296,-5.5897,-5.6481,-5.7434,-5.6943,-5.5571,-5.4703,-5.4346,-5.4392,-5.3554,-5.3148,-5.3148,-5.2924,-5.297,-5.3294,-5.3356,-5.3242,-5.2821,-5.2799,-5.2587,-5.2219,-5.2162,-5.2241,-5.2162,-5.214,-5.2029,-5.1862,-5.2095,-5.2005,-5.1527,-5.1759,-5.189,-5.1913,-5.2285,-5.1588,-4.9764,-4.9355,-4.9629,-5.0349,-5.0922,-5.1671,-5.2569,-5.2841,-5.2614,-5.192,-5.1898,-5.1421,-5.0395,-5.0349,-4.9924,-4.8926,-4.8858,-4.8518,-4.7885,-4.8559,0.0,0.0,0.0,0.0,0.0,0.0,0.0,0.0,0.0,-4.5308,-4.4922,0.0,-4.3999,0.0,-3.6575,-3.6559,-3.9681,-3.8611,0.0,0.0,-3.9615,-3.9481,-3.6792,-3.7184,-3.7026,-3.5175,-3.4354,-3.4102,-3.4424,-3.4689,-3.5132,-3.5764,-3.6034,-3.6649,-3.7824,-3.7474,-3.7253,-3.7841,-3.7951,-3.8194,-3.8345,-3.8475,-3.8512,-3.8867,-3.8699,-3.8699,-3.9186,-4.0085,-4.046,-3.9808,-4.0241,-4.0336,-3.977,-3.9297,-3.9619,-4.0917,-4.2169,-4.305,-4.3123,-4.3969,-4.4829,-5.5076,-5.4615,-5.8235,-5.8214,-5.5709,-5.6501,-5.5346,-5.2954,-5.3753,-5.414,-5.4072,-5.3082,-5.3366,-5.4531,-5.4841,0.0,-5.2694,-5.2694,-5.1785,-5.021,-5.0232,-5.021,-5.0157,-5.0232,-4.9719,-4.8804,-4.9824,-4.9392,-4.7671,-4.848,-4.8903,-4.9019,-5.0695,-5.2042,-5.285,-5.19,-5.145,-5.1569,-5.083,-5.0925,-5.1806,-5.273,-5.318,-5.3109,-5.3109,-5.2612,-5.1593,-5.1569,-5.1141,-5.0257,-5.0185,-5.0162,-5.009,0.0,0.0,0.0,0.0,0.0,0.0,0.0,0.0,0.0,0.0,0.0,0.0,0.0,0.0,0.0,-4.1178,0.0,-4.0087,-3.9884,0.0,0.0,0.0,-3.8634,-3.7662,-3.7272,-3.6405,-3.4976,0.0,0.0,-3.3136,-3.383,-3.459,-3.4999,-3.57,-3.6264,-3.6302,-3.6446,-3.6319,-3.6682,-3.6501,-3.6823,-3.8151,-3.8365,-3.8687,-3.9515,-3.8685,-3.8771,-4.0296,-4.0907,-4.1287,-4.174,-4.1216,-4.0823,-4.1905,-4.1271,-4.129,-4.3818,-4.4719,-4.5042,-4.5061,-4.5221,-4.5472,-5.5873,-5.5955,-5.7554,-5.7867,-5.7331,-5.6774,-5.5764,-5.4382,-5.3797,-5.3531,-5.3531,-5.311,-5.3706,-5.4959,-5.5182,0.0,0.0,0.0,-5.3256,-5.1605,-5.1605,-5.1038,-4.9987,-4.9987,-4.9764,-4.9384,-4.9828,-4.9626,-4.8827,-4.922,-5.0183,-5.177,0.0,0.0,-5.3584,-5.2717,-5.2262,-5.2286,-5.2178,-5.2302,-5.266,-5.3065,-5.297,-5.235,-5.2327,-5.1896,-5.0939,-5.0891,-5.07,-5.0362,-5.0694,-5.0896,0.0,0.0,0.0,0.0,0.0,0.0,0.0,0.0,0.0,0.0,0.0,-4.9014,0.0,0.0,0.0,0.0,-4.5328,-4.524,-4.438,-4.3217,0.0,0.0,0.0,0.0,0.0,0.0,0.0,-3.8174,-3.6975,-3.5923,-3.509,-3.5966,-3.6684,-3.6877,-3.7243,-3.7874,-3.882,0.0,-3.8494,-3.9426,-3.9556,-3.9694,-4.0158,-4.128,-4.184,-4.1085,-4.0247,-3.9945,-4.0197,-4.0167,-4.064,-4.1508,-4.0974,-4.0635,-4.2381,-4.369,-4.4821,-4.5752,-4.6152,-4.6235,-4.6213,-4.6951,-4.7639,-5.705,0.0,0.0,0.0,0.0,-5.7437,-5.6452,-5.5343,-5.4451,-5.4043,-5.4019,-5.3799,0.0,0.0,0.0,0.0,0.0,0.0,-5.421,-5.2656,-5.2585,-5.1877,-5.0633,-5.0438,-5.0389,-5.0389,-5.0461,-5.0461,-5.0389,-5.0511,-5.1773,-5.3812,0.0,0.0,0.0,0.0,-5.3282,-5.3239,-5.3501,-5.3664,-5.3664,-5.3824,-5.3526,-5.2858,-5.2629,-5.2127,-5.1236,-5.1696,-5.1853,-5.1612,-5.2462,0.0,0.0,0.0,0.0,0.0,0.0,0.0,0.0,0.0,0.0,0.0,0.0,0.0,0.0,0.0,0.0,0.0,0.0,0.0,-4.806,-4.6468,-4.4996,0.0,0.0,0.0,0.0,0.0,0.0,0.0,0.0,0.0,-3.9159,-3.9752,-3.9886,0.0,0.0,-3.9809,-4.0675,-4.0719,-4.095,-4.1821,0.0,0.0,0.0,-4.3807,-4.403,-4.255,-4.1649,-4.1205,-4.1129,-4.1258,-4.1784,-4.3223,-4.2444,-4.2251,-4.406,-4.5877,-4.7085,-4.7426,-4.7637,-4.7639,-4.7708,-4.8552,-4.9321,0.0,0.0,0.0,0.0,0.0,0.0,0.0,0.0,-5.5997,-5.6376,0.0,-5.5289,0.0,0.0,0.0,0.0,0.0,-5.5079,0.0,0.0,-5.2365,-5.229,-5.2208,-5.1595,-5.1236,-5.1303,-5.1626,-5.1717,-5.1394,-5.201,0.0,0.0,0.0,0.0,0.0,0.0,-5.4569,-5.4595,-5.4609,-5.4583,-5.4583,-5.5157,-5.5485,-5.5395,-5.4825,-5.4159,-5.3436,-5.4859,-5.5364,-5.4517,-5.5926,0.0,0.0,0.0,0.0,0.0,0.0,0.0,0.0,0.0,0.0,0.0,0.0,0.0,0.0,0.0,0.0,0.0,0.0,0.0,0.0,-4.9205,0.0,0.0,0.0,0.0,0.0,0.0,0.0,0.0,0.0,0.0,-4.5369,-4.5231,-4.4171,-4.215,0.0,0.0,0.0,0.0,-4.3255,-4.2391,-4.392,-4.5183,-4.5118,-4.4426,-4.3744,-4.3526,0.0,0.0,-4.4364,-4.51,-4.5772,-4.7014,-4.6665,-4.6785,-4.7354,-4.7753,-4.8147,-4.8968,-4.9396,-4.9687,-4.9679,-4.9841,-4.9857,0.0,0.0,0.0,0.0,0.0,0.0,0.0,0.0,0.0,-5.576,0.0,-5.5409,0.0,0.0,0.0,0.0,0.0,0.0,0.0,0.0,-5.4107,-5.3477,-5.2256,-5.2059,-5.1952,0.0,-5.2084,-5.362,0.0,0.0,0.0,0.0,0.0,0.0,0.0,0.0,-5.6475,-5.5881,-5.5443,-5.528,-5.528,-5.5443,-5.5568,-5.5568,-5.5406,-5.5416,-5.5739,-5.6298,-5.6483,0.0,0.0,0.0,0.0,0.0,0.0,0.0,0.0,0.0,0.0,0.0,0.0,0.0,0.0,0.0,0.0,0.0,0.0,0.0,0.0,0.0,0.0,0.0,-4.7361,0.0,0.0,0.0,0.0,0.0,0.0,0.0,0.0,0.0,-4.8909,-4.789,-4.6521,-4.519,-4.4989,-4.4832,-4.4364,0.0,0.0,0.0,0.0,0.0,0.0,0.0,-4.7586,-4.6308,-4.649,-4.6576,-4.5871,-4.5393,-4.5519,-4.6858,0.0,0.0,-5.0109,-5.0858,-5.0955,-5.1279,-5.1458,-5.1554,-5.1497,-5.1534,-5.1494,0.0,0.0,0.0,0.0,0.0,0.0,0.0,0.0,0.0,-5.6186,-5.6213,0.0,0.0,0.0,0.0,0.0,0.0,0.0,0.0,0.0,0.0,0.0,-5.4939,-5.4776,0.0,0.0,0.0,0.0,0.0,0.0,0.0,0.0,0.0,0.0,0.0,0.0,-5.7582,-5.7028,-5.6317,-5.6068,-5.6352,-5.6599,-5.6818,-5.7096,-5.694,-5.7096,-5.7735,0.0,0.0,0.0,0.0,0.0,0.0,0.0,0.0,0.0,0.0,0.0,0.0,0.0,0.0,0.0,0.0,0.0,0.0,0.0,0.0,0.0,0.0,0.0,0.0,0.0,-4.7303,0.0,0.0,0.0,0.0,0.0,0.0,0.0,0.0,0.0,0.0,0.0,-4.8988,-4.7995,-4.7902,-4.773,-4.7156,-4.7711,-4.8218,0.0,0.0,0.0,0.0,0.0,0.0,0.0,0.0,0.0,0.0,0.0,0.0,0.0,0.0,-4.9515,-5.3081,-5.3411,-5.3176,-5.3176,0.0,0.0,0.0,0.0,0.0,0.0,0.0,0.0,0.0,0.0,0.0,0.0,0.0,0.0,0.0,0.0,0.0,0.0,-5.9918,0.0,0.0,0.0,0.0,0.0,0.0,0.0,0.0,0.0,0.0,0.0,0.0,0.0,0.0,0.0,0.0,0.0,0.0,0.0,0.0,0.0,0.0,0.0,-5.7915,-5.715,-5.7089,-5.7943,-5.8567,-5.9245,-6.0085,-5.9624,-5.9276,-5.9247,0.0,0.0,0.0,0.0,0.0,0.0,0.0,0.0,0.0,0.0,0.0,0.0,0.0,0.0,0.0,0.0,0.0,0.0,0.0,0.0,0.0,0.0,0.0,0.0,0.0,0.0,-4.842,-4.8556,-4.861,0.0,0.0,0.0,0.0,0.0,0.0,0.0,0.0,0.0,0.0,-5.0473,-5.0089,-4.9123,-5.0687,-5.159,-5.0552,-5.2161,-5.345,-5.336,-5.2586,-5.2376,0.0,0.0,0.0,0.0,0.0,0.0,0.0,0.0,0.0,0.0,0.0,0.0,0.0,0.0,0.0,0.0,0.0,0.0,0.0,0.0,0.0,0.0,0.0,0.0,0.0,0.0,0.0,0.0,0.0,0.0,0.0,0.0,0.0,0.0,0.0,0.0,0.0,0.0,0.0,0.0,0.0,0.0,0.0,0.0,0.0,0.0,0.0,0.0,0.0,0.0,0.0,0.0,0.0,0.0,-6.0171,-5.9565,-5.9332,-5.9274,-5.9537,-5.9739,-5.997,-6.0229,-6.0085,-5.9942,0.0,0.0,0.0,0.0,0.0,0.0,0.0,0.0,0.0,0.0,0.0,0.0,0.0,0.0,0.0,0.0,0.0,0.0,0.0,0.0,0.0,0.0,0.0,0.0,0.0,0.0,0.0,0.0,-4.7575,-4.7999,-4.9534,0.0,0.0,0.0,0.0,0.0,0.0,0.0,0.0,0.0,0.0,-5.3477,-5.377,-5.4372,-5.4221,-5.2761,-5.408,-5.5086,-5.4859,-5.3799,-5.3733,-5.5954,0.0,0.0,0.0,0.0,0.0,0.0,0.0,0.0,0.0,0.0,0.0,0.0,0.0,0.0,0.0,0.0,0.0,0.0,0.0,0.0,0.0,0.0,0.0,0.0,0.0,0.0,0.0,0.0,0.0,0.0,0.0,0.0,0.0,0.0,0.0,0.0,0.0,0.0,0.0,0.0,0.0,0.0,0.0,0.0,0.0,0.0,0.0,0.0,0.0,0.0,0.0,0.0,0.0,-6.1444,-6.105,-6.0514,-6.0429,-6.077,-6.077,-6.091,-6.1303,-6.1303,-6.1415,0.0,0.0,0.0,0.0,0.0,0.0,0.0,0.0,0.0,0.0,0.0,0.0,0.0,0.0,0.0,0.0,0.0,0.0,0.0,0.0,0.0,0.0,0.0,0.0,0.0,0.0,0.0,0.0,-4.6378,-4.7194,-4.9833,0.0,0.0,0.0,0.0,0.0,0.0,0.0,0.0,0.0,0.0,-5.4083,-5.5155,-5.5331,0.0,0.0,-5.4698,-5.5806,-5.4893,-5.4487,-5.5059,-5.7026,-5.7078,0.0,0.0,0.0,0.0,0.0,0.0,0.0,0.0,0.0,0.0,0.0,0.0,0.0,0.0,0.0,0.0,0.0,0.0,0.0,0.0,0.0,0.0,0.0,0.0,0.0,0.0,0.0,0.0,0.0,0.0,0.0,0.0,0.0,0.0,0.0,0.0,0.0,0.0,0.0,0.0,0.0,0.0,0.0,0.0,0.0,0.0,0.0,0.0,0.0,0.0,0.0,0.0,0.0,-6.2347,-6.1019,-6.0767,-6.1696,-6.1722,-6.2162,-6.3083,-6.3,-6.3267,0.0,0.0,0.0,0.0,0.0,0.0,0.0,0.0,0.0,0.0,0.0,0.0,0.0,0.0,0.0,0.0,0.0,0.0,0.0,0.0,0.0,0.0,0.0,0.0,0.0,0.0,0.0,0.0,0.0,0.0,0.0,0.0,0.0,0.0,0.0,0.0,0.0,0.0,0.0,0.0,0.0,-5.2907,-5.4172,-5.4392,-5.3926,0.0,0.0,-5.6025,-5.435,-5.5149,-5.6357,-5.7471,0.0,0.0,0.0,0.0,0.0,0.0,0.0,0.0,0.0,0.0,0.0,0.0,0.0,0.0,0.0,0.0,0.0,0.0,0.0,0.0,0.0,0.0,0.0,0.0,0.0,0.0,0.0,0.0,0.0,0.0,0.0,0.0,0.0,0.0,0.0,0.0,0.0,0.0,0.0,0.0,0.0,0.0,0.0,0.0,0.0,0.0,0.0,0.0,0.0,0.0,0.0,0.0,0.0,0.0,-6.2779,-6.151,-6.1457,-6.2623,-6.2623,-6.316,-6.4099,-6.3396,0.0,0.0,0.0,0.0,0.0,0.0,0.0,0.0,0.0,0.0,0.0,0.0,0.0,0.0,0.0,0.0,0.0,0.0,0.0,0.0,0.0,0.0,0.0,0.0,0.0,0.0,0.0,-4.3182,0.0,0.0,0.0,0.0,0.0,0.0,0.0,0.0,0.0,0.0,0.0,0.0,0.0,0.0,-5.4235,-5.5553,-5.6244,-5.6465,0.0,0.0,-5.9115,-5.8632,-5.7905,-5.81,0.0,0.0,0.0,0.0,0.0,0.0,0.0,0.0,0.0,0.0,0.0,0.0,0.0,0.0,0.0,0.0,0.0,0.0,0.0,0.0,0.0,0.0,0.0,0.0,0.0,0.0,0.0,0.0,0.0,0.0,0.0,0.0,0.0,0.0,0.0,0.0,0.0,0.0,0.0,0.0,0.0,0.0,0.0,0.0,0.0,0.0,0.0,0.0,0.0,0.0,0.0,0.0,0.0,0.0,-6.228,-6.303,-6.2684,-6.2478,-6.2462,-6.2492,-6.2843,-6.347,-6.3565,-6.3639,0.0,0.0,0.0,0.0,0.0,0.0,0.0,0.0,0.0,0.0,0.0,0.0,0.0,0.0,0.0,0.0,0.0,0.0,0.0,0.0,0.0,0.0,0.0,0.0,0.0,0.0,0.0,0.0,0.0,0.0,0.0,0.0,0.0,0.0,0.0,0.0,0.0,0.0,0.0,0.0,0.0,0.0,-5.6233,-5.6368,0.0,0.0,0.0,-5.8516,-5.7697,0.0,0.0,0.0,0.0,0.0,0.0,0.0,0.0,0.0,0.0,0.0,0.0,0.0,0.0,0.0,0.0,0.0,0.0,0.0,0.0,0.0,0.0,0.0,0.0,0.0,0.0,0.0,0.0,0.0,0.0,0.0,0.0,0.0,0.0,0.0,0.0,0.0,0.0,0.0,0.0,0.0,0.0,0.0,0.0,0.0,0.0,0.0,0.0,0.0,0.0,0.0,0.0,0.0,0.0,0.0,0.0,0.0,-6.3305,-6.3643,-6.3137,-6.1963,-6.1885,-6.2037,-6.24,-6.3494,-6.3827,0.0,0.0,0.0,0.0,0.0,0.0,0.0,0.0,0.0,0.0,0.0,0.0,0.0,0.0,0.0,0.0,0.0,0.0,0.0,0.0,0.0,0.0,0.0,0.0,0.0,0.0,0.0,0.0,0.0,0.0,0.0,0.0,0.0,0.0,0.0,0.0,0.0,0.0,0.0,0.0,0.0,-5.3806,-5.6504,-5.5741,-5.4974,0.0,0.0,-5.6542,-5.488,-5.5643,0.0,0.0,0.0,0.0,0.0,0.0,0.0,0.0,0.0,0.0,0.0,0.0,0.0,0.0,0.0,0.0,0.0,0.0,0.0,0.0,0.0,0.0,0.0,0.0,0.0,0.0,0.0,0.0,0.0,0.0,0.0,0.0,0.0,0.0,0.0,0.0,0.0,0.0,0.0,0.0,0.0,0.0,0.0,0.0,0.0,0.0,0.0,0.0,0.0,0.0,0.0,0.0,0.0,0.0,0.0,0.0,-6.3941,-6.1911,-6.1219,-6.2128,-6.2128,-6.2592,-6.3525,-6.2936,-6.2942,0.0,0.0,0.0,0.0,0.0,0.0,0.0,0.0,0.0,0.0,0.0,0.0,0.0,0.0,0.0,0.0,0.0,0.0,0.0,0.0,0.0,0.0,0.0,0.0,0.0,0.0,0.0,0.0,0.0,0.0,0.0,0.0,0.0,0.0,0.0,0.0,0.0,0.0,0.0,0.0,0.0,-5.4371,-5.5937,-5.6513,0.0,0.0,0.0,0.0,-5.8219,-5.8803,0.0,0.0,0.0,0.0,0.0,0.0,0.0,0.0,0.0,0.0,0.0,0.0,0.0,0.0,0.0,0.0,0.0,0.0,0.0,0.0,0.0,0.0,0.0,0.0,0.0,0.0,0.0,0.0,0.0,0.0,0.0,0.0,0.0,0.0,0.0,0.0,0.0,0.0,0.0,0.0,0.0,0.0,0.0,0.0,0.0,0.0,0.0,0.0,0.0,0.0,0.0,0.0,0.0,0.0,0.0,0.0,-6.2242,-6.182,-6.1649,-6.1755,-6.1723,-6.2084,-6.2701,-6.2898,-6.2888,0.0,0.0,0.0,0.0,0.0,0.0,0.0,0.0,0.0,0.0,0.0,0.0,0.0,0.0,0.0,0.0,0.0,0.0,0.0,0.0,0.0,0.0,0.0,0.0,0.0,0.0,0.0,0.0,0.0,0.0,0.0,0.0,0.0,0.0,0.0,0.0,0.0,0.0,0.0,0.0,-5.4884,-5.5604,-5.7012,0.0,0.0,0.0,0.0,0.0,0.0,-5.8199,-5.864,0.0,0.0,0.0,0.0,0.0,0.0,0.0,0.0,0.0,0.0,0.0,0.0,0.0,0.0,0.0,0.0,0.0,0.0,0.0,0.0,0.0,0.0,0.0,0.0,0.0,0.0,0.0,0.0,0.0,0.0,0.0,0.0,0.0,0.0,0.0,0.0,0.0,0.0,0.0,0.0,0.0,0.0,0.0,0.0,0.0,0.0,0.0,0.0,0.0,0.0,0.0,0.0,0.0,0.0,0.0,-6.1051,-6.2338,-6.2592,-6.1667,-6.1397,-6.1342,-6.1525,-6.2693,-6.2907,-6.206,0.0,0.0,0.0,0.0,0.0,0.0,0.0,0.0,0.0,0.0,0.0,0.0,0.0,0.0,0.0,0.0,0.0,0.0,0.0,0.0,0.0,0.0,0.0,0.0,0.0,0.0,0.0,0.0,0.0,0.0,0.0,0.0,0.0,0.0,0.0,0.0,0.0,0.0,0.0,-5.5697,-5.6628,0.0,0.0,0.0,0.0,0.0,0.0,0.0,0.0,-5.722,0.0,0.0,0.0,0.0,0.0,0.0,0.0,0.0,0.0,0.0,0.0,0.0,0.0,0.0,0.0,0.0,0.0,0.0,0.0,0.0,0.0,0.0,0.0,0.0,0.0,0.0,0.0,0.0,0.0,0.0,0.0,0.0,0.0,0.0,0.0,0.0,0.0,0.0,0.0,0.0,0.0,0.0,0.0,0.0,0.0,0.0,0.0,0.0,0.0,0.0,0.0,0.0,0.0,0.0,0.0,0.0,-6.2715,-6.2132,-6.3218,-6.2085,-6.1494,-6.1709,-6.1798,-6.2053,-6.2619,0.0,0.0,0.0,0.0,0.0,0.0,0.0,0.0,0.0,0.0,0.0,0.0,0.0,0.0,0.0,0.0,0.0,0.0,0.0,0.0,0.0,0.0,0.0,0.0,0.0,0.0,0.0,0.0,0.0,0.0,0.0,0.0,0.0,0.0,0.0,0.0,0.0,0.0,-5.5227,-5.5291,0.0,0.0,0.0,0.0,0.0,0.0,0.0,0.0,-5.7635,0.0,0.0,0.0,0.0,0.0,0.0,0.0,0.0,0.0,0.0,0.0,0.0,0.0,0.0,0.0,0.0,0.0,0.0,0.0,0.0,0.0,0.0,0.0,0.0,0.0,0.0,0.0,0.0,0.0,0.0,0.0,0.0,0.0,0.0,0.0,0.0,0.0,0.0,0.0,0.0,0.0,0.0,0.0,0.0,0.0,0.0,0.0,0.0,0.0,0.0,0.0,0.0,0.0,0.0,0.0,0.0,0.0,0.0,-6.2989,-6.381,-6.3141,-6.2442,-6.1847,-6.2031,-6.2517,0.0,0.0,0.0,0.0,0.0,0.0,0.0,0.0,0.0,0.0,0.0,0.0,0.0,0.0,0.0,0.0,0.0,0.0,0.0,0.0,0.0,0.0,0.0,0.0,0.0,0.0,0.0,0.0,0.0,0.0,0.0,0.0,0.0,0.0,0.0,0.0,0.0,0.0,0.0,0.0,0.0,0.0,0.0,0.0,0.0,0.0,0.0,0.0,0.0,0.0,0.0,0.0,0.0,0.0,0.0,0.0,0.0,0.0,0.0,0.0,0.0,0.0,0.0,0.0,0.0,0.0,0.0,0.0,0.0,0.0,0.0,0.0,0.0,0.0,0.0,0.0,0.0,0.0,0.0,0.0,0.0,0.0,0.0,0.0,0.0,0.0,0.0,0.0,0.0,0.0,0.0,0.0,0.0,0.0,0.0,0.0,0.0,0.0,0.0,0.0,0.0,0.0,0.0,0.0,0.0,0.0,0.0,0.0,-6.4345,-6.4462,-6.4127,-6.3289,-6.1847,-6.2448,-6.3182,0.0,0.0,0.0,0.0,0.0,0.0,0.0,0.0,0.0,0.0,0.0,0.0,0.0,0.0,0.0,0.0,0.0,0.0,0.0,0.0,0.0,0.0,0.0,0.0,0.0,0.0,0.0,0.0,0.0,0.0,0.0,0.0,0.0,0.0,0.0,0.0,0.0,0.0,0.0,0.0,0.0,0.0,0.0,0.0,0.0,0.0,0.0,0.0,-5.8998,0.0,0.0,0.0,0.0,0.0,0.0,0.0,0.0,0.0,0.0,0.0,0.0,0.0,0.0,0.0,0.0,0.0,0.0,0.0,0.0,0.0,0.0,0.0,0.0,0.0,0.0,0.0,0.0,0.0,0.0,0.0,0.0,0.0,0.0,0.0,0.0,0.0,0.0,0.0,0.0,0.0,0.0,0.0,0.0,0.0,0.0,0.0,0.0,0.0,0.0,0.0,0.0,0.0,0.0,0.0,0.0,0.0,0.0,0.0,-6.6004,-6.6009,-6.4663,-6.3289,-6.1917,-6.2448,-6.3405,0.0,0.0,0.0,0.0,0.0,0.0,0.0,0.0,0.0,0.0,0.0,0.0,0.0,0.0,0.0,0.0,0.0,0.0,0.0,0.0,0.0,0.0,0.0,0.0,0.0,0.0,0.0,0.0,0.0,0.0,0.0,0.0,0.0,0.0,0.0,0.0,0.0,0.0,0.0,0.0,0.0,0.0,0.0,0.0,0.0,0.0,0.0,0.0,0.0,0.0,0.0,0.0,0.0,0.0,0.0,0.0,0.0,0.0,0.0,0.0,0.0,0.0,0.0,0.0,0.0,0.0,0.0,0.0,0.0,0.0,0.0,0.0,0.0,0.0,0.0,0.0,0.0,0.0,0.0,0.0,0.0,0.0,0.0,0.0,0.0,0.0,0.0,0.0,0.0,0.0,0.0,0.0,0.0,0.0,0.0,0.0,0.0,0.0,0.0,0.0,0.0,0.0,0.0,0.0,0.0,0.0,0.0,0.0,-6.4931,-6.4931,-6.4295,-6.3692,-6.3084,-6.3686,-6.4293,0.0,0.0,0.0,0.0,0.0,0.0,0.0,0.0,0.0,0.0,0.0,0.0,0.0,0.0,0.0,0.0,0.0,0.0,0.0,0.0,0.0,0.0,0.0,0.0,0.0,0.0,0.0,0.0,0.0,0.0,0.0,0.0,0.0,0.0,0.0,0.0,0.0,0.0,0.0,0.0,0.0,0.0,0.0,0.0,0.0,0.0,0.0,0.0,0.0,0.0,0.0,0.0,0.0,0.0,0.0,0.0,0.0,0.0,0.0,0.0,0.0,0.0,0.0,0.0,0.0,0.0,0.0,0.0,0.0,0.0,0.0,0.0,0.0,0.0,0.0,0.0,0.0,0.0,0.0,0.0,0.0,0.0,0.0,0.0,0.0,0.0,0.0,0.0,0.0,0.0,0.0,0.0,0.0,0.0,0.0,0.0,0.0,0.0,0.0,0.0,0.0,0.0,0.0,0.0,0.0,0.0,0.0,0.0,0.0,-6.4293,-6.3888,-6.3879,-6.4209,-6.4671,-6.5044,0.0,0.0,0.0,0.0,0.0,0.0,0.0,0.0,0.0,0.0,0.0,0.0,0.0,0.0,0.0,0.0,0.0,0.0,0.0,0.0,0.0,0.0,0.0,0.0,0.0,0.0,0.0,0.0,0.0,0.0,0.0,0.0,0.0,0.0,0.0,0.0,0.0,0.0,0.0,0.0,0.0,0.0,0.0,0.0,0.0,0.0,0.0,0.0,0.0,0.0,0.0,0.0,0.0,0.0,0.0,0.0,0.0,0.0,0.0,0.0,0.0,0.0,0.0,0.0,0.0,0.0,0.0,0.0,0.0,0.0,0.0,0.0,0.0,0.0,0.0,0.0,0.0,0.0,0.0,0.0,0.0,0.0,0.0,0.0,0.0,0.0,0.0,0.0,0.0,0.0,0.0,0.0,0.0,0.0,0.0,0.0,0.0,0.0,0.0,0.0,0.0,0.0,0.0,0.0,0.0,0.0,0.0,0.0,0.0,-6.5074,-6.3706,-6.3633,-6.4813,-6.4933,-6.5317,0.0,0.0,0.0,0.0,0.0,0.0,0.0,0.0,0.0,0.0,0.0,0.0,0.0,0.0,0.0,0.0,0.0,0.0,0.0,0.0,0.0,0.0,0.0,0.0,0.0,0.0,0.0,0.0,0.0,0.0,0.0,0.0,0.0,0.0,0.0,0.0,0.0,0.0,0.0,0.0,0.0,0.0,0.0,0.0,0.0,0.0,0.0,0.0,0.0,0.0,0.0,0.0,0.0,0.0,0.0,0.0,0.0,0.0,0.0,0.0,0.0,0.0,0.0,0.0,0.0,0.0,0.0,0.0,0.0,0.0,0.0,0.0,0.0,0.0,0.0,0.0,0.0,0.0,0.0,0.0,0.0,0.0,0.0,0.0,0.0,0.0,0.0,0.0,0.0,0.0,0.0,0.0,0.0,0.0,0.0,0.0,0.0,0.0,0.0,0.0,0.0,0.0,0.0,0.0,0.0,0.0,0.0,0.0,0.0,-6.374,-6.3647,-6.4019,-6.4869,-6.5433,-6.5824,-6.6161,0.0,0.0,0.0,0.0,0.0,0.0,0.0,0.0,0.0,0.0,0.0,0.0,0.0,0.0,0.0,0.0,0.0,0.0,0.0,0.0,0.0,0.0,0.0,0.0,0.0,0.0,0.0,0.0,0.0,0.0,0.0,0.0,0.0,0.0,0.0,0.0,0.0,0.0,0.0,0.0,0.0,0.0,0.0,0.0,0.0,0.0,0.0,0.0,0.0,0.0,0.0,0.0,0.0,0.0,0.0,0.0,0.0,0.0,0.0,0.0,0.0,0.0,0.0,0.0,0.0,0.0,0.0,0.0,0.0,0.0,0.0,0.0,0.0,0.0,0.0,0.0,0.0,0.0,0.0,0.0,0.0,0.0,0.0,0.0,0.0,0.0,0.0,0.0,0.0,0.0,0.0,0.0,0.0,0.0,0.0,0.0,0.0,0.0,0.0,0.0,0.0,0.0,0.0,0.0,0.0,0.0,0.0,0.0,-6.3717,-6.4054,-6.4585,-6.5317,-6.5875,-6.6161,0.0,0.0,0.0,0.0,0.0,0.0,0.0,0.0,0.0,0.0,0.0,0.0,0.0,0.0,0.0,0.0,0.0,0.0,0.0,0.0,0.0,0.0,0.0,0.0,0.0,0.0,0.0,0.0,0.0,0.0,0.0,0.0,0.0,0.0,0.0,0.0,0.0,0.0,0.0,0.0,0.0,0.0,0.0,0.0,0.0,0.0,0.0,0.0,0.0,0.0,0.0,0.0,0.0,0.0,0.0,0.0,0.0,0.0,0.0,0.0,0.0,0.0,0.0,0.0,0.0,0.0,0.0,0.0,0.0,0.0,0.0,0.0,0.0,0.0,0.0,0.0,0.0,0.0,0.0,0.0,0.0,0.0,0.0,0.0,0.0,0.0,0.0,0.0,0.0,0.0,0.0,0.0,0.0,0.0,0.0,0.0,0.0,0.0,0.0,0.0,0.0,0.0,0.0,0.0,0.0,0.0,0.0,0.0,0.0,-6.5342,-6.4947,-6.519,-6.627,-6.6295,-6.6283,0.0,0.0,0.0,0.0,0.0,0.0,0.0,0.0,0.0,0.0,0.0,0.0,0.0,0.0,0.0,0.0,0.0,0.0,0.0,0.0,0.0,0.0,0.0,0.0,0.0,0.0,0.0,0.0,0.0,0.0,0.0,0.0,0.0,0.0,0.0,0.0,0.0,0.0,0.0,0.0,0.0,0.0,0.0,0.0,0.0,0.0,0.0,0.0,0.0,0.0,0.0,0.0,0.0,0.0,0.0,0.0,0.0,0.0,0.0,0.0,0.0,0.0,0.0,0.0,0.0,0.0,0.0,0.0,0.0,0.0,0.0,0.0,0.0,0.0,0.0,0.0,0.0,0.0,0.0,0.0,0.0,0.0,0.0,0.0,0.0,0.0,0.0,0.0,0.0,0.0,0.0,0.0,0.0,0.0,0.0,0.0,0.0,0.0,0.0,0.0,0.0,0.0,0.0,0.0,0.0,0.0,0.0,0.0,0.0,-6.3442,0.0,-6.5498,0.0,-6.6448,-6.6112,0.0,0.0,0.0,0.0,0.0,0.0,0.0,0.0,0.0,0.0,0.0,0.0,0.0,0.0,0.0,0.0,0.0,0.0,0.0,0.0,0.0,0.0,0.0,0.0,0.0,0.0,0.0,0.0,0.0,0.0,0.0,0.0,0.0,0.0,0.0,0.0,0.0,0.0,0.0,0.0,0.0,0.0,0.0,0.0,0.0,0.0,0.0,0.0,0.0,0.0,0.0,0.0,0.0,0.0,0.0,0.0,0.0,0.0,0.0,0.0,0.0,0.0,0.0,0.0,0.0,0.0,0.0,0.0,0.0,0.0,0.0,0.0,0.0,0.0,0.0,0.0,0.0,0.0,0.0,0.0,0.0,0.0,0.0,0.0,0.0,0.0,0.0,0.0,0.0,0.0,0.0,0.0,0.0,0.0,0.0,0.0,0.0,0.0,0.0,0.0,0.0,0.0,0.0,0.0,0.0,0.0,0.0,0.0,0.0,-6.2821,-6.4028,-6.5406,0.0,-6.6397,-6.6037,0.0,0.0,0.0,0.0,0.0,0.0,0.0,0.0,0.0,0.0,0.0,0.0,0.0,0.0,0.0,0.0,0.0,0.0,0.0,0.0,0.0,0.0,0.0,0.0,0.0,0.0,0.0,0.0,0.0,0.0,0.0,0.0,0.0,0.0,0.0,0.0,0.0,0.0,0.0,0.0,0.0,0.0,0.0,0.0,0.0,0.0,0.0,0.0,0.0,0.0,0.0,0.0,0.0,0.0,0.0,0.0,0.0,0.0,0.0,0.0,0.0,0.0,0.0,0.0,0.0,0.0,0.0,0.0,0.0,0.0,0.0,0.0,0.0,0.0,0.0,0.0,0.0,0.0,0.0,0.0,0.0,0.0,0.0,0.0,0.0,0.0,0.0,0.0,0.0,0.0,0.0,0.0,0.0,0.0,0.0,0.0,0.0,0.0,0.0,0.0,0.0,0.0,0.0,0.0,0.0,0.0,0.0,0.0,0.0,0.0,-6.4338,-6.5241,-6.6227,-6.617,-6.6084,0.0,0.0,0.0,0.0,0.0,0.0,0.0,0.0,0.0,0.0,0.0,0.0,0.0,0.0,0.0,0.0,0.0,0.0,0.0,0.0,0.0,0.0,0.0,0.0,0.0,0.0,0.0,0.0,0.0,0.0,0.0,0.0,0.0,0.0,0.0,0.0,0.0,0.0,0.0,0.0,0.0,0.0,0.0,0.0,0.0,0.0,0.0,0.0,0.0,0.0,0.0,0.0,0.0,0.0,0.0,0.0,0.0,0.0,0.0,0.0,0.0,0.0,0.0,0.0,0.0,0.0,0.0,0.0,0.0,0.0,0.0,0.0,0.0,0.0,0.0,0.0,0.0,0.0,0.0,0.0,0.0,0.0,0.0,0.0,0.0,0.0,0.0,0.0,0.0,0.0,0.0,0.0,0.0,0.0,0.0,0.0,0.0,0.0,0.0,0.0,0.0,0.0,0.0,0.0,0.0,0.0,0.0,0.0,0.0,0.0,-6.6225,0.0,-6.7463,-6.7675,-6.7174,-6.5793,0.0,0.0,0.0,0.0,0.0,0.0,0.0,0.0,0.0,0.0,0.0,0.0,0.0,0.0,0.0,0.0,0.0,0.0,0.0,0.0,0.0,0.0,0.0,0.0,0.0,0.0,0.0,0.0,0.0,0.0,0.0,0.0,0.0,0.0,0.0,0.0,0.0,0.0,0.0,0.0,0.0,0.0,0.0,0.0,0.0,0.0,0.0,0.0,0.0,0.0,0.0,0.0,0.0,0.0,0.0,0.0,0.0,0.0,0.0,0.0,0.0,0.0,0.0,0.0,0.0,0.0,0.0,0.0,0.0,0.0,0.0,0.0,0.0,0.0,0.0,0.0,0.0,0.0,0.0,0.0,0.0,0.0,0.0,0.0,0.0,0.0,0.0,0.0,0.0,0.0,0.0,0.0,0.0,0.0,0.0,0.0,0.0,0.0,0.0,0.0,0.0,0.0,0.0,0.0,0.0,0.0,0.0,0.0,0.0,0.0,0.0,-6.722,-6.7205,-6.6697,0.0,0.0,0.0,0.0,0.0,0.0,0.0,0.0,0.0,0.0,0.0,0.0,0.0,0.0,0.0,0.0,0.0,0.0,0.0,0.0,0.0,0.0,0.0,0.0,0.0,0.0,0.0,0.0,0.0,0.0,0.0,0.0,0.0,0.0,0.0,0.0,0.0,0.0,0.0,0.0,0.0,0.0,0.0,0.0,0.0,0.0,0.0,0.0,0.0,0.0,0.0,0.0,0.0,0.0,0.0,0.0,0.0,0.0,0.0,0.0,0.0,0.0,0.0,0.0,0.0,0.0,0.0,0.0,0.0,0.0,0.0,0.0,0.0,0.0,0.0,0.0,0.0,0.0,0.0,0.0,0.0,0.0,0.0,0.0,0.0,0.0,0.0,0.0,0.0,0.0,0.0,0.0,0.0,0.0,0.0,0.0,0.0,0.0,0.0,0.0,0.0,0.0,0.0,0.0,0.0,0.0,0.0,0.0,0.0,0.0,0.0,-6.5087,-6.6151,-6.5628,0.0,-6.5788,0.0,0.0,0.0,0.0,0.0,0.0,0.0,0.0,0.0,0.0,0.0,0.0,0.0,0.0,0.0,0.0,0.0,0.0,0.0,0.0,0.0,0.0,0.0,0.0,0.0,0.0,0.0,0.0,0.0,0.0,0.0,0.0,0.0,0.0,0.0,0.0,0.0,0.0,0.0,0.0,0.0,0.0,0.0,0.0,0.0,0.0,0.0,0.0,0.0,0.0,0.0,0.0,0.0,0.0,0.0,0.0,0.0,0.0,0.0,0.0,0.0,0.0,0.0,0.0,0.0,0.0,0.0,0.0,0.0,0.0,0.0,0.0,0.0,0.0,0.0,0.0,0.0,0.0,0.0,0.0,0.0,0.0,0.0,0.0,0.0,0.0,0.0,0.0,0.0,0.0,0.0,0.0,0.0,0.0,0.0,0.0,0.0,0.0,0.0,0.0,0.0,0.0,0.0,0.0,0.0,0.0,0.0,0.0,0.0,0.0,0.0,0.0,-6.589,-6.5847,-6.6649,0.0,0.0,0.0,0.0,0.0,0.0,0.0,0.0,0.0,0.0,0.0,0.0,0.0,0.0,0.0,0.0,0.0,0.0,0.0,0.0,0.0,0.0,0.0,0.0,0.0,0.0,0.0,0.0,0.0,0.0,0.0,0.0,0.0,0.0,0.0,0.0,0.0,0.0,0.0,0.0,0.0,0.0,0.0,0.0,0.0,0.0,0.0,0.0,0.0,0.0,0.0,0.0,0.0,0.0,0.0,0.0,0.0,0.0,0.0,0.0,0.0,0.0,0.0,0.0,0.0,0.0,0.0,0.0,0.0,0.0,0.0,0.0,0.0,0.0,0.0,0.0,0.0,0.0,0.0,0.0,0.0,0.0,0.0,0.0,0.0,0.0,0.0,0.0,0.0,0.0,0.0,0.0,0.0,0.0,0.0,0.0,0.0,0.0,0.0,0.0,0.0,0.0,0.0,0.0,0.0,0.0,0.0,0.0,0.0,0.0,-6.5335,-6.5967,-6.5342,-6.5448,-6.6394,0.0,0.0,0.0,0.0,0.0,0.0,0.0,0.0,0.0,0.0,0.0,0.0,0.0,0.0,0.0,0.0,0.0,0.0,0.0,0.0,0.0,0.0,0.0,0.0,0.0,0.0,0.0,0.0,0.0,0.0,0.0,0.0,0.0,0.0,0.0,0.0,0.0,0.0,0.0,0.0,0.0,0.0,0.0,0.0,0.0,0.0,0.0,0.0,0.0,0.0,0.0,0.0,0.0,0.0,0.0,0.0,0.0,0.0,0.0,0.0,0.0,0.0,0.0,0.0,0.0,0.0,0.0,0.0,0.0,0.0,0.0,0.0,0.0,0.0,0.0,0.0,0.0,0.0,0.0,0.0,0.0,0.0,0.0,0.0,0.0,0.0,0.0,0.0,0.0,0.0,0.0,0.0,0.0,0.0,0.0,0.0,0.0,0.0,0.0,0.0,0.0,0.0,0.0,0.0,0.0,0.0,0.0,0.0,0.0,0.0,0.0,0.0,0.0,0.0,-6.5522,0.0,0.0,0.0,0.0,0.0,0.0,0.0,0.0,0.0,0.0,0.0,0.0,0.0,0.0,0.0,0.0,0.0,0.0,0.0,0.0,0.0,0.0,0.0,0.0,0.0,0.0,0.0,0.0,0.0,0.0,0.0,0.0,0.0,0.0,0.0,0.0,0.0,0.0,0.0,0.0,0.0,0.0,0.0,0.0,0.0,0.0,0.0,0.0,0.0,0.0,0.0,0.0,0.0,0.0,0.0,0.0,0.0,0.0,0.0,0.0,0.0,0.0,0.0,0.0,0.0,0.0,0.0,0.0,0.0,0.0,0.0,0.0,0.0,0.0,0.0,0.0,0.0,0.0,0.0,0.0,0.0,0.0,0.0,0.0,0.0,0.0,0.0,0.0,0.0,0.0,0.0,0.0,0.0,0.0,0.0,0.0,0.0,0.0,0.0,0.0,0.0,0.0,0.0,0.0,0.0,0.0,0.0,0.0,0.0,0.0,0.0,0.0,0.0,0.0,0.0,0.0,0.0,0.0,0.0,0.0,0.0,0.0,0.0,0.0,0.0,0.0,0.0,0.0,0.0,0.0,0.0,0.0,0.0,0.0,0.0,0.0,0.0,0.0,0.0,0.0,0.0,0.0,0.0,0.0,0.0,0.0,0.0,0.0,0.0,0.0,0.0,0.0,0.0,0.0,0.0,0.0,0.0,0.0,0.0,0.0,0.0,0.0,0.0,0.0,0.0,0.0,0.0,0.0,0.0,0.0,0.0,0.0,0.0,0.0,0.0,0.0,0.0,0.0,0.0,0.0,0.0,0.0,0.0,0.0,0.0,0.0,0.0,0.0,0.0,0.0,0.0,0.0,0.0,0.0,0.0,0.0,0.0,0.0,0.0,0.0,0.0,0.0,0.0,0.0,0.0,0.0,0.0,0.0,0.0,0.0,0.0,0.0,0.0,0.0,0.0,0.0,0.0,0.0,0.0,0.0,0.0,0.0,0.0,0.0,0.0,0.0,0.0,0.0,0.0,0.0,0.0,0.0,0.0,0.0,0.0,0.0,0.0,0.0,0.0,0.0,0.0,0.0,0.0,0.0,0.0,0.0,0.0,0.0,0.0,0.0,0.0,0.0,0.0,0.0,0.0,0.0,0.0,0.0,0.0,0.0,0.0,0.0,0.0,0.0,0.0,0.0,0.0,0.0,0.0,0.0,0.0,0.0,0.0,0.0,0.0,0.0,0.0,0.0,0.0,0.0,0.0,0.0,0.0,0.0,0.0,0.0,0.0,0.0,0.0,0.0,0.0,0.0,0.0,0.0,0.0,0.0,0.0,0.0,0.0,0.0,0.0,0.0,0.0,0.0,0.0,0.0,0.0,0.0,0.0,0.0,0.0,0.0,0.0,0.0,0.0,0.0,0.0,0.0,0.0,0.0,0.0,0.0,0.0,0.0,0.0,0.0,0.0,0.0,0.0,0.0,0.0,0.0,0.0,0.0,0.0,0.0,0.0,0.0,0.0,0.0,0.0,0.0,0.0,0.0,0.0,0.0,0.0,0.0,0.0,0.0,0.0,0.0,0.0,0.0,0.0,0.0,0.0,0.0,0.0,0.0,0.0,0.0,0.0,0.0,0.0,0.0,0.0,0.0,0.0,0.0,0.0,0.0,0.0,0.0,0.0,0.0,0.0,0.0,0.0,0.0,0.0,0.0,0.0,0.0,0.0,0.0,0.0,0.0,0.0,0.0,0.0,0.0,0.0,0.0,0.0,0.0,0.0,0.0,0.0,0.0,0.0,0.0,0.0,0.0,0.0,0.0,0.0,0.0,0.0,0.0,0.0,0.0,0.0,0.0,0.0,0.0,0.0,0.0,0.0,0.0,0.0,0.0,0.0,0.0,0.0,0.0,0.0,0.0,0.0,0.0,0.0,0.0,0.0,0.0,0.0,0.0,0.0,0.0,0.0,0.0,0.0,0.0,0.0,0.0,0.0,0.0,0.0,0.0,0.0,0.0,0.0,0.0,0.0,0.0,0.0,0.0,0.0,0.0,0.0,0.0,0.0,0.0,0.0,0.0,0.0,0.0,0.0,0.0,0.0,0.0,0.0,0.0,0.0,0.0,0.0,0.0,0.0,0.0,0.0,0.0,0.0,0.0,0.0,0.0,0.0,0.0,0.0,0.0,0.0,0.0,0.0,0.0,0.0,0.0,0.0,0.0,0.0,0.0,0.0,0.0,0.0,0.0,0.0,0.0,0.0,0.0,0.0,0.0,0.0,0.0,0.0,0.0,0.0,0.0,0.0,0.0,0.0,0.0,0.0,0.0,0.0,0.0,0.0,0.0,0.0,0.0,0.0,0.0,0.0,0.0,0.0,0.0,0.0,0.0,0.0,0.0,0.0,0.0,0.0,0.0,0.0,0.0,0.0,0.0,0.0,0.0,0.0,0.0,0.0,0.0,0.0,0.0,0.0,0.0,0.0,0.0,0.0,0.0,0.0,0.0,0.0,0.0,0.0,0.0,0.0,0.0,0.0,0.0,0.0,0.0,0.0,0.0,0.0,0.0,0.0,0.0,0.0,0.0,0.0,0.0,0.0,0.0,0.0,0.0,0.0,0.0,0.0,0.0,0.0,0.0,0.0,0.0,0.0,0.0,0.0,0.0,0.0,0.0,0.0,0.0,0.0,0.0,0.0,0.0,0.0,0.0,0.0,0.0,0.0,0.0,0.0,0.0,0.0,0.0,0.0,0.0,0.0,0.0,0.0,0.0,0.0,0.0,0.0,0.0,0.0,0.0,0.0,0.0,0.0,0.0,0.0,0.0,0.0,0.0,0.0,0.0,0.0,0.0,0.0,0.0,0.0,0.0,0.0,0.0,0.0,0.0,0.0,0.0,0.0,0.0,0.0,0.0,0.0,0.0,0.0,0.0,0.0,0.0,0.0,0.0,0.0,0.0,0.0,0.0,0.0,0.0,0.0,0.0,0.0,0.0,0.0,0.0,0.0,0.0,0.0,0.0,0.0,0.0,0.0,0.0,0.0,0.0,0.0,0.0,0.0,0.0,0.0,0.0,0.0,0.0,0.0,0.0,0.0,0.0,0.0,0.0,0.0,0.0,0.0,0.0,0.0,0.0,0.0,0.0,0.0,0.0,0.0,0.0,0.0,0.0,0.0,0.0,0.0,0.0,0.0,0.0,0.0,0.0,0.0,0.0,0.0,0.0,0.0,0.0,0.0,0.0,0.0,0.0,0.0,0.0,0.0,0.0,0.0,0.0,0.0,0.0,0.0,0.0,0.0,0.0,0.0,0.0,0.0,0.0,0.0,0.0,0.0,0.0,0.0,0.0,0.0,0.0,0.0,0.0,0.0,0.0,0.0,0.0,0.0,0.0,0.0,0.0,0.0,0.0,0.0,0.0,0.0,0.0,0.0,0.0,0.0,0.0,0.0,0.0,0.0,0.0,0.0,0.0,0.0,0.0,0.0,0.0,0.0,0.0,0.0,0.0,0.0,0.0,0.0,0.0,0.0,0.0,0.0,0.0,0.0,0.0,0.0,0.0,0.0,0.0,0.0,0.0,0.0,0.0,0.0,0.0,0.0,0.0,0.0,0.0,0.0,0.0,0.0,0.0,0.0,0.0,0.0,0.0,0.0,0.0,0.0,0.0,0.0,0.0,0.0,0.0,0.0,0.0,0.0,0.0,0.0,0.0,0.0,0.0,0.0,0.0,0.0,0.0,0.0,0.0,0.0,0.0,0.0,0.0,0.0,0.0,0.0,0.0,0.0,0.0,0.0,0.0,0.0,0.0,0.0,0.0,0.0,0.0,0.0,0.0,0.0,0.0,0.0,0.0,0.0,0.0,0.0,0.0,0.0,0.0,0.0,0.0,0.0,0.0,0.0,0.0,0.0,0.0,0.0,0.0,0.0,0.0,0.0,0.0,0.0,0.0,0.0,0.0,0.0,0.0,0.0,0.0,0.0,0.0,0.0,0.0,0.0,0.0,0.0,0.0,0.0,0.0,0.0,0.0,0.0,0.0,0.0,0.0,0.0,0.0,0.0,0.0,0.0,0.0,0.0,0.0,0.0,0.0,0.0,0.0,0.0,0.0,0.0,0.0,0.0,0.0,0.0,0.0,0.0,0.0,0.0,0.0,0.0,0.0,0.0,0.0,0.0,0.0,0.0,0.0,0.0,0.0,0.0,0.0,0.0,0.0,0.0,0.0,0.0,0.0,0.0,0.0,0.0,0.0,0.0,0.0,0.0,0.0,0.0,0.0,0.0,0.0,0.0,0.0,0.0,0.0,0.0,0.0,0.0,0.0,0.0,0.0,0.0,0.0,0.0,0.0,0.0,0.0,0.0,0.0,0.0,0.0,0.0,0.0,0.0,0.0,0.0,0.0]}],[{"header":{"parameterUnit":"kt","parameterCategory":2,"dx":1,"dy":1,"la1":29.587661999999998,"la2":31.0,"lo1":-88.76705300000003,"lo2":-86.6583820000003,"nx":115,"ny":88,"refTime":"2022-10-10T06:00:00:Z","depth":0,"parameterNumber":2,"parameterNumberName":"V-component_of_WINDS"},"data":[10.9304,11.0657,11.0714,11.1426,11.2571,11.2811,11.2959,11.2959,11.3202,11.3428,11.3352,11.324,11.2901,11.2901,11.2939,11.3616,11.4405,11.4781,11.527,11.6322,11.651,11.5646,11.5458,11.6473,11.5834,11.6453,11.7336,11.7393,11.764,11.8225,11.8688,11.8647,11.8859,11.9174,11.9288,11.8681,11.8073,11.8453,11.8339,11.8073,11.9136,11.9744,11.982,11.9933,11.9933,11.9933,11.9668,11.8567,11.8908,11.9478,11.9933,11.9933,11.9933,11.9933,11.9933,11.978,11.9817,11.9053,11.8662,11.8118,11.7722,11.6652,11.5809,11.5535,11.4548,11.4397,11.322,11.1854,11.1551,11.083,11.0029,11.0029,11.0067,11.0063,11.0063,11.0015,11.0053,10.999,10.9898,11.0271,11.0941,11.1604,11.204,11.3554,11.5652,11.5942,11.6711,11.6781,11.6983,11.7086,11.6916,11.6097,11.5086,11.4466,11.3415,11.2533,11.2519,11.2195,11.1653,11.083,10.9808,10.8557,10.8421,10.8931,10.8724,10.8547,10.8448,10.8241,10.8241,10.8241,10.8135,10.807,10.8026,10.7877,10.7775,10.853,10.8817,10.8988,10.9176,10.9345,10.9493,10.9622,10.9865,11.1045,11.1719,11.1568,11.0269,10.9555,10.948,10.9593,11.0721,11.1811,11.2826,11.433,11.5383,11.5984,11.4969,11.5307,11.6435,11.5759,11.5947,11.6811,11.6849,11.6774,11.7118,11.7248,11.7064,11.7454,11.8011,11.8756,11.8219,11.7124,11.7352,11.7504,11.7466,11.8263,11.9098,11.9706,11.9933,11.9933,11.9933,11.9933,11.9668,11.963,11.9857,11.9744,11.9668,11.9592,11.982,11.982,11.9591,11.9551,11.9507,11.9419,11.9143,11.8978,11.8735,11.774,11.6483,11.4852,11.3903,11.2841,11.2158,11.2158,11.1589,11.0526,11.0067,11.0105,11.0143,11.0181,11.0181,11.0219,11.0252,11.0172,11.0129,11.1068,11.2168,11.2911,11.3864,11.4644,11.4642,11.4823,11.4829,11.5049,11.5691,11.535,11.4277,11.3381,11.1834,11.0328,11.0139,11.0515,11.0378,11.0603,10.9721,10.896,10.8707,10.8555,10.8535,10.8463,10.8462,10.8383,10.8261,10.8241,10.8241,10.8178,10.8113,10.807,10.8004,10.7845,10.8319,10.8381,10.8498,10.8556,10.8575,10.8689,10.88,10.8966,10.964,10.9955,10.9801,10.9254,10.8862,10.8899,10.8862,10.9952,11.1305,11.138,11.2751,11.3315,11.3315,11.3428,11.2638,11.23,11.3164,11.2976,11.3954,11.5383,11.5287,11.566,11.5904,11.5451,11.632,11.6697,11.6198,11.5364,11.4724,11.5889,11.6023,11.6554,11.7504,11.8908,11.9895,11.9933,11.9933,11.9933,11.9744,11.8946,11.9288,11.963,11.8984,11.8756,11.8794,11.9288,11.9288,11.8794,11.8641,11.8944,11.9276,11.9151,11.8722,11.8823,11.8318,11.7091,11.5497,11.2803,11.1703,11.1361,11.1361,11.1361,11.0333,11.0333,11.0413,11.0906,11.1096,11.1323,11.1509,11.1513,11.1437,11.1361,11.1741,11.2613,11.25,11.341,11.4117,11.4182,11.4575,11.4791,11.4735,11.5032,11.3593,11.2343,11.1591,11.0243,10.9541,10.9439,10.943,10.9354,10.9589,10.9166,10.9002,10.8791,10.8619,10.8463,10.8405,10.8424,10.8385,10.8282,10.8241,10.8343,10.8282,10.8161,10.8135,10.8092,10.7354,10.8418,10.886,10.8568,10.8421,10.8458,10.8556,10.8689,10.88,10.8762,10.8836,10.8793,10.8865,10.8865,10.8882,10.8845,10.9313,11.0666,11.1004,11.1568,11.2337,11.26,11.26,11.0909,11.1849,11.0645,11.0194,11.1097,11.3315,11.4159,11.4929,11.5176,11.4395,11.4952,11.5892,11.5609,11.3304,11.3431,11.4932,11.5505,11.6488,11.7289,11.8678,11.9849,11.9895,11.9895,11.9895,11.963,11.8794,11.9174,11.9288,11.8187,11.7542,11.7314,11.8187,11.7997,11.7162,11.6896,11.7386,11.7683,11.7443,11.7697,11.8067,11.7411,11.6905,11.5497,11.2424,11.0678,11.0333,11.0143,11.0181,11.0143,11.0526,11.0944,11.1703,11.2348,11.2765,11.3178,11.3107,11.3031,11.2955,11.2879,11.2613,11.2082,11.2537,11.341,11.3747,11.3785,11.3776,11.338,11.3096,11.1643,11.1238,11.0276,11.0134,11.0011,10.9865,10.9747,10.9644,10.9622,10.9314,10.8991,10.8978,10.894,10.864,10.8385,10.8445,10.8482,10.8385,10.8385,10.8444,10.8387,10.8426,10.8368,10.7208,10.64,10.8762,11.0484,10.8935,10.8523,10.8357,10.8458,10.8594,10.8651,10.8594,10.8556,10.8707,10.878,10.8871,10.8851,10.8845,10.9087,10.9613,11.0553,11.1473,11.3595,11.2638,11.2412,11.2187,11.3164,11.1134,11.1623,11.23,11.2375,11.3503,11.3896,11.4026,11.3989,11.4152,11.4238,11.4507,11.2652,11.2938,11.4624,11.5842,11.6754,11.7441,11.8413,11.949,11.9704,11.973,11.9782,11.982,11.982,11.982,11.9326,11.8529,11.7466,11.6782,11.6517,11.5795,11.5225,11.5262,11.5677,11.5821,11.551,11.6182,11.6132,11.483,11.4709,11.4856,11.3149,11.193,11.1399,11.0792,11.0678,11.0602,11.0868,11.1058,11.1551,11.2386,11.3069,11.3372,11.341,11.3182,11.2803,11.2537,11.1703,11.1209,11.1134,11.1964,11.1091,11.094,11.1015,11.0883,11.0921,11.0428,11.0352,11.0063,11.0063,11.0029,11.0029,10.994,10.9982,10.993,10.9705,10.9293,10.9185,10.9217,10.8953,10.8686,10.8653,10.8565,10.8602,10.8602,10.8377,10.8189,10.8452,10.7558,10.6042,10.5063,11.0011,11.1509,11.14,11.0708,10.9757,10.8789,10.9074,10.9791,10.891,10.8537,10.867,10.88,10.8853,10.8853,10.8848,10.8862,10.8899,10.9764,11.0457,11.1285,11.057,11.1134,11.0946,11.0533,11.057,11.0307,11.0457,11.1435,11.1021,11.1548,11.2488,11.2563,11.2412,11.2288,11.2377,11.2637,11.3196,11.4972,11.6396,11.7263,11.8073,11.8988,11.9356,11.9475,11.9483,11.9597,11.9744,11.9782,11.9212,11.8301,11.8073,11.7048,11.5795,11.4504,11.3593,11.3555,11.3593,11.3894,11.4344,11.396,11.5125,11.5986,11.5445,11.4493,11.4185,11.3882,11.3043,11.2052,11.1631,11.1247,11.1172,11.1172,11.1247,11.1323,11.2272,11.3182,11.3296,11.3372,11.3069,11.2575,11.1817,11.0906,11.0413,11.0219,11.0029,11.0029,11.0029,11.0029,11.0029,11.0029,11.0029,11.0029,11.0029,11.0029,11.0029,11.0029,10.9987,11.0025,11.0029,10.9876,10.9584,10.9372,10.9238,10.9105,10.8878,10.8724,10.8531,10.8644,10.814,10.7726,10.7297,10.679,10.5696,10.4469,10.3595,11.1088,11.2819,11.2936,11.2707,11.1995,11.0743,11.0323,11.0776,10.9748,10.8815,10.8537,10.8689,10.8726,10.878,10.8868,10.8845,10.8862,10.8899,10.9087,10.9313,10.9743,10.948,10.9405,10.948,10.8974,10.9142,10.9442,11.0006,10.9538,11.0666,11.1531,11.1719,11.1924,11.1999,11.2212,11.249,11.4348,11.6021,11.7058,11.7873,11.8716,11.9001,11.8648,11.85,11.8342,11.7934,11.7893,11.7847,11.7559,11.6501,11.6175,11.5605,11.4239,11.2834,11.1847,11.1847,11.1961,11.2226,11.3136,11.2489,11.2864,11.4636,11.4594,11.4249,11.4206,11.3826,11.3216,11.1843,11.0849,11.0049,10.9742,11.0644,11.1361,11.1892,11.2765,11.2879,11.2082,11.2234,11.2462,11.1968,11.1361,11.0564,11.0257,11.0029,11.0029,11.0029,11.0029,11.0029,11.0029,11.0029,11.0029,11.0029,11.0029,11.0029,11.0029,11.0029,11.0029,11.0029,11.0025,10.9925,10.9568,10.9323,10.923,10.8904,10.8293,10.8206,10.8157,10.7413,10.657,10.6268,10.589,10.4851,10.387,10.2983,10.2098,11.1918,11.416,11.2904,11.3533,11.5097,11.4488,11.2962,11.0933,11.0804,10.9832,10.8432,10.8665,10.8725,10.8707,10.8818,10.8868,10.8845,10.8862,10.9613,11.014,10.933,10.9914,10.9952,10.9501,10.9012,10.9405,10.9781,10.9668,10.9142,11.0553,11.1999,11.26,11.1698,11.3202,11.4743,11.5678,11.6112,11.6922,11.7706,11.825,11.823,11.8489,11.782,11.7008,11.6673,11.6202,11.578,11.5366,11.5106,11.4416,11.3498,11.289,11.2037,11.0974,11.0442,11.0176,11.029,11.0442,11.0784,11.0936,11.1652,11.2752,11.279,11.2748,11.2897,11.331,11.2698,11.1554,11.0935,10.9718,10.869,11.0007,11.1285,11.193,11.2803,11.231,11.1285,11.1209,11.1513,11.1323,11.0716,11.0451,11.0105,11.0029,11.0029,11.0029,11.0029,11.0029,11.0029,11.0029,11.0029,11.0029,11.0029,11.0029,11.0029,11.0029,11.0029,11.0029,11.0025,10.9717,10.945,10.9175,10.8507,10.7846,10.7517,10.7025,10.6483,10.5801,10.512,10.4589,10.4249,10.3263,10.202,10.1211,10.1079,11.3047,11.4868,11.4837,11.495,11.5119,11.5981,11.5238,11.3496,11.267,11.1494,11.019,11.001,10.9584,10.8838,10.8726,10.8834,10.8851,10.8882,10.9538,10.948,10.9029,10.935,10.9501,10.9104,10.8862,10.8974,10.9405,10.9593,10.8954,11.0553,11.1209,11.1285,11.1209,11.3916,11.6548,11.7714,11.7751,11.7902,11.7676,11.8089,11.7563,11.7017,11.6485,11.5327,11.4781,11.4569,11.4331,11.4106,11.3914,11.3093,11.2385,11.1833,11.0988,11.0328,11.0176,11.0062,11.0024,11.0024,11.0024,11.0024,11.0252,11.1049,11.2074,11.2453,11.2639,11.3129,11.252,11.1944,11.2004,11.1394,11.078,10.9776,11.0564,11.0489,11.1058,11.1096,11.0413,11.0451,11.0678,11.0602,11.0219,11.0181,11.0029,11.0029,11.0029,11.0029,11.0029,11.0029,11.0029,11.0029,11.0029,11.0029,11.0029,11.0029,11.0029,10.9839,10.9768,10.9991,10.9725,10.9384,10.8988,10.8048,10.7327,10.6638,10.6101,10.5539,10.4881,10.4356,10.3933,10.3434,10.2752,10.1598,10.0236,10.0114,10.0328,11.3939,11.5141,11.563,11.5466,11.4995,11.6053,11.6199,11.5445,11.429,11.2983,11.1793,11.0996,11.016,10.9397,10.9101,10.8744,10.8836,10.8848,10.8862,10.8899,10.8899,10.8862,10.8862,10.8916,10.8862,10.8974,10.9538,10.9781,10.9029,11.0553,11.0403,11.0457,11.1999,11.4367,11.6962,11.8014,11.839,11.8541,11.7563,11.6999,11.6435,11.5796,11.4799,11.3182,11.3086,11.2697,11.2028,11.1892,11.1662,11.1132,11.1027,11.0637,11.0066,10.9868,10.9797,10.9797,10.9835,10.9806,10.9844,10.9846,10.9887,11.0241,11.089,11.1426,11.1656,11.2832,11.2717,11.1953,11.1037,11.0841,11.1213,11.0138,11.0201,11.0083,11.0041,11.0041,11.0037,11.0033,11.0033,11.0033,11.0029,11.0029,11.0029,11.0029,11.0029,11.0029,11.0029,11.0029,11.0029,11.0029,10.9953,10.9953,10.9806,10.9915,10.9692,10.9009,10.8781,10.8553,10.8402,10.8174,10.7567,10.6757,10.6023,10.5515,10.478,10.4076,10.3377,10.2761,10.2555,10.2179,10.1366,10.0308,9.9903,9.9903,9.9903,11.443,11.5033,11.5069,11.5032,11.4958,11.5068,11.5856,11.6404,11.5382,11.4265,11.3266,11.1964,11.1221,11.0517,10.9434,10.8932,10.8894,10.8836,10.8851,10.8865,10.8845,10.8862,10.8862,10.8937,10.905,10.933,11.0119,11.0382,10.948,11.1209,11.1643,11.1924,11.245,11.4255,11.6135,11.6398,11.715,11.7939,11.5458,11.5307,11.5157,11.4367,11.3014,11.1736,11.1305,11.0796,11.018,10.9917,10.9928,10.9749,10.9733,10.9702,10.9483,10.9494,10.9523,10.9478,10.9509,10.9494,10.944,10.9462,10.9589,10.9864,10.9991,11.0284,11.017,11.0138,11.0252,11.0175,10.9832,10.9488,10.9105,10.9025,10.977,11.0028,11.0063,11.0059,11.0049,11.0045,11.0041,11.0041,11.0037,11.0029,11.0029,11.0029,11.0029,11.0033,11.0029,11.0029,11.0029,10.9953,10.9768,10.9616,10.9236,10.9009,10.8288,10.7871,10.7415,10.7036,10.658,10.5973,10.5366,10.5025,10.4759,10.4452,10.3583,10.2521,10.18,10.1231,10.1117,10.0965,10.0092,9.9978,9.9903,9.9903,9.9903,11.422,11.4386,11.4386,11.4386,11.4464,11.4886,11.5317,11.575,11.6178,11.5916,11.4949,11.441,11.3086,11.1221,11.031,10.9886,10.895,10.8801,10.8837,10.8816,10.8851,10.8848,10.8845,10.9012,10.9501,11.0553,11.1267,11.1886,11.1661,11.2751,11.2864,11.2676,11.2676,11.339,11.4405,11.4668,11.4856,11.5195,11.4159,11.3954,11.2826,11.2337,11.1322,10.9989,10.9764,10.9275,10.905,10.8878,10.8923,10.8994,10.9115,10.9258,10.9298,10.9363,10.9445,10.9462,10.9462,10.9462,10.9419,10.9373,10.9382,10.9516,10.9554,10.9551,10.9638,10.9772,10.9724,10.9009,10.9453,10.9906,10.9753,10.9526,10.9937,11.0013,11.001,11.0036,11.0028,11.0056,11.0056,11.0053,11.0041,11.0033,11.0033,11.0033,11.0033,11.0037,11.0033,10.9995,10.9692,10.9236,10.9047,10.8553,10.825,10.7567,10.6846,10.6239,10.5708,10.5328,10.4873,10.4114,10.3469,10.3321,10.3052,10.2634,10.1914,10.1003,10.0624,10.0586,10.0244,10.0016,10.0054,10.0206,10.0168,10.0092,10.0054,11.4059,11.4059,11.4059,11.4059,11.4176,11.4544,11.4849,11.5211,11.6022,11.6133,11.5837,11.5419,11.415,11.2713,11.2064,11.0983,10.9639,10.9511,10.9138,10.8988,10.88,10.8816,10.9169,10.9467,10.9897,11.029,11.108,11.1999,11.2224,11.1397,11.2337,11.3428,11.3014,11.3164,11.3428,11.4067,11.4067,11.3821,11.2676,11.2037,11.1004,11.0816,10.9894,10.8862,10.8862,10.8862,10.8862,10.8862,10.8862,10.889,10.9032,10.9068,10.9101,10.9132,10.9157,10.9169,10.9194,10.9194,10.917,10.9106,10.9104,10.9204,10.9303,10.943,10.9494,10.9582,10.9658,10.9692,10.9738,10.9714,10.9775,10.9866,10.9948,10.9948,10.9945,11.0013,11.0043,11.0036,11.0033,11.0033,11.0025,11.0021,11.0015,11.0011,11.0015,10.9901,10.9928,10.9768,10.8819,10.8136,10.7301,10.6656,10.6543,10.6011,10.5708,10.4911,10.4038,10.3659,10.3279,10.2407,10.161,10.1496,10.1572,10.0737,10.0092,10.0206,10.0206,9.9978,10.0358,10.1079,10.1117,10.0889,10.0548,10.0358,10.013,11.4059,11.4059,11.4059,11.4059,11.41,11.4059,11.4464,11.4923,11.5105,11.552,11.5807,11.5318,11.4855,11.422,11.3297,11.2348,11.1034,11.0975,11.0061,10.9244,10.8875,10.9043,10.9307,11.0094,11.0784,10.9897,11.1155,11.0984,10.9969,11.0478,11.1117,11.3069,11.23,11.3089,11.3164,11.2676,11.2751,11.2262,11.0833,11.0082,11.0253,10.9856,10.9029,10.8862,10.8862,10.8862,10.8862,10.8862,10.8862,10.8878,10.889,10.8907,10.8939,10.8948,10.8964,10.8941,10.8964,10.8979,10.8964,10.8917,10.8912,10.8939,10.9082,10.9244,10.9293,10.9354,10.9436,10.9453,10.9523,10.953,10.9589,10.9652,10.9692,10.9759,10.9861,10.9908,10.9986,10.9985,10.9944,10.9975,10.9937,10.9904,10.9904,10.9833,10.9796,10.9037,10.8921,10.8421,10.7542,10.6744,10.5795,10.4915,10.4801,10.4611,10.4422,10.3697,10.2597,10.1989,10.18,10.1003,10.0282,10.0206,10.0472,9.9903,9.9903,9.9903,9.9941,10.0624,10.1306,10.2107,10.26,10.2597,10.2369,10.1534,10.0851,11.4059,11.4059,11.4059,11.4059,11.4059,11.4059,11.4184,11.4425,11.4849,11.5177,11.5378,11.565,11.5039,11.4139,11.3732,11.3132,11.1883,11.1365,11.0539,11.0456,11.0486,10.9958,10.9715,11.1313,11.2027,11.0692,11.1909,11.2282,11.1476,11.0406,10.9262,11.0044,11.0608,11.042,11.0269,11.0457,11.057,11.0495,10.9405,10.9162,10.9426,10.9066,10.8916,10.8862,10.8862,10.8862,10.8862,10.8862,10.8862,10.8862,10.8862,10.8862,10.8862,10.8862,10.8862,10.8862,10.8862,10.8862,10.8862,10.8862,10.8862,10.8857,10.8933,10.9024,10.905,10.9195,10.9291,10.9291,10.9362,10.9419,10.9462,10.9478,10.9523,10.9614,10.9721,10.9787,10.9844,10.9775,10.9744,10.9746,10.9744,10.9708,10.9358,10.9464,10.8968,10.8136,10.75,10.6979,10.6227,10.5476,10.4405,10.3146,10.2994,10.2725,10.2111,10.1269,10.0927,10.0434,10.0358,10.0016,10.0054,9.9978,9.9903,9.9903,9.9903,10.0092,10.0548,10.142,10.2259,10.309,10.3811,10.4076,10.3545,10.271,10.1762,11.4059,11.4059,11.4059,11.4059,11.4059,11.4059,11.4059,11.418,11.4505,11.466,11.481,11.5178,11.5021,11.4626,11.4698,11.4019,11.2942,11.2507,11.171,11.1061,11.1079,11.0636,10.9748,11.1497,11.1929,11.0807,11.167,11.2551,11.1328,10.966,10.8851,10.9012,10.8937,10.8862,10.9217,10.8937,10.8862,10.8862,10.8862,10.8862,10.8862,10.8862,10.8862,10.8862,10.8862,10.8862,10.8862,10.8862,10.8862,10.8862,10.8862,10.8862,10.8862,10.8862,10.8862,10.8862,10.8862,10.8862,10.8862,10.8862,10.8862,10.8878,10.8878,10.8862,10.8912,10.8979,10.9082,10.9082,10.917,10.9182,10.9144,10.9271,10.9341,10.943,10.9547,10.9595,10.9632,10.9568,10.9535,10.9518,10.9469,10.8755,10.819,10.8,10.7484,10.6587,10.5809,10.5108,10.439,10.3874,10.2885,10.1698,10.1384,10.1154,10.0352,9.9888,10.0011,10.0031,9.9955,9.9913,9.991,9.9903,9.9903,9.9903,9.9903,10.0396,10.1155,10.1914,10.2786,10.3849,10.4911,10.4,10.3094,10.2449,10.1955,11.4059,11.4059,11.4059,11.4059,11.4059,11.4059,11.4059,11.4059,11.414,11.4059,11.422,11.4184,11.4505,11.4814,11.5486,11.4905,11.3866,11.3044,11.2016,11.0546,11.084,11.0367,10.9603,11.1259,11.0845,10.9371,11.039,11.0019,10.9115,10.8856,10.8651,10.8721,10.8738,10.8862,10.8862,10.8862,10.8862,10.8862,10.8862,10.8862,10.8862,10.8862,10.8862,10.8862,10.8862,10.8862,10.8862,10.8862,10.8862,10.8862,10.8862,10.8862,10.8862,10.8862,10.8862,10.8862,10.8862,10.8862,10.8862,10.8862,10.8862,10.8862,10.8862,10.8862,10.8878,10.8874,10.889,10.8862,10.8874,10.8901,10.8979,10.9097,10.9142,10.9232,10.933,10.9439,10.9466,10.9407,10.9399,10.9305,10.7793,10.7181,10.6684,10.6355,10.5933,10.496,10.4042,10.3157,10.2443,10.2091,10.1318,10.0754,10.0381,10.0381,9.9811,9.9846,9.9917,9.9932,9.9891,9.9926,9.9913,9.9903,9.9903,9.991,9.9903,10.0206,10.1269,10.2293,10.3242,10.4076,10.4759,10.4038,10.279,10.2335,10.2031,11.4059,11.4059,11.4059,11.4059,11.4059,11.4059,11.4059,11.4059,11.4059,11.4059,11.4059,11.41,11.418,11.4307,11.4326,11.3975,11.298,11.2336,11.0952,10.9587,10.9977,10.8986,10.8229,10.9231,11.0286,10.8232,10.9316,10.9237,10.7743,10.7719,10.7942,10.8173,10.8648,10.8862,10.8807,10.8773,10.8862,10.8862,10.8862,10.8862,10.8862,10.8862,10.8862,10.8862,10.8862,10.8862,10.8862,10.8862,10.8862,10.8862,10.8862,10.8862,10.8862,10.8862,10.8862,10.8862,10.8862,10.8862,10.8862,10.8862,10.8862,10.8862,10.8862,10.8862,10.8862,10.8862,10.8862,10.8862,10.8862,10.8862,10.8878,10.8907,10.8954,10.8994,10.9155,10.928,10.928,10.9091,10.9015,10.7735,10.6184,10.5299,10.4809,10.4395,10.3897,10.2985,10.2321,10.1427,10.1006,10.0583,10.0452,9.9911,9.973,9.9742,9.9762,9.9809,9.9812,9.9847,9.9847,9.9879,9.9902,9.9879,9.9882,9.9894,9.9853,9.9975,10.1431,10.26,10.317,10.3777,10.457,10.4304,10.3052,10.2369,10.1762,11.4059,11.4059,11.4059,11.4059,11.4059,11.4059,11.4059,11.4059,11.4059,11.4059,11.4059,11.4063,11.3738,11.3125,11.3016,11.2274,11.1349,11.0789,11.0,10.9246,10.9428,10.8592,10.7574,10.8669,10.8406,10.7714,10.7529,10.7297,10.6791,10.7068,10.7446,10.769,10.7743,10.8214,10.8649,10.852,10.8538,10.8807,10.8862,10.8862,10.8862,10.8862,10.8862,10.8862,10.8862,10.8862,10.8862,10.8862,10.8862,10.8862,10.8862,10.8862,10.8862,10.8862,10.8862,10.8862,10.8862,10.8862,10.8862,10.8862,10.8862,10.8862,10.8862,10.8862,10.8862,10.8862,10.8862,10.8862,10.8862,10.8862,10.8862,10.8878,10.8862,10.8912,10.8986,10.9054,10.888,10.8277,10.7372,10.6227,10.486,10.3821,10.3164,10.2465,10.1841,10.1195,10.0576,10.0074,9.9631,9.9612,9.9768,9.9504,9.9567,9.9599,9.973,9.9739,9.9752,9.9796,9.98,9.9848,9.9849,9.9844,9.9841,9.9616,9.9582,9.9432,10.0757,10.2074,10.2738,10.3408,10.3336,10.3149,10.2646,10.2107,10.1306,11.4059,11.4059,11.4059,11.4059,11.4059,11.4059,11.4059,11.4059,11.3775,11.3702,11.3594,11.3414,11.2366,11.168,11.1392,11.0705,10.9844,10.9119,10.8686,10.8218,10.8148,10.7901,10.6809,10.7235,10.692,10.6223,10.5913,10.595,10.6142,10.6527,10.68,10.716,10.6997,10.731,10.7986,10.8087,10.7991,10.8253,10.8575,10.8648,10.8721,10.8773,10.8862,10.8862,10.8862,10.8862,10.8862,10.8862,10.8862,10.8862,10.8862,10.8862,10.8862,10.8862,10.8862,10.8862,10.8862,10.8862,10.8862,10.8862,10.8862,10.8862,10.8862,10.8862,10.8862,10.8862,10.8862,10.8862,10.8862,10.8862,10.8862,10.8862,10.8862,10.8728,10.8611,10.831,10.7971,10.6709,10.5032,10.4107,10.3361,10.2449,10.1622,10.0833,10.0472,10.0074,9.9675,9.94,9.9207,9.9271,9.9334,9.9367,9.939,9.9515,9.961,9.9653,9.9664,9.9707,9.9663,9.9658,9.9686,9.9732,9.9352,9.8777,9.858,9.8883,9.9915,10.1213,10.1824,10.1785,10.1665,10.1501,10.1277,10.1054,10.0364,11.4059,11.4059,11.4059,11.4059,11.4059,11.4027,11.3919,11.3811,11.2764,11.215,11.1933,11.0669,11.0344,10.9839,10.9803,10.9731,10.8972,10.807,10.677,10.5975,10.5867,10.569,10.5511,10.5439,10.5257,10.4932,10.4823,10.4823,10.5174,10.5507,10.5982,10.6129,10.64,10.6814,10.6997,10.7123,10.7311,10.7552,10.7948,10.8173,10.8251,10.8574,10.8773,10.879,10.8845,10.8862,10.8862,10.8862,10.8862,10.8862,10.8862,10.8862,10.8862,10.8862,10.8862,10.8807,10.8738,10.8666,10.8648,10.8718,10.8773,10.8862,10.8824,10.8824,10.8862,10.8862,10.8862,10.8862,10.8841,10.8841,10.8824,10.8448,10.8523,10.8427,10.7487,10.6999,10.6322,10.4066,10.2637,10.1698,10.1171,10.072,9.9968,9.9743,9.9351,9.9013,9.9028,9.8998,9.9094,9.9188,9.9229,9.9246,9.9308,9.9383,9.9479,9.9488,9.955,9.9545,9.9416,9.9453,9.9447,9.8423,9.7121,9.7104,9.7635,9.8343,9.9155,10.0262,10.053,10.0113,10.017,10.0529,10.0342,9.9924,9.9925,11.4059,11.4027,11.3197,11.2872,11.2764,11.1969,11.1644,11.1464,11.0778,11.0525,11.0344,10.9839,10.8936,10.8142,10.807,10.76,10.6842,10.5939,10.5253,10.4784,10.4603,10.4603,10.4603,10.4603,10.4603,10.4603,10.4603,10.4603,10.4641,10.4966,10.5309,10.5674,10.5569,10.597,10.6615,10.6474,10.6596,10.6915,10.7347,10.7552,10.7682,10.8132,10.8464,10.8482,10.8738,10.8862,10.8807,10.8862,10.8862,10.8701,10.833,10.8012,10.8049,10.8012,10.8012,10.8012,10.8012,10.8049,10.8012,10.8033,10.8061,10.8426,10.8426,10.8574,10.879,10.8862,10.8862,10.8862,10.8711,10.839,10.7675,10.7036,10.6284,10.6096,10.557,10.5194,10.463,10.2224,10.0156,9.9931,9.9464,9.9088,9.8938,9.9163,9.8975,9.8975,9.8953,9.8953,9.905,9.9065,9.9094,9.9137,9.9192,9.9282,9.9308,9.9383,9.945,9.9118,9.8665,9.8311,9.7863,9.636,9.4931,9.5304,9.5765,9.6743,9.8223,9.9144,9.9756,9.9702,9.9764,9.9743,9.9724,9.9739,9.9788,11.3414,11.3016,11.1753,11.1283,11.1067,10.9983,10.9514,10.9514,10.9117,10.89,10.8828,10.8467,10.7564,10.6445,10.6373,10.5795,10.4928,10.4784,10.4603,10.4603,10.4603,10.4603,10.4603,10.4603,10.4603,10.4603,10.4603,10.4603,10.4603,10.4678,10.4859,10.5245,10.5,10.514,10.605,10.5803,10.5857,10.6293,10.6726,10.6935,10.7057,10.7552,10.7905,10.7948,10.8271,10.8482,10.852,10.852,10.852,10.833,10.778,10.7433,10.7433,10.7384,10.7186,10.6912,10.679,10.658,10.6258,10.6094,10.6412,10.6524,10.6417,10.7065,10.7469,10.7226,10.7337,10.7632,10.7612,10.6898,10.6042,10.4743,10.448,10.4292,10.3841,10.3314,10.2562,10.057,9.9276,9.9088,9.9013,9.8938,9.8938,9.8938,9.8938,9.8938,9.8938,9.8938,9.8953,9.8953,9.9021,9.9065,9.9122,9.9178,9.9243,9.9308,9.898,9.8483,9.728,9.6463,9.5289,9.3919,9.3276,9.3391,9.4092,9.5611,9.7271,9.8272,9.9575,9.9612,9.9663,9.9632,9.9625,9.9659,9.9683,11.1175,10.9911,10.9731,10.9694,10.9658,10.9478,10.9117,10.9045,10.7817,10.7203,10.695,10.5759,10.5398,10.4856,10.5145,10.482,10.4603,10.4603,10.4603,10.4603,10.4603,10.4603,10.4603,10.4603,10.4603,10.4603,10.4603,10.4603,10.4603,10.4603,10.4641,10.4714,10.4678,10.4751,10.5002,10.5074,10.5075,10.5382,10.5993,10.6292,10.6498,10.6978,10.7335,10.7384,10.7552,10.7622,10.7598,10.7552,10.7295,10.7406,10.7384,10.6914,10.7013,10.715,10.6493,10.5367,10.4983,10.444,10.3387,10.3253,10.3174,10.3393,10.3342,10.3076,10.3598,10.3851,10.4017,10.4394,10.3833,10.419,10.4047,10.4088,10.3658,10.3239,10.2321,10.1058,9.984,9.9201,9.8938,9.8938,9.8938,9.8938,9.8938,9.8938,9.8938,9.8938,9.8938,9.8938,9.8938,9.8938,9.8953,9.8983,9.905,9.9108,9.9024,9.9027,9.8278,9.7347,9.5836,9.4636,9.3434,9.216,9.1525,9.2053,9.3714,9.523,9.6689,9.7992,9.918,9.9602,9.9609,9.9593,9.9534,9.9613,9.9181,11.0019,10.9369,10.8395,10.7961,10.7889,10.7023,10.6625,10.6481,10.5867,10.5578,10.547,10.482,10.4603,10.4603,10.4603,10.4603,10.4603,10.4603,10.4603,10.4603,10.4603,10.4603,10.4603,10.4603,10.4603,10.4603,10.4603,10.4603,10.4603,10.4603,10.4603,10.4603,10.4603,10.4603,10.4603,10.4714,10.4751,10.486,10.5214,10.555,10.5715,10.6345,10.6652,10.6882,10.716,10.7311,10.7286,10.7286,10.5989,10.401,10.3564,10.3585,10.3556,10.3585,10.329,10.271,10.2591,10.2334,10.1671,10.1524,10.1691,10.1885,10.2,10.2115,10.2249,10.2441,10.2464,10.2652,10.2764,10.2549,10.2281,10.211,10.1764,10.1226,10.0243,9.9496,9.9035,9.8907,9.8938,9.8938,9.8938,9.8938,9.8938,9.8938,9.8938,9.8922,9.8876,9.8907,9.8922,9.8938,9.8953,9.8953,9.9021,9.8246,9.7936,9.7654,9.7007,9.5739,9.4408,9.3401,9.1977,9.0328,9.0592,9.1773,9.3391,9.4971,9.6692,9.8203,9.8914,9.9204,9.9518,9.9552,9.9563,9.9554,9.8808,10.8539,10.8034,10.6842,10.6336,10.612,10.5145,10.4639,10.4603,10.4639,10.4712,10.4603,10.4603,10.4603,10.4603,10.4603,10.4603,10.4603,10.4603,10.4603,10.4603,10.4603,10.4603,10.4603,10.4603,10.4603,10.4603,10.4603,10.4603,10.4603,10.4603,10.4603,10.4603,10.4603,10.4603,10.4603,10.4567,10.4603,10.464,10.4824,10.5075,10.5141,10.5341,10.5469,10.5548,10.5377,10.5341,10.5523,10.5533,10.3785,10.0899,10.0717,10.0745,10.1027,10.1027,10.0872,10.0465,10.0251,10.0111,9.9772,9.9584,9.9767,10.0178,9.9895,10.042,10.0756,10.0781,10.0856,10.0941,10.0965,10.0573,10.0053,9.9857,9.9565,9.8703,9.852,9.835,9.848,9.8586,9.8603,9.8603,9.8514,9.8496,9.8478,9.8534,9.8496,9.8514,9.862,9.8742,9.8742,9.8737,9.8487,9.8637,9.8096,9.7284,9.6547,9.6139,9.5378,9.4047,9.2819,9.1731,9.0514,8.9309,9.0212,9.1365,9.2783,9.4429,9.6263,9.7622,9.8124,9.8402,9.8339,9.7897,9.8287,9.8136,9.7177,10.619,10.4892,10.4784,10.4856,10.4784,10.4676,10.4603,10.4603,10.4603,10.4603,10.4603,10.4603,10.4603,10.4603,10.4603,10.4603,10.4603,10.4603,10.4603,10.4603,10.4603,10.4603,10.4603,10.4603,10.4603,10.4603,10.4603,10.4603,10.4603,10.4603,10.4603,10.4423,10.4351,10.4531,10.4134,10.4459,10.4206,10.4098,10.4498,10.4606,10.4605,10.3761,10.3063,10.3094,10.2024,10.1497,10.1592,10.1273,10.0761,10.0524,10.0125,10.0015,10.0343,10.0488,9.9645,9.8541,9.8468,9.7876,9.687,9.6937,9.6924,9.7081,9.711,9.6546,9.7155,9.7454,9.7522,9.7684,9.7626,9.7573,9.7873,9.7913,9.7876,9.7661,9.7638,9.7638,9.7661,9.7727,9.7814,9.7771,9.7683,9.7683,9.7792,9.7792,9.7771,9.7835,9.814,9.8183,9.8201,9.8003,9.7937,9.7404,9.6644,9.5689,9.4366,9.3947,9.3322,9.1993,9.0686,8.996,8.9178,8.901,8.9592,9.0765,9.2084,9.3805,9.5312,9.6078,9.6705,9.6778,9.6479,9.6015,9.5662,9.5261,9.4632,10.4231,10.3844,10.4307,10.4603,10.4603,10.4603,10.4603,10.4603,10.4603,10.4603,10.4603,10.4567,10.4603,10.4603,10.4603,10.4603,10.4603,10.4603,10.4603,10.4603,10.4603,10.4603,10.4603,10.4603,10.4603,10.4603,10.4567,10.4603,10.4603,10.4567,10.4062,10.3267,10.3123,10.269,10.1751,10.1642,10.1642,10.1679,10.1823,10.1857,10.1782,10.1415,10.1228,10.1293,10.0782,10.0561,10.0376,9.8259,9.7214,9.7378,9.7349,9.7346,9.7443,9.7516,9.7258,9.6708,9.6631,9.6512,9.6091,9.6012,9.6043,9.617,9.6237,9.6237,9.6237,9.6237,9.6261,9.6423,9.6407,9.6624,9.6991,9.7081,9.6977,9.676,9.6988,9.7093,9.7167,9.7385,9.7548,9.7525,9.7525,9.7571,9.7571,9.7571,9.7571,9.7593,9.7749,9.7708,9.6731,9.6781,9.5916,9.5141,9.4708,9.3809,9.2481,9.174,9.1169,9.0052,8.8861,8.858,8.8496,8.86,8.8739,8.9892,9.1171,9.2877,9.4207,9.4893,9.4819,9.4666,9.4453,9.3803,9.3083,9.2594,9.1605,10.2724,10.285,10.3419,10.3658,10.3658,10.3694,10.3658,10.3658,10.3658,10.3851,10.4116,10.4154,10.4343,10.4529,10.4603,10.4603,10.4458,10.3188,10.2865,10.3014,10.3051,10.3015,10.3051,10.3087,10.3123,10.3159,10.3123,10.3123,10.3051,10.3087,10.2653,10.1715,10.1498,10.092,10.009,9.9909,9.9909,9.9909,9.9909,9.9944,9.9976,9.9577,9.932,9.9455,9.902,9.8803,9.8658,9.6398,9.5241,9.5507,9.534,9.534,9.5438,9.5435,9.5503,9.5568,9.5568,9.5632,9.5754,9.5816,9.5945,9.6073,9.617,9.6237,9.6237,9.6237,9.6201,9.6201,9.6201,9.6276,9.654,9.6614,9.6549,9.6224,9.6472,9.6651,9.6642,9.6899,9.7167,9.7155,9.713,9.7155,9.7093,9.6391,9.6168,9.6156,9.5835,9.5421,9.4586,9.4613,9.422,9.2858,9.2541,9.1925,9.0693,8.978,8.931,8.8519,8.7992,8.7786,8.7947,8.8101,8.8176,8.89,9.028,9.1705,9.2996,9.3397,9.2832,9.2539,9.1643,9.101,9.06,8.9589,8.8274,10.1661,10.1706,10.167,10.1883,10.1971,10.1971,10.1795,10.1927,10.1883,10.2334,10.2854,10.3145,10.3256,10.4053,10.3692,10.4275,10.3509,10.0818,9.9639,10.0127,10.0199,10.0199,10.0271,10.0379,10.0451,10.0271,10.009,10.009,10.0127,10.0163,9.9983,9.9839,9.9659,9.937,9.9694,9.9262,9.9514,9.9405,9.9369,9.9584,9.9657,9.8211,9.7452,9.7308,9.6188,9.5502,9.5357,9.5143,9.5071,9.5068,9.5071,9.5035,9.5105,9.5105,9.5208,9.5376,9.5409,9.5507,9.5632,9.5759,9.5785,9.5878,9.6073,9.617,9.617,9.617,9.617,9.6237,9.6237,9.6201,9.6224,9.629,9.6261,9.6237,9.6261,9.6283,9.629,9.6261,9.6261,9.6313,9.6116,9.6224,9.5859,9.4864,9.397,9.3797,9.3298,9.2587,9.2268,9.25,9.2023,9.0914,9.0319,8.9927,8.8887,8.786,8.7568,8.7345,8.7252,8.7206,8.739,8.748,8.759,8.7918,8.9294,9.0003,9.129,9.0525,9.0147,8.9566,8.8393,8.7478,8.6621,8.5638,8.4544,10.0192,10.0763,10.139,10.1706,10.1706,10.1706,10.1706,10.1706,10.167,10.1275,10.0759,10.0739,10.0229,9.9632,9.9572,10.01,10.0906,9.9875,9.8776,9.8185,9.8696,9.8996,9.9108,9.9623,9.9623,9.9072,9.8996,9.8618,9.8114,9.8074,9.7505,9.6581,9.647,9.5973,9.5162,9.5548,9.5807,9.5953,9.6345,9.666,9.6587,9.6046,9.5829,9.5721,9.5324,9.5035,9.5035,9.5035,9.5035,9.5035,9.5035,9.5035,9.5035,9.5035,9.5105,9.5138,9.5208,9.5274,9.5475,9.554,9.56,9.5727,9.579,9.5852,9.5945,9.5945,9.6037,9.617,9.6237,9.6237,9.6237,9.6201,9.6237,9.6237,9.6237,9.6237,9.6237,9.6201,9.6164,9.6018,9.5215,9.4595,9.4339,9.3026,9.2296,9.2077,9.189,9.1032,9.0233,9.0252,9.0036,8.8521,8.8263,8.7967,8.7612,8.7219,8.694,8.6865,8.6814,8.6737,8.6814,8.6839,8.699,8.7326,8.7887,8.8537,8.8374,8.7553,8.697,8.6475,8.5455,8.4377,8.324,8.1881,8.2033,9.8996,9.9695,10.038,10.0668,10.0668,10.0668,10.0668,10.0668,10.0633,10.0346,9.9854,9.9795,9.9424,9.8607,9.5889,9.5258,9.6432,9.6511,9.6159,9.5662,9.6084,9.6435,9.6439,9.6975,9.6901,9.6439,9.6399,9.6084,9.5556,9.5514,9.5021,9.4134,9.3993,9.3571,9.2842,9.3139,9.3373,9.3488,9.4194,9.4622,9.473,9.4935,9.4762,9.4159,9.4159,9.4159,9.4159,9.4123,9.4159,9.4123,9.4481,9.4622,9.4657,9.4865,9.5035,9.5035,9.5035,9.5105,9.5277,9.5376,9.5511,9.5536,9.5564,9.5659,9.5754,9.5785,9.5852,9.5982,9.6043,9.6079,9.6012,9.5982,9.6012,9.6073,9.6073,9.614,9.6097,9.5653,9.5325,9.5069,9.3901,9.288,9.2588,9.1456,9.0507,9.0434,8.996,8.9121,8.829,8.8259,8.8188,8.716,8.6867,8.6867,8.6867,8.6643,8.6466,8.6466,8.6493,8.652,8.652,8.6627,8.658,8.6903,8.694,8.7321,8.6437,8.5556,8.487,8.4113,8.2499,8.1499,8.0811,7.9762,7.9724,9.8128,9.8416,9.8784,9.8994,9.8889,9.8942,9.8942,9.8825,9.8823,9.9134,9.9465,9.9583,10.0332,10.0316,9.3724,9.0606,9.1316,9.1683,9.2056,9.2501,9.2638,9.2538,9.2503,9.2509,9.2655,9.2896,9.2925,9.2702,9.2549,9.2485,9.2427,9.2415,9.2402,9.2415,9.2303,9.2386,9.2468,9.2549,9.3373,9.3825,9.3937,9.4481,9.4087,9.2831,9.259,9.2671,9.263,9.259,9.259,9.259,9.3373,9.3825,9.3864,9.4517,9.4831,9.4865,9.4865,9.4865,9.4865,9.5107,9.5313,9.5343,9.5438,9.5596,9.5632,9.5632,9.5664,9.5627,9.5691,9.545,9.5145,9.4967,9.5201,9.5177,9.5385,9.5539,9.5806,9.4339,9.3682,9.3354,9.2442,9.1602,9.1237,8.9777,8.8902,8.85,8.7515,8.6685,8.6748,8.6675,8.6693,8.6583,8.6547,8.6493,8.6493,8.6466,8.6466,8.6466,8.6466,8.6493,8.6493,8.6466,8.6383,8.6374,8.6198,8.5577,8.4512,8.3709,8.3103,8.1723,8.0151,7.9376,7.923,7.7868,7.7563,9.8053,9.8073,9.8161,9.8216,9.8216,9.8216,9.7712,9.7041,9.6939,9.5938,9.449,9.4352,9.4999,9.5651,9.4038,9.2572,9.1939,9.185,9.1443,9.0655,9.1236,9.1498,9.1585,9.2144,9.222,9.1663,9.1577,9.1192,9.0586,9.054,9.0575,9.054,9.054,9.054,9.0586,9.1271,9.1577,9.162,9.2427,9.2906,9.2906,9.3108,9.299,9.259,9.2549,9.2549,9.2549,9.2549,9.2549,9.2549,9.2751,9.2906,9.2906,9.3108,9.3225,9.3225,9.3189,9.3225,9.3225,9.3901,9.4338,9.4374,9.4865,9.5307,9.5442,9.5475,9.554,9.5391,9.4963,9.3692,9.2475,9.2545,9.2453,9.1503,9.2079,9.2462,9.2594,9.2311,9.2004,9.2004,9.1391,9.0945,8.9631,8.8217,8.7232,8.7296,8.6794,8.6466,8.6466,8.6466,8.6466,8.6466,8.6502,8.6466,8.6466,8.6466,8.6466,8.6466,8.6466,8.6466,8.6466,8.6466,8.6393,8.5044,8.487,8.4167,8.2729,8.2182,8.1734,7.9835,7.8225,7.7286,7.7623,7.7406,7.6871,9.7387,9.6923,9.6957,9.6639,9.6172,9.6172,9.5771,9.5097,9.5115,9.4217,9.2637,9.1345,9.1212,9.1892,9.2061,9.1735,9.1017,9.0982,9.0554,8.9915,9.0344,9.0621,9.0632,9.1182,9.1182,9.0667,9.0586,9.0378,8.9894,8.9833,8.9833,8.9833,8.9833,8.9833,8.9881,9.0309,9.0586,9.0632,9.1498,9.18,9.1455,9.1411,9.1446,9.1446,9.1446,9.1168,9.0655,9.0507,9.0272,8.9645,8.9913,9.0156,9.0156,9.0487,9.0648,9.0723,9.0723,9.0723,9.0687,9.1153,9.1491,9.1529,9.1938,9.2261,9.2438,9.3328,9.3397,9.272,9.2011,9.114,8.9876,9.0037,9.0046,8.9402,8.9868,9.0562,9.065,9.0408,9.0153,9.003,8.9599,8.8846,8.7758,8.6903,8.6539,8.6466,8.6466,8.6466,8.6466,8.6466,8.6466,8.6502,8.6301,8.6181,8.6181,8.6329,8.6466,8.6466,8.6466,8.6356,8.6128,8.5817,8.4888,8.3784,8.3206,8.2261,8.0688,8.0298,7.9835,7.8208,7.66,7.6042,7.637,7.6421,7.6202,9.6139,9.5303,9.5202,9.4467,9.3564,9.3497,9.3448,9.3245,9.3245,9.3211,9.2568,9.0185,8.9036,8.8969,8.9154,8.9302,8.9465,8.9363,8.9543,8.9703,8.9703,8.9737,8.9751,8.9751,8.9751,8.9833,8.9799,8.9799,8.9833,8.9833,8.9833,8.9833,8.9833,8.9833,8.9833,8.9833,8.9833,8.9799,9.0356,9.0219,8.9437,8.9389,8.9355,8.9389,8.9403,8.8741,8.7665,8.7458,8.6775,8.557,8.6265,8.6624,8.6708,8.7374,8.7851,8.7812,8.7812,8.7816,8.7816,8.7894,8.8038,8.7932,8.8189,8.8304,8.8378,8.9894,8.9929,8.8333,8.7858,8.7964,8.7679,8.7647,8.7625,8.7356,8.8122,8.9002,8.9011,8.868,8.8123,8.7751,8.7071,8.6217,8.6018,8.614,8.6384,8.6356,8.6329,8.6329,8.6217,8.6181,8.6181,8.6125,8.5917,8.5617,8.5712,8.6068,8.6007,8.5909,8.6037,8.5478,8.4677,8.3794,8.2795,8.1833,8.1285,8.0183,7.8907,7.8256,7.7731,7.6466,7.5976,7.56,7.5543,7.5656,7.5485,9.3559,9.3365,9.3332,9.3197,9.2882,9.2882,9.2316,9.1549,9.1534,9.0772,8.9474,8.8989,8.8753,8.8719,8.8919,8.9068,8.9118,8.9118,8.9118,8.9216,8.9216,8.925,8.9216,8.9167,8.9314,8.9461,8.9543,8.9572,8.9751,8.9833,8.9833,8.9833,8.9833,8.9833,8.9833,8.9833,8.9833,8.9662,8.7677,8.6526,8.6332,8.6332,8.6332,8.6332,8.6366,8.6195,8.5888,8.5854,8.5684,8.5388,8.5534,8.5668,8.5634,8.589,8.5943,8.5987,8.5987,8.5987,8.5987,8.6562,8.7013,8.6979,8.7659,8.8013,8.7904,8.6851,8.551,8.4687,8.5876,8.6098,8.4737,8.4787,8.4709,8.3609,8.4201,8.4782,8.4923,8.5188,8.5306,8.5238,8.528,8.5252,8.5288,8.5593,8.5859,8.5859,8.5888,8.5742,8.5375,8.5283,8.5122,8.4933,8.4736,8.4736,8.5096,8.5185,8.4737,8.3584,8.3506,8.3007,8.201,8.1375,8.056,7.9428,7.884,7.8035,7.6704,7.6344,7.6023,7.5506,7.5428,7.5428,7.5134,7.5311,7.5311,9.2299,9.1782,9.1729,9.1293,9.069,9.0657,9.0293,8.9642,8.8332,8.7207,8.6285,8.6434,8.6518,8.6534,8.6633,8.678,8.6927,8.6927,8.6942,8.7072,8.7038,8.7038,8.7072,8.7038,8.7135,8.7231,8.7279,8.7327,8.747,8.747,8.747,8.747,8.747,8.7891,8.8599,8.8776,8.881,8.8741,8.559,8.4122,8.4407,8.4488,8.4407,8.4454,8.5046,8.5035,8.4387,8.4353,8.4012,8.3329,8.3295,8.3295,8.3295,8.3295,8.3295,8.3295,8.3295,8.3295,8.3295,8.3742,8.4008,8.4008,8.4476,8.4727,8.4803,8.3514,8.2599,8.2222,8.2575,8.2488,8.13,8.0886,8.0385,7.949,8.0218,8.0708,8.0854,8.1455,8.2047,8.2619,8.3068,8.3487,8.3997,8.454,8.4865,8.4829,8.4829,8.4769,8.4474,8.4069,8.3612,8.3433,8.3577,8.3577,8.3074,8.3135,8.2655,8.1291,8.1167,8.0809,7.9982,7.9142,7.8509,7.7569,7.6836,7.6211,7.5532,7.5282,7.5193,7.4852,7.4983,7.4897,7.4712,7.4774,7.4645,9.0198,8.9184,8.9184,8.8469,8.7437,8.7404,8.7506,8.7441,8.5148,8.4163,8.4361,8.4493,8.4557,8.4591,8.4557,8.4688,8.4897,8.4897,8.5075,0.0,8.5232,8.5232,8.5232,8.5232,8.5178,8.4975,8.4847,8.4745,8.4718,8.4448,8.4414,8.4751,8.459,8.5327,8.6811,8.7088,8.6905,8.6397,8.3164,8.1849,8.2613,8.2613,8.258,8.2662,8.3812,8.39,8.2698,8.2763,8.2183,8.0724,8.0578,8.0544,8.0535,8.0559,8.0656,8.0709,8.082,8.0829,8.082,8.0829,8.0872,8.0872,8.0872,8.0667,8.0249,8.0258,8.0326,8.0497,7.9584,7.8798,7.8935,7.8074,7.7535,7.7337,7.7734,7.7961,7.8116,7.8743,7.9484,8.011,8.0576,8.1351,8.2328,8.2974,8.3364,8.3613,8.3825,8.3684,8.3541,8.2724,8.209,8.1922,8.2036,8.1573,8.071,8.0681,8.0184,7.8834,7.8852,7.8713,7.7891,7.7037,7.6433,7.6106,7.5281,7.4755,7.4707,7.4672,7.4672,7.4738,7.4523,7.4369,7.4337,7.4004,7.3666,8.2453,8.2258,8.2225,8.2664,8.3251,8.3251,8.3828,8.4711,0.0,0.0,0.0,8.7082,8.7474,8.7474,8.7474,8.7525,8.7576,8.7576,8.7576,8.7626,8.7593,8.7626,8.7626,8.7626,8.7105,8.6207,8.5248,8.4746,8.4671,8.2798,8.2848,8.4495,8.3737,8.3968,8.5056,8.4853,8.3292,8.0688,7.8688,7.8102,7.8713,7.8762,7.8762,7.8762,8.0024,8.0384,7.9727,8.0688,8.0675,7.9358,7.9245,7.9174,7.8955,7.8908,7.9312,8.0148,8.0369,8.0569,8.0569,8.0709,8.0872,8.0872,8.0872,7.9814,7.7392,7.718,7.7699,7.9003,7.8867,7.9208,8.0326,8.0156,8.0053,8.0087,8.0215,7.9691,7.8753,7.895,7.8785,7.7843,7.8223,7.8932,8.0347,8.0981,8.1628,8.2787,8.3064,8.3173,8.2989,8.1837,8.0612,7.9868,7.9074,7.8266,7.8223,7.8342,7.775,7.6393,7.6114,7.5661,7.4544,7.3951,7.3812,7.3881,7.3603,7.36,7.3769,7.3869,7.3971,7.4302,7.4269,7.4272,7.4174,7.3185,7.2364,8.1955,0.0,8.2544,8.2879,0.0,8.3407,8.2492,8.1029,8.0528,8.069,8.1313,8.1892,8.2151,8.2151,8.2151,8.2151,8.2151,8.2184,8.2151,8.2151,8.2151,8.2151,8.2151,8.2151,8.184,8.1268,8.0725,8.0383,8.0362,7.9221,7.9305,8.0379,7.9846,8.0309,8.1636,8.1437,7.9694,7.639,7.561,7.559,7.6268,7.6268,7.6287,7.6287,0.0,0.0,0.0,0.0,0.0,0.0,0.0,0.0,0.0,0.0,0.0,7.6365,7.6581,7.6627,7.6627,7.6763,7.7077,7.763,7.7751,7.7065,7.5647,7.5326,7.5313,7.5427,7.4619,7.4696,7.6095,7.5617,7.5788,7.7255,7.7426,7.7528,7.7569,7.7733,7.7787,7.7758,7.7369,7.7935,8.0103,8.0046,8.0308,8.1658,8.1929,8.1929,8.171,8.0035,7.8457,7.7883,7.7101,7.6495,7.6004,7.5875,7.5359,7.4122,7.382,7.3586,7.2931,7.2684,7.272,7.2972,7.2793,7.2758,7.3219,7.3359,7.3359,7.3324,7.3289,7.315,7.2654,7.1924,7.139,8.2119,8.3083,8.3051,8.32,8.3374,8.311,8.1047,7.7824,7.6771,7.6453,7.6698,7.6877,7.7014,7.6982,7.7035,7.7035,7.6982,7.6982,7.7035,7.6982,7.6982,7.7035,7.6982,7.6982,7.6745,7.6261,7.5969,7.5764,7.5405,7.4991,7.4959,7.5405,7.5198,7.5868,7.7399,0.0,0.0,0.0,7.3121,7.3518,7.4224,7.4499,7.4602,7.4657,7.5893,0.0,7.6072,7.6293,7.5693,7.4181,7.4083,0.0,0.0,0.0,0.0,0.0,0.0,0.0,0.0,0.0,0.0,0.0,7.3572,7.3318,7.3757,7.3279,7.2673,7.2006,7.102,7.0901,7.1905,7.1033,7.128,7.3365,7.3638,7.4013,7.4929,7.5378,7.589,7.6886,7.6129,7.6539,7.8833,7.8586,7.8389,7.966,8.0019,8.0019,7.9959,7.7979,7.6361,7.5986,7.5965,7.5304,7.3719,7.3475,7.3033,7.1968,7.1902,7.2126,7.1978,7.1757,7.1875,7.2213,7.2136,7.2057,7.2432,7.2686,7.2579,7.2142,7.2104,7.1773,7.0891,7.0612,7.0362,7.764,7.7735,7.7826,7.8335,7.9191,7.8007,7.7215,7.6962,7.6776,7.7335,7.8489,7.9455,7.9924,7.9892,7.9924,7.9924,7.9946,7.9924,7.9892,7.9892,7.9892,7.9946,7.9924,7.9892,7.8688,7.6365,7.5335,7.4061,7.2589,7.0735,7.0735,7.2507,7.1641,7.1705,7.2846,7.2147,7.1553,7.1102,7.112,7.1405,7.2098,7.3275,7.3837,7.3893,7.5111,7.5002,7.3488,7.4465,7.3886,7.1469,7.1272,7.1076,7.0746,7.0714,7.115,0.0,7.2429,0.0,0.0,0.0,0.0,0.0,0.0,0.0,0.0,6.9636,6.946,7.0646,7.2432,7.318,7.2348,7.3054,7.316,7.2346,7.2209,7.1693,7.0666,7.1659,7.2034,7.0874,7.1795,7.3058,7.4798,7.4798,7.5276,7.6702,7.6866,7.6654,7.6832,7.6389,7.5496,7.4525,7.4389,7.3594,7.1939,7.1413,7.115,7.0432,7.0693,7.0921,7.0373,7.0174,7.0174,7.0265,7.0733,7.1008,7.0787,7.1336,7.1535,7.12,7.1049,7.0772,7.0066,6.9405,6.9167,7.5656,7.6297,7.6389,7.6236,7.5828,7.4645,7.4647,7.541,7.4854,7.4929,7.551,7.6051,7.627,7.627,7.627,7.627,7.627,7.627,7.627,7.627,7.627,7.627,7.627,7.627,7.5641,7.4446,7.3924,7.33,7.2524,7.154,7.1627,7.2546,7.2028,7.0254,6.7465,6.8078,6.8924,6.9692,7.0429,7.1279,7.2331,7.2944,7.2882,7.2115,7.2604,7.2222,7.0695,7.1175,7.0567,6.8659,6.8482,6.8087,6.7331,6.6741,6.6918,0.0,0.0,0.0,0.0,0.0,0.0,0.0,0.0,0.0,0.0,0.0,6.7595,6.874,6.9691,6.9794,6.8933,6.9915,7.1002,7.2054,7.1827,7.1749,7.2021,7.241,7.2161,7.1007,7.0738,7.1181,7.2648,7.2926,7.3399,7.4861,7.2404,7.1023,7.2287,7.2093,7.1689,7.1682,7.1715,7.1324,7.0466,7.0324,7.0166,6.9882,7.005,7.0208,6.984,6.95,6.9362,6.9713,6.978,6.978,7.005,7.0381,7.0455,7.005,6.9595,6.9156,6.875,6.799,6.7434,7.4347,7.4953,7.4177,7.3212,7.2258,7.1775,7.2283,7.3339,7.2872,7.2651,7.2651,7.2345,7.2076,7.1695,7.1128,7.0976,7.1384,7.1353,7.1556,7.1873,7.196,7.1903,7.196,7.193,7.1776,7.1381,7.1211,7.1089,7.0921,7.0752,7.0608,7.0638,7.1307,6.9084,6.4271,6.5348,6.6613,6.7734,6.8349,6.9353,7.072,7.1086,7.0781,6.9688,6.9658,6.9018,6.7795,6.7734,6.7009,6.567,6.5578,6.5122,6.4126,6.3426,0.0,0.0,0.0,0.0,0.0,0.0,0.0,0.0,0.0,6.5464,6.5822,0.0,6.5849,0.0,6.7364,6.6984,6.6203,6.6876,0.0,0.0,7.0019,7.0139,7.1628,7.1811,7.1508,7.0744,7.0049,6.9919,7.0775,7.073,7.085,7.1341,6.8128,6.6458,6.8411,6.7954,6.7729,6.8619,6.8818,6.8727,6.8469,6.8527,6.8418,6.8349,6.84,6.8575,6.8735,6.8391,6.8346,6.9123,6.9003,6.8992,6.9232,6.9458,6.9318,6.8605,6.7484,6.6609,6.6562,6.596,6.5379,7.3254,7.1985,6.879,6.7561,6.7882,6.9,6.9736,7.0432,7.1494,7.201,7.1919,7.0763,6.9547,6.8249,6.5939,0.0,6.6992,6.6992,6.7793,6.9108,6.9139,6.9108,6.9194,6.9139,6.8433,6.7173,6.642,6.5843,6.5463,6.4628,6.4166,6.4173,6.6667,6.7213,6.585,6.4811,6.4393,6.4541,6.3333,6.3452,6.4838,6.5995,6.6558,6.6469,6.6469,6.5846,6.4571,6.4541,6.3863,6.2479,6.239,6.2361,6.2272,0.0,0.0,0.0,0.0,0.0,0.0,0.0,0.0,0.0,0.0,0.0,0.0,0.0,0.0,0.0,6.7693,0.0,6.6224,6.6214,0.0,0.0,0.0,6.4617,6.5232,6.7068,6.793,6.7011,0.0,0.0,6.7939,6.73,6.627,6.4461,6.5073,6.576,6.5999,6.5919,6.5859,6.6006,6.6019,6.5753,6.5255,6.513,6.5027,6.4483,6.4542,6.5331,6.5919,6.5944,6.6557,6.7616,6.8425,6.8616,6.805,6.8348,6.838,6.6834,6.4764,6.3146,6.3319,6.3251,6.3164,6.8385,6.6244,6.491,6.4835,6.5662,6.5744,6.6752,6.8368,6.8395,6.8363,6.8363,6.7825,6.6916,6.5643,6.4609,0.0,0.0,0.0,6.5913,6.7405,6.7405,6.7883,6.8801,6.8801,6.8494,6.7972,6.7647,6.7372,6.7204,6.6822,6.4666,6.0883,0.0,0.0,6.1777,6.2965,6.354,6.3569,6.4148,6.4732,6.5321,6.5823,6.5705,6.4936,6.4907,6.423,6.2904,6.2845,6.2609,6.2053,6.1634,6.1468,0.0,0.0,0.0,0.0,0.0,0.0,0.0,0.0,0.0,0.0,0.0,6.0799,0.0,0.0,0.0,0.0,6.3548,6.3424,6.3381,6.5139,0.0,0.0,0.0,0.0,0.0,0.0,0.0,6.612,6.6364,6.599,6.4628,6.4884,6.5004,6.4195,6.3543,6.3346,6.3973,0.0,6.2971,6.3557,6.361,6.3524,6.3187,6.3413,6.3364,6.2815,6.3175,6.377,6.4329,6.4437,6.441,6.4532,6.5097,6.5666,6.5731,6.6009,6.5983,6.534,6.4405,6.3784,6.3753,6.3306,6.279,6.3222,0.0,0.0,0.0,0.0,6.2819,6.3807,6.5519,6.5325,6.5269,6.524,6.483,0.0,0.0,0.0,0.0,0.0,0.0,6.3192,6.4591,6.4649,6.5218,6.6285,6.648,6.6565,6.6565,6.651,6.651,6.6565,6.6425,6.3792,5.8983,0.0,0.0,0.0,0.0,6.1837,6.1924,6.3198,6.3954,6.3954,6.372,6.3227,6.23,6.2444,6.2122,6.1332,6.0796,6.0712,6.0967,6.0086,0.0,0.0,0.0,0.0,0.0,0.0,0.0,0.0,0.0,0.0,0.0,0.0,0.0,0.0,0.0,0.0,0.0,0.0,0.0,6.1652,6.352,6.471,0.0,0.0,0.0,0.0,0.0,0.0,0.0,0.0,0.0,6.2515,6.3309,6.3986,0.0,0.0,6.1742,6.204,6.1374,6.0854,6.1135,0.0,0.0,0.0,6.1415,6.1302,6.0908,6.0884,6.1232,6.2286,6.2929,6.3128,6.289,6.3372,6.3684,6.3512,6.3434,6.3632,6.3946,6.3505,6.3076,6.3024,6.2424,6.1866,0.0,0.0,0.0,0.0,0.0,0.0,0.0,0.0,6.2739,6.3164,0.0,6.1946,0.0,0.0,0.0,0.0,0.0,5.8168,0.0,0.0,6.0372,6.0286,6.0457,6.1081,6.1332,6.1276,6.1253,6.1226,6.125,6.0628,0.0,0.0,0.0,0.0,0.0,0.0,5.8646,5.8674,5.8817,5.8789,5.8789,5.8251,5.7834,5.7867,5.8408,5.8974,5.9477,5.8062,5.7582,5.8591,5.7035,0.0,0.0,0.0,0.0,0.0,0.0,0.0,0.0,0.0,0.0,0.0,0.0,0.0,0.0,0.0,0.0,0.0,0.0,0.0,0.0,6.1035,0.0,0.0,0.0,0.0,0.0,0.0,0.0,0.0,0.0,0.0,6.2302,6.2542,6.2646,6.2197,0.0,0.0,0.0,0.0,6.0223,5.902,5.922,5.9554,5.9603,5.8556,5.7787,5.7761,0.0,0.0,5.941,6.1228,6.2712,6.3826,6.4082,6.3806,6.1574,6.1121,6.1487,6.2677,6.1271,5.9609,5.9468,5.953,5.9417,0.0,0.0,0.0,0.0,0.0,0.0,0.0,0.0,0.0,5.9404,0.0,5.8901,0.0,0.0,0.0,0.0,0.0,0.0,0.0,0.0,5.8661,5.9133,6.0114,6.0285,6.0427,0.0,6.0313,5.8901,0.0,0.0,0.0,0.0,0.0,0.0,0.0,0.0,5.6599,5.7239,5.7664,5.7872,5.7872,5.7664,5.7543,5.7543,5.7751,5.7636,5.7218,5.6668,5.6483,0.0,0.0,0.0,0.0,0.0,0.0,0.0,0.0,0.0,0.0,0.0,0.0,0.0,0.0,0.0,0.0,0.0,0.0,0.0,0.0,0.0,0.0,0.0,5.7838,0.0,0.0,0.0,0.0,0.0,0.0,0.0,0.0,0.0,6.1902,6.2694,6.2869,6.1915,6.178,6.1142,5.941,0.0,0.0,0.0,0.0,0.0,0.0,0.0,5.8242,5.7957,5.8054,5.8423,5.8978,5.9966,6.068,6.0518,0.0,0.0,6.0788,6.061,6.0726,6.1247,6.065,5.9568,5.7951,5.7613,5.719,0.0,0.0,0.0,0.0,0.0,0.0,0.0,0.0,0.0,5.4022,5.4048,0.0,0.0,0.0,0.0,0.0,0.0,0.0,0.0,0.0,0.0,0.0,5.7515,5.7722,0.0,0.0,0.0,0.0,0.0,0.0,0.0,0.0,0.0,0.0,0.0,0.0,5.5364,5.6042,5.681,5.7055,5.6722,5.6475,5.6201,5.5864,5.6077,5.5864,5.5149,0.0,0.0,0.0,0.0,0.0,0.0,0.0,0.0,0.0,0.0,0.0,0.0,0.0,0.0,0.0,0.0,0.0,0.0,0.0,0.0,0.0,0.0,0.0,0.0,0.0,5.5262,0.0,0.0,0.0,0.0,0.0,0.0,0.0,0.0,0.0,0.0,0.0,6.242,6.1847,6.1727,6.1091,5.9416,5.9314,5.9147,0.0,0.0,0.0,0.0,0.0,0.0,0.0,0.0,0.0,0.0,0.0,0.0,0.0,0.0,5.901,5.9082,5.9449,5.971,5.971,0.0,0.0,0.0,0.0,0.0,0.0,0.0,0.0,0.0,0.0,0.0,0.0,0.0,0.0,0.0,0.0,0.0,0.0,4.8955,0.0,0.0,0.0,0.0,0.0,0.0,0.0,0.0,0.0,0.0,0.0,0.0,0.0,0.0,0.0,0.0,0.0,0.0,0.0,0.0,0.0,0.0,0.0,5.4959,5.5917,5.5979,5.4986,5.4376,5.3579,5.2693,5.31,5.3489,5.3464,0.0,0.0,0.0,0.0,0.0,0.0,0.0,0.0,0.0,0.0,0.0,0.0,0.0,0.0,0.0,0.0,0.0,0.0,0.0,0.0,0.0,0.0,0.0,0.0,0.0,0.0,5.3776,5.5735,5.7041,0.0,0.0,0.0,0.0,0.0,0.0,0.0,0.0,0.0,0.0,6.1913,6.1443,6.0124,6.0406,6.0138,5.8928,5.9087,5.9362,5.9392,5.8403,5.7158,0.0,0.0,0.0,0.0,0.0,0.0,0.0,0.0,0.0,0.0,0.0,0.0,0.0,0.0,0.0,0.0,0.0,0.0,0.0,0.0,0.0,0.0,0.0,0.0,0.0,0.0,0.0,0.0,0.0,0.0,0.0,0.0,0.0,0.0,0.0,0.0,0.0,0.0,0.0,0.0,0.0,0.0,0.0,0.0,0.0,0.0,0.0,0.0,0.0,0.0,0.0,0.0,0.0,0.0,5.2537,5.3281,5.354,5.3605,5.3255,5.3085,5.2824,5.2472,5.2693,5.2799,0.0,0.0,0.0,0.0,0.0,0.0,0.0,0.0,0.0,0.0,0.0,0.0,0.0,0.0,0.0,0.0,0.0,0.0,0.0,0.0,0.0,0.0,0.0,0.0,0.0,0.0,0.0,0.0,5.2953,5.4253,5.5988,0.0,0.0,0.0,0.0,0.0,0.0,0.0,0.0,0.0,0.0,5.9133,5.8041,5.8052,5.84,5.9113,5.8375,5.7795,5.8062,5.8583,5.8128,5.5832,0.0,0.0,0.0,0.0,0.0,0.0,0.0,0.0,0.0,0.0,0.0,0.0,0.0,0.0,0.0,0.0,0.0,0.0,0.0,0.0,0.0,0.0,0.0,0.0,0.0,0.0,0.0,0.0,0.0,0.0,0.0,0.0,0.0,0.0,0.0,0.0,0.0,0.0,0.0,0.0,0.0,0.0,0.0,0.0,0.0,0.0,0.0,0.0,0.0,0.0,0.0,0.0,0.0,5.1102,5.1455,5.2142,5.2299,5.1902,5.1902,5.1679,5.1212,5.1212,5.1078,0.0,0.0,0.0,0.0,0.0,0.0,0.0,0.0,0.0,0.0,0.0,0.0,0.0,0.0,0.0,0.0,0.0,0.0,0.0,0.0,0.0,0.0,0.0,0.0,0.0,0.0,0.0,0.0,5.117,5.2529,5.5467,0.0,0.0,0.0,0.0,0.0,0.0,0.0,0.0,0.0,0.0,5.6495,5.6249,5.6183,0.0,0.0,5.6271,5.5442,5.5495,5.6423,5.6396,5.4352,5.512,0.0,0.0,0.0,0.0,0.0,0.0,0.0,0.0,0.0,0.0,0.0,0.0,0.0,0.0,0.0,0.0,0.0,0.0,0.0,0.0,0.0,0.0,0.0,0.0,0.0,0.0,0.0,0.0,0.0,0.0,0.0,0.0,0.0,0.0,0.0,0.0,0.0,0.0,0.0,0.0,0.0,0.0,0.0,0.0,0.0,0.0,0.0,0.0,0.0,0.0,0.0,0.0,0.0,4.9815,5.1315,5.1671,5.0858,5.0767,5.0226,4.9065,4.911,4.8766,0.0,0.0,0.0,0.0,0.0,0.0,0.0,0.0,0.0,0.0,0.0,0.0,0.0,0.0,0.0,0.0,0.0,0.0,0.0,0.0,0.0,0.0,0.0,0.0,0.0,0.0,0.0,0.0,0.0,0.0,0.0,0.0,0.0,0.0,0.0,0.0,0.0,0.0,0.0,0.0,0.0,5.3721,5.4766,5.4869,5.4636,0.0,0.0,5.2703,5.2371,5.2909,5.3015,5.1975,0.0,0.0,0.0,0.0,0.0,0.0,0.0,0.0,0.0,0.0,0.0,0.0,0.0,0.0,0.0,0.0,0.0,0.0,0.0,0.0,0.0,0.0,0.0,0.0,0.0,0.0,0.0,0.0,0.0,0.0,0.0,0.0,0.0,0.0,0.0,0.0,0.0,0.0,0.0,0.0,0.0,0.0,0.0,0.0,0.0,0.0,0.0,0.0,0.0,0.0,0.0,0.0,0.0,0.0,4.9269,4.9037,4.9104,4.959,4.959,4.8904,4.7539,4.8535,0.0,0.0,0.0,0.0,0.0,0.0,0.0,0.0,0.0,0.0,0.0,0.0,0.0,0.0,0.0,0.0,0.0,0.0,0.0,0.0,0.0,0.0,0.0,0.0,0.0,0.0,0.0,4.4328,0.0,0.0,0.0,0.0,0.0,0.0,0.0,0.0,0.0,0.0,0.0,0.0,0.0,0.0,5.2489,5.353,5.3025,5.3233,0.0,0.0,5.2416,5.2331,5.3527,5.3707,0.0,0.0,0.0,0.0,0.0,0.0,0.0,0.0,0.0,0.0,0.0,0.0,0.0,0.0,0.0,0.0,0.0,0.0,0.0,0.0,0.0,0.0,0.0,0.0,0.0,0.0,0.0,0.0,0.0,0.0,0.0,0.0,0.0,0.0,0.0,0.0,0.0,0.0,0.0,0.0,0.0,0.0,0.0,0.0,0.0,0.0,0.0,0.0,0.0,0.0,0.0,0.0,0.0,0.0,4.6613,4.7067,4.6067,4.5706,4.6114,4.6136,4.5658,4.4649,4.576,4.4871,0.0,0.0,0.0,0.0,0.0,0.0,0.0,0.0,0.0,0.0,0.0,0.0,0.0,0.0,0.0,0.0,0.0,0.0,0.0,0.0,0.0,0.0,0.0,0.0,0.0,0.0,0.0,0.0,0.0,0.0,0.0,0.0,0.0,0.0,0.0,0.0,0.0,0.0,0.0,0.0,0.0,0.0,5.0967,5.0421,0.0,0.0,0.0,4.9101,4.8952,0.0,0.0,0.0,0.0,0.0,0.0,0.0,0.0,0.0,0.0,0.0,0.0,0.0,0.0,0.0,0.0,0.0,0.0,0.0,0.0,0.0,0.0,0.0,0.0,0.0,0.0,0.0,0.0,0.0,0.0,0.0,0.0,0.0,0.0,0.0,0.0,0.0,0.0,0.0,0.0,0.0,0.0,0.0,0.0,0.0,0.0,0.0,0.0,0.0,0.0,0.0,0.0,0.0,0.0,0.0,0.0,0.0,4.4224,4.313,4.2386,4.209,4.2136,4.1845,4.1302,4.2125,4.1549,0.0,0.0,0.0,0.0,0.0,0.0,0.0,0.0,0.0,0.0,0.0,0.0,0.0,0.0,0.0,0.0,0.0,0.0,0.0,0.0,0.0,0.0,0.0,0.0,0.0,0.0,0.0,0.0,0.0,0.0,0.0,0.0,0.0,0.0,0.0,0.0,0.0,0.0,0.0,0.0,0.0,4.626,4.7834,4.7502,4.7056,0.0,0.0,4.4976,4.4739,4.5665,0.0,0.0,0.0,0.0,0.0,0.0,0.0,0.0,0.0,0.0,0.0,0.0,0.0,0.0,0.0,0.0,0.0,0.0,0.0,0.0,0.0,0.0,0.0,0.0,0.0,0.0,0.0,0.0,0.0,0.0,0.0,0.0,0.0,0.0,0.0,0.0,0.0,0.0,0.0,0.0,0.0,0.0,0.0,0.0,0.0,0.0,0.0,0.0,0.0,0.0,0.0,0.0,0.0,0.0,0.0,0.0,4.3027,4.176,4.1293,4.1709,4.1709,4.094,3.9406,4.0969,3.9906,0.0,0.0,0.0,0.0,0.0,0.0,0.0,0.0,0.0,0.0,0.0,0.0,0.0,0.0,0.0,0.0,0.0,0.0,0.0,0.0,0.0,0.0,0.0,0.0,0.0,0.0,0.0,0.0,0.0,0.0,0.0,0.0,0.0,0.0,0.0,0.0,0.0,0.0,0.0,0.0,0.0,4.512,4.5906,4.5256,0.0,0.0,0.0,0.0,4.5793,4.7194,0.0,0.0,0.0,0.0,0.0,0.0,0.0,0.0,0.0,0.0,0.0,0.0,0.0,0.0,0.0,0.0,0.0,0.0,0.0,0.0,0.0,0.0,0.0,0.0,0.0,0.0,0.0,0.0,0.0,0.0,0.0,0.0,0.0,0.0,0.0,0.0,0.0,0.0,0.0,0.0,0.0,0.0,0.0,0.0,0.0,0.0,0.0,0.0,0.0,0.0,0.0,0.0,0.0,0.0,0.0,0.0,4.1197,3.9194,3.7964,3.7936,3.7916,3.7396,3.62,3.7514,3.6859,0.0,0.0,0.0,0.0,0.0,0.0,0.0,0.0,0.0,0.0,0.0,0.0,0.0,0.0,0.0,0.0,0.0,0.0,0.0,0.0,0.0,0.0,0.0,0.0,0.0,0.0,0.0,0.0,0.0,0.0,0.0,0.0,0.0,0.0,0.0,0.0,0.0,0.0,0.0,0.0,4.3462,4.3345,4.3945,0.0,0.0,0.0,0.0,0.0,0.0,4.4456,4.4692,0.0,0.0,0.0,0.0,0.0,0.0,0.0,0.0,0.0,0.0,0.0,0.0,0.0,0.0,0.0,0.0,0.0,0.0,0.0,0.0,0.0,0.0,0.0,0.0,0.0,0.0,0.0,0.0,0.0,0.0,0.0,0.0,0.0,0.0,0.0,0.0,0.0,0.0,0.0,0.0,0.0,0.0,0.0,0.0,0.0,0.0,0.0,0.0,0.0,0.0,0.0,0.0,0.0,0.0,0.0,3.9269,3.6446,3.4695,3.4094,3.4033,3.374,3.3405,3.4039,3.3801,3.2565,0.0,0.0,0.0,0.0,0.0,0.0,0.0,0.0,0.0,0.0,0.0,0.0,0.0,0.0,0.0,0.0,0.0,0.0,0.0,0.0,0.0,0.0,0.0,0.0,0.0,0.0,0.0,0.0,0.0,0.0,0.0,0.0,0.0,0.0,0.0,0.0,0.0,0.0,0.0,4.2353,4.1807,0.0,0.0,0.0,0.0,0.0,0.0,0.0,0.0,4.1382,0.0,0.0,0.0,0.0,0.0,0.0,0.0,0.0,0.0,0.0,0.0,0.0,0.0,0.0,0.0,0.0,0.0,0.0,0.0,0.0,0.0,0.0,0.0,0.0,0.0,0.0,0.0,0.0,0.0,0.0,0.0,0.0,0.0,0.0,0.0,0.0,0.0,0.0,0.0,0.0,0.0,0.0,0.0,0.0,0.0,0.0,0.0,0.0,0.0,0.0,0.0,0.0,0.0,0.0,0.0,0.0,3.4943,3.4352,3.4503,3.3885,3.3302,3.2984,3.3379,3.2821,3.1136,0.0,0.0,0.0,0.0,0.0,0.0,0.0,0.0,0.0,0.0,0.0,0.0,0.0,0.0,0.0,0.0,0.0,0.0,0.0,0.0,0.0,0.0,0.0,0.0,0.0,0.0,0.0,0.0,0.0,0.0,0.0,0.0,0.0,0.0,0.0,0.0,0.0,0.0,4.3148,4.3004,0.0,0.0,0.0,0.0,0.0,0.0,0.0,0.0,4.1586,0.0,0.0,0.0,0.0,0.0,0.0,0.0,0.0,0.0,0.0,0.0,0.0,0.0,0.0,0.0,0.0,0.0,0.0,0.0,0.0,0.0,0.0,0.0,0.0,0.0,0.0,0.0,0.0,0.0,0.0,0.0,0.0,0.0,0.0,0.0,0.0,0.0,0.0,0.0,0.0,0.0,0.0,0.0,0.0,0.0,0.0,0.0,0.0,0.0,0.0,0.0,0.0,0.0,0.0,0.0,0.0,0.0,0.0,3.4289,3.4287,3.3927,3.3464,3.2885,3.2291,3.117,0.0,0.0,0.0,0.0,0.0,0.0,0.0,0.0,0.0,0.0,0.0,0.0,0.0,0.0,0.0,0.0,0.0,0.0,0.0,0.0,0.0,0.0,0.0,0.0,0.0,0.0,0.0,0.0,0.0,0.0,0.0,0.0,0.0,0.0,0.0,0.0,0.0,0.0,0.0,0.0,0.0,0.0,0.0,0.0,0.0,0.0,0.0,0.0,0.0,0.0,0.0,0.0,0.0,0.0,0.0,0.0,0.0,0.0,0.0,0.0,0.0,0.0,0.0,0.0,0.0,0.0,0.0,0.0,0.0,0.0,0.0,0.0,0.0,0.0,0.0,0.0,0.0,0.0,0.0,0.0,0.0,0.0,0.0,0.0,0.0,0.0,0.0,0.0,0.0,0.0,0.0,0.0,0.0,0.0,0.0,0.0,0.0,0.0,0.0,0.0,0.0,0.0,0.0,0.0,0.0,0.0,0.0,0.0,3.4574,3.4275,3.4097,3.3651,3.2885,3.1477,2.9799,0.0,0.0,0.0,0.0,0.0,0.0,0.0,0.0,0.0,0.0,0.0,0.0,0.0,0.0,0.0,0.0,0.0,0.0,0.0,0.0,0.0,0.0,0.0,0.0,0.0,0.0,0.0,0.0,0.0,0.0,0.0,0.0,0.0,0.0,0.0,0.0,0.0,0.0,0.0,0.0,0.0,0.0,0.0,0.0,0.0,0.0,0.0,0.0,3.7405,0.0,0.0,0.0,0.0,0.0,0.0,0.0,0.0,0.0,0.0,0.0,0.0,0.0,0.0,0.0,0.0,0.0,0.0,0.0,0.0,0.0,0.0,0.0,0.0,0.0,0.0,0.0,0.0,0.0,0.0,0.0,0.0,0.0,0.0,0.0,0.0,0.0,0.0,0.0,0.0,0.0,0.0,0.0,0.0,0.0,0.0,0.0,0.0,0.0,0.0,0.0,0.0,0.0,0.0,0.0,0.0,0.0,0.0,0.0,3.5095,3.5005,3.4382,3.3651,3.2835,3.1477,2.923,0.0,0.0,0.0,0.0,0.0,0.0,0.0,0.0,0.0,0.0,0.0,0.0,0.0,0.0,0.0,0.0,0.0,0.0,0.0,0.0,0.0,0.0,0.0,0.0,0.0,0.0,0.0,0.0,0.0,0.0,0.0,0.0,0.0,0.0,0.0,0.0,0.0,0.0,0.0,0.0,0.0,0.0,0.0,0.0,0.0,0.0,0.0,0.0,0.0,0.0,0.0,0.0,0.0,0.0,0.0,0.0,0.0,0.0,0.0,0.0,0.0,0.0,0.0,0.0,0.0,0.0,0.0,0.0,0.0,0.0,0.0,0.0,0.0,0.0,0.0,0.0,0.0,0.0,0.0,0.0,0.0,0.0,0.0,0.0,0.0,0.0,0.0,0.0,0.0,0.0,0.0,0.0,0.0,0.0,0.0,0.0,0.0,0.0,0.0,0.0,0.0,0.0,0.0,0.0,0.0,0.0,0.0,0.0,3.4525,3.4525,3.4186,3.2716,3.0005,2.8521,2.7125,0.0,0.0,0.0,0.0,0.0,0.0,0.0,0.0,0.0,0.0,0.0,0.0,0.0,0.0,0.0,0.0,0.0,0.0,0.0,0.0,0.0,0.0,0.0,0.0,0.0,0.0,0.0,0.0,0.0,0.0,0.0,0.0,0.0,0.0,0.0,0.0,0.0,0.0,0.0,0.0,0.0,0.0,0.0,0.0,0.0,0.0,0.0,0.0,0.0,0.0,0.0,0.0,0.0,0.0,0.0,0.0,0.0,0.0,0.0,0.0,0.0,0.0,0.0,0.0,0.0,0.0,0.0,0.0,0.0,0.0,0.0,0.0,0.0,0.0,0.0,0.0,0.0,0.0,0.0,0.0,0.0,0.0,0.0,0.0,0.0,0.0,0.0,0.0,0.0,0.0,0.0,0.0,0.0,0.0,0.0,0.0,0.0,0.0,0.0,0.0,0.0,0.0,0.0,0.0,0.0,0.0,0.0,0.0,0.0,3.3291,3.3081,3.1156,2.7421,2.6211,2.5376,0.0,0.0,0.0,0.0,0.0,0.0,0.0,0.0,0.0,0.0,0.0,0.0,0.0,0.0,0.0,0.0,0.0,0.0,0.0,0.0,0.0,0.0,0.0,0.0,0.0,0.0,0.0,0.0,0.0,0.0,0.0,0.0,0.0,0.0,0.0,0.0,0.0,0.0,0.0,0.0,0.0,0.0,0.0,0.0,0.0,0.0,0.0,0.0,0.0,0.0,0.0,0.0,0.0,0.0,0.0,0.0,0.0,0.0,0.0,0.0,0.0,0.0,0.0,0.0,0.0,0.0,0.0,0.0,0.0,0.0,0.0,0.0,0.0,0.0,0.0,0.0,0.0,0.0,0.0,0.0,0.0,0.0,0.0,0.0,0.0,0.0,0.0,0.0,0.0,0.0,0.0,0.0,0.0,0.0,0.0,0.0,0.0,0.0,0.0,0.0,0.0,0.0,0.0,0.0,0.0,0.0,0.0,0.0,0.0,3.1476,3.0728,2.8915,2.5858,2.566,2.4665,0.0,0.0,0.0,0.0,0.0,0.0,0.0,0.0,0.0,0.0,0.0,0.0,0.0,0.0,0.0,0.0,0.0,0.0,0.0,0.0,0.0,0.0,0.0,0.0,0.0,0.0,0.0,0.0,0.0,0.0,0.0,0.0,0.0,0.0,0.0,0.0,0.0,0.0,0.0,0.0,0.0,0.0,0.0,0.0,0.0,0.0,0.0,0.0,0.0,0.0,0.0,0.0,0.0,0.0,0.0,0.0,0.0,0.0,0.0,0.0,0.0,0.0,0.0,0.0,0.0,0.0,0.0,0.0,0.0,0.0,0.0,0.0,0.0,0.0,0.0,0.0,0.0,0.0,0.0,0.0,0.0,0.0,0.0,0.0,0.0,0.0,0.0,0.0,0.0,0.0,0.0,0.0,0.0,0.0,0.0,0.0,0.0,0.0,0.0,0.0,0.0,0.0,0.0,0.0,0.0,0.0,0.0,0.0,0.0,3.0659,2.9342,2.767,2.5716,2.4464,2.339,2.2539,0.0,0.0,0.0,0.0,0.0,0.0,0.0,0.0,0.0,0.0,0.0,0.0,0.0,0.0,0.0,0.0,0.0,0.0,0.0,0.0,0.0,0.0,0.0,0.0,0.0,0.0,0.0,0.0,0.0,0.0,0.0,0.0,0.0,0.0,0.0,0.0,0.0,0.0,0.0,0.0,0.0,0.0,0.0,0.0,0.0,0.0,0.0,0.0,0.0,0.0,0.0,0.0,0.0,0.0,0.0,0.0,0.0,0.0,0.0,0.0,0.0,0.0,0.0,0.0,0.0,0.0,0.0,0.0,0.0,0.0,0.0,0.0,0.0,0.0,0.0,0.0,0.0,0.0,0.0,0.0,0.0,0.0,0.0,0.0,0.0,0.0,0.0,0.0,0.0,0.0,0.0,0.0,0.0,0.0,0.0,0.0,0.0,0.0,0.0,0.0,0.0,0.0,0.0,0.0,0.0,0.0,0.0,0.0,2.8452,2.7685,2.6422,2.4665,2.3247,2.2539,0.0,0.0,0.0,0.0,0.0,0.0,0.0,0.0,0.0,0.0,0.0,0.0,0.0,0.0,0.0,0.0,0.0,0.0,0.0,0.0,0.0,0.0,0.0,0.0,0.0,0.0,0.0,0.0,0.0,0.0,0.0,0.0,0.0,0.0,0.0,0.0,0.0,0.0,0.0,0.0,0.0,0.0,0.0,0.0,0.0,0.0,0.0,0.0,0.0,0.0,0.0,0.0,0.0,0.0,0.0,0.0,0.0,0.0,0.0,0.0,0.0,0.0,0.0,0.0,0.0,0.0,0.0,0.0,0.0,0.0,0.0,0.0,0.0,0.0,0.0,0.0,0.0,0.0,0.0,0.0,0.0,0.0,0.0,0.0,0.0,0.0,0.0,0.0,0.0,0.0,0.0,0.0,0.0,0.0,0.0,0.0,0.0,0.0,0.0,0.0,0.0,0.0,0.0,0.0,0.0,0.0,0.0,0.0,0.0,2.4919,2.5829,2.5106,2.2335,2.2262,2.2178,0.0,0.0,0.0,0.0,0.0,0.0,0.0,0.0,0.0,0.0,0.0,0.0,0.0,0.0,0.0,0.0,0.0,0.0,0.0,0.0,0.0,0.0,0.0,0.0,0.0,0.0,0.0,0.0,0.0,0.0,0.0,0.0,0.0,0.0,0.0,0.0,0.0,0.0,0.0,0.0,0.0,0.0,0.0,0.0,0.0,0.0,0.0,0.0,0.0,0.0,0.0,0.0,0.0,0.0,0.0,0.0,0.0,0.0,0.0,0.0,0.0,0.0,0.0,0.0,0.0,0.0,0.0,0.0,0.0,0.0,0.0,0.0,0.0,0.0,0.0,0.0,0.0,0.0,0.0,0.0,0.0,0.0,0.0,0.0,0.0,0.0,0.0,0.0,0.0,0.0,0.0,0.0,0.0,0.0,0.0,0.0,0.0,0.0,0.0,0.0,0.0,0.0,0.0,0.0,0.0,0.0,0.0,0.0,0.0,2.9331,0.0,2.5883,0.0,2.3449,2.2683,0.0,0.0,0.0,0.0,0.0,0.0,0.0,0.0,0.0,0.0,0.0,0.0,0.0,0.0,0.0,0.0,0.0,0.0,0.0,0.0,0.0,0.0,0.0,0.0,0.0,0.0,0.0,0.0,0.0,0.0,0.0,0.0,0.0,0.0,0.0,0.0,0.0,0.0,0.0,0.0,0.0,0.0,0.0,0.0,0.0,0.0,0.0,0.0,0.0,0.0,0.0,0.0,0.0,0.0,0.0,0.0,0.0,0.0,0.0,0.0,0.0,0.0,0.0,0.0,0.0,0.0,0.0,0.0,0.0,0.0,0.0,0.0,0.0,0.0,0.0,0.0,0.0,0.0,0.0,0.0,0.0,0.0,0.0,0.0,0.0,0.0,0.0,0.0,0.0,0.0,0.0,0.0,0.0,0.0,0.0,0.0,0.0,0.0,0.0,0.0,0.0,0.0,0.0,0.0,0.0,0.0,0.0,0.0,0.0,3.064,2.784,2.6012,0.0,2.3594,2.29,0.0,0.0,0.0,0.0,0.0,0.0,0.0,0.0,0.0,0.0,0.0,0.0,0.0,0.0,0.0,0.0,0.0,0.0,0.0,0.0,0.0,0.0,0.0,0.0,0.0,0.0,0.0,0.0,0.0,0.0,0.0,0.0,0.0,0.0,0.0,0.0,0.0,0.0,0.0,0.0,0.0,0.0,0.0,0.0,0.0,0.0,0.0,0.0,0.0,0.0,0.0,0.0,0.0,0.0,0.0,0.0,0.0,0.0,0.0,0.0,0.0,0.0,0.0,0.0,0.0,0.0,0.0,0.0,0.0,0.0,0.0,0.0,0.0,0.0,0.0,0.0,0.0,0.0,0.0,0.0,0.0,0.0,0.0,0.0,0.0,0.0,0.0,0.0,0.0,0.0,0.0,0.0,0.0,0.0,0.0,0.0,0.0,0.0,0.0,0.0,0.0,0.0,0.0,0.0,0.0,0.0,0.0,0.0,0.0,0.0,2.731,2.5289,2.3047,2.2865,2.2997,0.0,0.0,0.0,0.0,0.0,0.0,0.0,0.0,0.0,0.0,0.0,0.0,0.0,0.0,0.0,0.0,0.0,0.0,0.0,0.0,0.0,0.0,0.0,0.0,0.0,0.0,0.0,0.0,0.0,0.0,0.0,0.0,0.0,0.0,0.0,0.0,0.0,0.0,0.0,0.0,0.0,0.0,0.0,0.0,0.0,0.0,0.0,0.0,0.0,0.0,0.0,0.0,0.0,0.0,0.0,0.0,0.0,0.0,0.0,0.0,0.0,0.0,0.0,0.0,0.0,0.0,0.0,0.0,0.0,0.0,0.0,0.0,0.0,0.0,0.0,0.0,0.0,0.0,0.0,0.0,0.0,0.0,0.0,0.0,0.0,0.0,0.0,0.0,0.0,0.0,0.0,0.0,0.0,0.0,0.0,0.0,0.0,0.0,0.0,0.0,0.0,0.0,0.0,0.0,0.0,0.0,0.0,0.0,0.0,0.0,2.5587,0.0,2.4222,2.3965,2.3788,2.3703,0.0,0.0,0.0,0.0,0.0,0.0,0.0,0.0,0.0,0.0,0.0,0.0,0.0,0.0,0.0,0.0,0.0,0.0,0.0,0.0,0.0,0.0,0.0,0.0,0.0,0.0,0.0,0.0,0.0,0.0,0.0,0.0,0.0,0.0,0.0,0.0,0.0,0.0,0.0,0.0,0.0,0.0,0.0,0.0,0.0,0.0,0.0,0.0,0.0,0.0,0.0,0.0,0.0,0.0,0.0,0.0,0.0,0.0,0.0,0.0,0.0,0.0,0.0,0.0,0.0,0.0,0.0,0.0,0.0,0.0,0.0,0.0,0.0,0.0,0.0,0.0,0.0,0.0,0.0,0.0,0.0,0.0,0.0,0.0,0.0,0.0,0.0,0.0,0.0,0.0,0.0,0.0,0.0,0.0,0.0,0.0,0.0,0.0,0.0,0.0,0.0,0.0,0.0,0.0,0.0,0.0,0.0,0.0,0.0,0.0,0.0,2.3886,2.4377,2.4441,0.0,0.0,0.0,0.0,0.0,0.0,0.0,0.0,0.0,0.0,0.0,0.0,0.0,0.0,0.0,0.0,0.0,0.0,0.0,0.0,0.0,0.0,0.0,0.0,0.0,0.0,0.0,0.0,0.0,0.0,0.0,0.0,0.0,0.0,0.0,0.0,0.0,0.0,0.0,0.0,0.0,0.0,0.0,0.0,0.0,0.0,0.0,0.0,0.0,0.0,0.0,0.0,0.0,0.0,0.0,0.0,0.0,0.0,0.0,0.0,0.0,0.0,0.0,0.0,0.0,0.0,0.0,0.0,0.0,0.0,0.0,0.0,0.0,0.0,0.0,0.0,0.0,0.0,0.0,0.0,0.0,0.0,0.0,0.0,0.0,0.0,0.0,0.0,0.0,0.0,0.0,0.0,0.0,0.0,0.0,0.0,0.0,0.0,0.0,0.0,0.0,0.0,0.0,0.0,0.0,0.0,0.0,0.0,0.0,0.0,0.0,2.5475,2.3263,2.4374,0.0,2.4271,0.0,0.0,0.0,0.0,0.0,0.0,0.0,0.0,0.0,0.0,0.0,0.0,0.0,0.0,0.0,0.0,0.0,0.0,0.0,0.0,0.0,0.0,0.0,0.0,0.0,0.0,0.0,0.0,0.0,0.0,0.0,0.0,0.0,0.0,0.0,0.0,0.0,0.0,0.0,0.0,0.0,0.0,0.0,0.0,0.0,0.0,0.0,0.0,0.0,0.0,0.0,0.0,0.0,0.0,0.0,0.0,0.0,0.0,0.0,0.0,0.0,0.0,0.0,0.0,0.0,0.0,0.0,0.0,0.0,0.0,0.0,0.0,0.0,0.0,0.0,0.0,0.0,0.0,0.0,0.0,0.0,0.0,0.0,0.0,0.0,0.0,0.0,0.0,0.0,0.0,0.0,0.0,0.0,0.0,0.0,0.0,0.0,0.0,0.0,0.0,0.0,0.0,0.0,0.0,0.0,0.0,0.0,0.0,0.0,0.0,0.0,0.0,2.5293,2.5194,2.617,0.0,0.0,0.0,0.0,0.0,0.0,0.0,0.0,0.0,0.0,0.0,0.0,0.0,0.0,0.0,0.0,0.0,0.0,0.0,0.0,0.0,0.0,0.0,0.0,0.0,0.0,0.0,0.0,0.0,0.0,0.0,0.0,0.0,0.0,0.0,0.0,0.0,0.0,0.0,0.0,0.0,0.0,0.0,0.0,0.0,0.0,0.0,0.0,0.0,0.0,0.0,0.0,0.0,0.0,0.0,0.0,0.0,0.0,0.0,0.0,0.0,0.0,0.0,0.0,0.0,0.0,0.0,0.0,0.0,0.0,0.0,0.0,0.0,0.0,0.0,0.0,0.0,0.0,0.0,0.0,0.0,0.0,0.0,0.0,0.0,0.0,0.0,0.0,0.0,0.0,0.0,0.0,0.0,0.0,0.0,0.0,0.0,0.0,0.0,0.0,0.0,0.0,0.0,0.0,0.0,0.0,0.0,0.0,0.0,0.0,2.5984,2.6652,2.6069,2.5698,2.5569,0.0,0.0,0.0,0.0,0.0,0.0,0.0,0.0,0.0,0.0,0.0,0.0,0.0,0.0,0.0,0.0,0.0,0.0,0.0,0.0,0.0,0.0,0.0,0.0,0.0,0.0,0.0,0.0,0.0,0.0,0.0,0.0,0.0,0.0,0.0,0.0,0.0,0.0,0.0,0.0,0.0,0.0,0.0,0.0,0.0,0.0,0.0,0.0,0.0,0.0,0.0,0.0,0.0,0.0,0.0,0.0,0.0,0.0,0.0,0.0,0.0,0.0,0.0,0.0,0.0,0.0,0.0,0.0,0.0,0.0,0.0,0.0,0.0,0.0,0.0,0.0,0.0,0.0,0.0,0.0,0.0,0.0,0.0,0.0,0.0,0.0,0.0,0.0,0.0,0.0,0.0,0.0,0.0,0.0,0.0,0.0,0.0,0.0,0.0,0.0,0.0,0.0,0.0,0.0,0.0,0.0,0.0,0.0,0.0,0.0,0.0,0.0,0.0,0.0,2.4335,0.0,0.0,0.0,0.0,0.0,0.0,0.0,0.0,0.0,0.0,0.0,0.0,0.0,0.0,0.0,0.0,0.0,0.0,0.0,0.0,0.0,0.0,0.0,0.0,0.0,0.0,0.0,0.0,0.0,0.0,0.0,0.0,0.0,0.0,0.0,0.0,0.0,0.0,0.0,0.0,0.0,0.0,0.0,0.0,0.0,0.0,0.0,0.0,0.0,0.0,0.0,0.0,0.0,0.0,0.0,0.0,0.0,0.0,0.0,0.0,0.0,0.0,0.0,0.0,0.0,0.0,0.0,0.0,0.0,0.0,0.0,0.0,0.0,0.0,0.0,0.0,0.0,0.0,0.0,0.0,0.0,0.0,0.0,0.0,0.0,0.0,0.0,0.0,0.0,0.0,0.0,0.0,0.0,0.0,0.0,0.0,0.0,0.0,0.0,0.0,0.0,0.0,0.0,0.0,0.0,0.0,0.0,0.0,0.0,0.0,0.0,0.0,0.0,0.0,0.0,0.0,0.0,0.0,0.0,0.0,0.0,0.0,0.0,0.0,0.0,0.0,0.0,0.0,0.0,0.0,0.0,0.0,0.0,0.0,0.0,0.0,0.0,0.0,0.0,0.0,0.0,0.0,0.0,0.0,0.0,0.0,0.0,0.0,0.0,0.0,0.0,0.0,0.0,0.0,0.0,0.0,0.0,0.0,0.0,0.0,0.0,0.0,0.0,0.0,0.0,0.0,0.0,0.0,0.0,0.0,0.0,0.0,0.0,0.0,0.0,0.0,0.0,0.0,0.0,0.0,0.0,0.0,0.0,0.0,0.0,0.0,0.0,0.0,0.0,0.0,0.0,0.0,0.0,0.0,0.0,0.0,0.0,0.0,0.0,0.0,0.0,0.0,0.0,0.0,0.0,0.0,0.0,0.0,0.0,0.0,0.0,0.0,0.0,0.0,0.0,0.0,0.0,0.0,0.0,0.0,0.0,0.0,0.0,0.0,0.0,0.0,0.0,0.0,0.0,0.0,0.0,0.0,0.0,0.0,0.0,0.0,0.0,0.0,0.0,0.0,0.0,0.0,0.0,0.0,0.0,0.0,0.0,0.0,0.0,0.0,0.0,0.0,0.0,0.0,0.0,0.0,0.0,0.0,0.0,0.0,0.0,0.0,0.0,0.0,0.0,0.0,0.0,0.0,0.0,0.0,0.0,0.0,0.0,0.0,0.0,0.0,0.0,0.0,0.0,0.0,0.0,0.0,0.0,0.0,0.0,0.0,0.0,0.0,0.0,0.0,0.0,0.0,0.0,0.0,0.0,0.0,0.0,0.0,0.0,0.0,0.0,0.0,0.0,0.0,0.0,0.0,0.0,0.0,0.0,0.0,0.0,0.0,0.0,0.0,0.0,0.0,0.0,0.0,0.0,0.0,0.0,0.0,0.0,0.0,0.0,0.0,0.0,0.0,0.0,0.0,0.0,0.0,0.0,0.0,0.0,0.0,0.0,0.0,0.0,0.0,0.0,0.0,0.0,0.0,0.0,0.0,0.0,0.0,0.0,0.0,0.0,0.0,0.0,0.0,0.0,0.0,0.0,0.0,0.0,0.0,0.0,0.0,0.0,0.0,0.0,0.0,0.0,0.0,0.0,0.0,0.0,0.0,0.0,0.0,0.0,0.0,0.0,0.0,0.0,0.0,0.0,0.0,0.0,0.0,0.0,0.0,0.0,0.0,0.0,0.0,0.0,0.0,0.0,0.0,0.0,0.0,0.0,0.0,0.0,0.0,0.0,0.0,0.0,0.0,0.0,0.0,0.0,0.0,0.0,0.0,0.0,0.0,0.0,0.0,0.0,0.0,0.0,0.0,0.0,0.0,0.0,0.0,0.0,0.0,0.0,0.0,0.0,0.0,0.0,0.0,0.0,0.0,0.0,0.0,0.0,0.0,0.0,0.0,0.0,0.0,0.0,0.0,0.0,0.0,0.0,0.0,0.0,0.0,0.0,0.0,0.0,0.0,0.0,0.0,0.0,0.0,0.0,0.0,0.0,0.0,0.0,0.0,0.0,0.0,0.0,0.0,0.0,0.0,0.0,0.0,0.0,0.0,0.0,0.0,0.0,0.0,0.0,0.0,0.0,0.0,0.0,0.0,0.0,0.0,0.0,0.0,0.0,0.0,0.0,0.0,0.0,0.0,0.0,0.0,0.0,0.0,0.0,0.0,0.0,0.0,0.0,0.0,0.0,0.0,0.0,0.0,0.0,0.0,0.0,0.0,0.0,0.0,0.0,0.0,0.0,0.0,0.0,0.0,0.0,0.0,0.0,0.0,0.0,0.0,0.0,0.0,0.0,0.0,0.0,0.0,0.0,0.0,0.0,0.0,0.0,0.0,0.0,0.0,0.0,0.0,0.0,0.0,0.0,0.0,0.0,0.0,0.0,0.0,0.0,0.0,0.0,0.0,0.0,0.0,0.0,0.0,0.0,0.0,0.0,0.0,0.0,0.0,0.0,0.0,0.0,0.0,0.0,0.0,0.0,0.0,0.0,0.0,0.0,0.0,0.0,0.0,0.0,0.0,0.0,0.0,0.0,0.0,0.0,0.0,0.0,0.0,0.0,0.0,0.0,0.0,0.0,0.0,0.0,0.0,0.0,0.0,0.0,0.0,0.0,0.0,0.0,0.0,0.0,0.0,0.0,0.0,0.0,0.0,0.0,0.0,0.0,0.0,0.0,0.0,0.0,0.0,0.0,0.0,0.0,0.0,0.0,0.0,0.0,0.0,0.0,0.0,0.0,0.0,0.0,0.0,0.0,0.0,0.0,0.0,0.0,0.0,0.0,0.0,0.0,0.0,0.0,0.0,0.0,0.0,0.0,0.0,0.0,0.0,0.0,0.0,0.0,0.0,0.0,0.0,0.0,0.0,0.0,0.0,0.0,0.0,0.0,0.0,0.0,0.0,0.0,0.0,0.0,0.0,0.0,0.0,0.0,0.0,0.0,0.0,0.0,0.0,0.0,0.0,0.0,0.0,0.0,0.0,0.0,0.0,0.0,0.0,0.0,0.0,0.0,0.0,0.0,0.0,0.0,0.0,0.0,0.0,0.0,0.0,0.0,0.0,0.0,0.0,0.0,0.0,0.0,0.0,0.0,0.0,0.0,0.0,0.0,0.0,0.0,0.0,0.0,0.0,0.0,0.0,0.0,0.0,0.0,0.0,0.0,0.0,0.0,0.0,0.0,0.0,0.0,0.0,0.0,0.0,0.0,0.0,0.0,0.0,0.0,0.0,0.0,0.0,0.0,0.0,0.0,0.0,0.0,0.0,0.0,0.0,0.0,0.0,0.0,0.0,0.0,0.0,0.0,0.0,0.0,0.0,0.0,0.0,0.0,0.0,0.0,0.0,0.0,0.0,0.0,0.0,0.0,0.0,0.0,0.0,0.0,0.0,0.0,0.0,0.0,0.0,0.0,0.0,0.0,0.0,0.0,0.0,0.0,0.0,0.0,0.0,0.0,0.0,0.0,0.0,0.0,0.0,0.0,0.0,0.0,0.0,0.0,0.0,0.0,0.0,0.0,0.0,0.0,0.0,0.0,0.0,0.0,0.0,0.0,0.0,0.0,0.0,0.0,0.0,0.0,0.0,0.0,0.0,0.0,0.0,0.0,0.0,0.0,0.0,0.0,0.0,0.0,0.0,0.0,0.0,0.0,0.0,0.0,0.0,0.0,0.0,0.0,0.0,0.0,0.0,0.0,0.0,0.0,0.0,0.0,0.0,0.0,0.0,0.0,0.0,0.0,0.0,0.0,0.0,0.0,0.0,0.0,0.0,0.0,0.0,0.0,0.0,0.0,0.0,0.0,0.0,0.0,0.0,0.0,0.0,0.0,0.0,0.0,0.0,0.0,0.0,0.0,0.0,0.0,0.0,0.0,0.0,0.0,0.0,0.0,0.0,0.0,0.0,0.0,0.0,0.0,0.0,0.0,0.0,0.0,0.0,0.0,0.0,0.0,0.0,0.0,0.0,0.0,0.0,0.0,0.0,0.0,0.0,0.0,0.0,0.0,0.0,0.0,0.0,0.0,0.0,0.0,0.0,0.0,0.0,0.0,0.0,0.0,0.0,0.0,0.0,0.0,0.0,0.0,0.0,0.0,0.0,0.0,0.0,0.0,0.0,0.0,0.0,0.0,0.0,0.0,0.0,0.0,0.0,0.0,0.0,0.0,0.0,0.0,0.0,0.0,0.0,0.0,0.0,0.0,0.0,0.0,0.0,0.0,0.0,0.0,0.0,0.0,0.0,0.0,0.0,0.0,0.0,0.0,0.0,0.0,0.0,0.0,0.0,0.0,0.0,0.0,0.0,0.0,0.0,0.0,0.0,0.0,0.0,0.0,0.0]}]]]